[[{"header":{"parameterUnit":"m.s-1","parameterCategory":1,"la1":30.6,"la2":29.2853,"lo1":-89.7004,"lo2":-87.6739,"dy":0.0162,"dx":0.0183,"nx":112,"ny":82,"refTime":"2025-03-04T18:00:00:Z","depth":0,"parameterNumber":2,"parameterNumberName":"U-component_of_WINDS"},"data":[0.0,0.0,0.0,0.0,0.0,0.0,0.0,0.0,0.0,0.0,0.0,0.0,0.0,0.0,0.0,0.0,0.0,0.0,0.0,0.0,0.0,0.0,0.0,0.0,0.0,0.0,0.0,0.0,0.0,0.0,0.0,0.0,0.0,0.0,0.0,0.0,0.0,0.0,0.0,0.0,0.0,0.0,0.0,0.0,0.0,0.0,0.0,0.0,0.0,0.0,0.0,0.0,0.0,0.0,0.0,0.0,0.0,0.0,0.0,0.0,0.0,0.0,0.0,0.0,0.0,0.0,0.0,0.0,0.0,0.0,0.0,0.0,0.0,0.0,0.0,0.0,0.0,0.0,0.0,0.0,0.0,0.0,0.0,0.0,0.0,0.0,0.0,0.0,0.0,0.0,-0.0,-0.0,-0.0,-0.0,-0.0,-0.0,-0.0,-0.0,0.0,0.0,0.0,0.0,0.0,0.0,0.0,0.0,0.0,0.0,0.0,0.0,0.0,0.0,0.0,0.0,0.0,0.0,0.0,0.0,0.0,0.0,0.0,0.0,0.0,0.0,0.0,0.0,0.0,0.0,0.0,0.0,0.0,0.0,0.0,0.0,0.0,0.0,0.0,0.0,0.0,0.0,0.0,0.0,0.0,0.0,0.0,0.0,0.0,0.0,0.0,0.0,0.0,0.0,0.0,0.0,0.0,0.0,0.0,0.0,0.0,0.0,0.0,0.0,0.0,0.0,0.0,0.0,0.0,0.0,0.0,0.0,0.0,0.0,0.0,0.0,0.0,0.0,0.0,0.0,0.0,0.0,0.0,0.0,0.0,0.0,0.0,0.0,0.0,0.0,0.0,0.0,0.0,0.0,0.0,0.0,0.0,0.0,0.0,0.0,0.0,0.0,0.0,0.0,-0.0,-0.0,-0.0,-0.0,-0.0,-0.0,-0.0,-0.0,0.0,0.0,0.0,0.0,0.0,0.0,0.0,0.0,0.0,0.0,0.0,0.0,0.0,0.0,0.0,0.0,0.0,0.0,0.0,0.0,0.0,0.0,0.0,0.0,0.0,0.0,0.0,0.0,0.0,0.0,0.0,0.0,0.0,0.0,0.0,0.0,0.0,0.0,0.0,0.0,0.0,0.0,0.0,0.0,0.0,0.0,0.0,0.0,0.0,0.0,0.0,0.0,0.0,0.0,0.0,0.0,0.0,0.0,0.0,0.0,0.0,0.0,0.0,0.0,0.0,0.0,0.0,0.0,0.0,0.0,0.0,0.0,0.0,0.0,0.0,0.0,0.0,0.0,0.0,0.0,0.0,0.0,0.0,0.0,0.0,0.0,0.0,0.0,0.0,0.0,0.0,0.0,0.0,0.0,0.0,0.0,0.0,0.0,0.0,0.0,0.0,0.0,0.0,-0.0,-0.0,-0.0,-0.0,-0.0,-0.0,-0.0,-0.0,-0.0,-0.0,0.0,0.0,0.0,0.0,0.0,0.0,0.0,0.0,0.0,0.0,0.0,0.0,0.0,0.0,0.0,0.0,0.0,0.0,0.0,0.0,0.0,0.0,0.0,0.0,0.0,0.0,0.0,0.0,0.0,0.0,0.0,0.0,0.0,0.0,0.0,0.0,0.0,0.0,0.0,0.0,0.0,0.0,0.0,0.0,0.0,0.0,0.0,0.0,0.0,0.0,0.0,0.0,0.0,0.0,0.0,0.0,0.0,0.0,0.0,0.0,0.0,0.0,0.0,0.0,0.0,0.0,0.0,0.0,0.0,0.0,0.0,0.0,0.0,0.0,0.0,0.0,0.0,0.0,0.0,0.0,0.0,0.0,0.0,0.0,0.0,0.0,0.0,0.0,0.0,0.0,0.0,0.0,0.0,0.0,0.0,0.0,0.0,0.0,0.0,0.0,0.0,0.0,-0.0,-0.0,-0.0,-0.0,-0.0,-0.0,-0.0,-0.0,-0.0,-0.0,0.0,0.0,0.0,0.0,0.0,0.0,0.0,0.0,0.0,0.0,0.0,0.0,0.0,0.0,0.0,0.0,0.0,0.0,0.0,0.0,0.0,0.0,0.0,0.0,0.0,0.0,0.0,0.0,0.0,0.0,0.0,0.0,0.0,0.0,0.0,0.0,0.0,0.0,0.0,0.0,0.0,0.0,0.0,0.0,0.0,0.0,0.0,0.0,0.0,0.0,0.0,0.0,0.0,0.0,0.0,0.0,0.0,0.0,0.0,0.0,0.0,0.0,0.0,0.0,0.0,0.0,0.0,0.0,0.0,0.0,0.0,0.0,0.0,0.0,0.0,0.0,0.0,0.0,0.0,0.0,0.0,0.0,0.0,0.0,0.0,0.0,0.0,0.0,0.0,0.0,0.0,0.0,0.0,0.0,0.0,0.0,0.0,0.0,0.0,0.0,0.0,0.0,-0.0,-0.0,-0.0,-0.0,-0.0,-0.0,-0.0,-0.0,-0.0,-0.0,0.0,0.0,0.0,0.0,0.0,0.0,0.0,0.0,0.0,0.0,0.0,0.0,0.0,0.0,0.0,0.0,0.0,0.0,0.0,0.0,0.0,0.0,0.0,0.0,0.0,0.0,0.0,0.0,0.0,0.0,0.0,0.0,0.0,0.0,0.0,0.0,0.0,0.0,0.0,0.0,0.0,0.0,0.0,0.0,0.0,0.0,0.0,0.0,0.0,0.0,0.0,0.0,0.0,0.0,0.0,0.0,0.0,0.0,0.0,0.0,0.0,0.0,0.0,0.0,0.0,0.0,0.0,0.0,0.0,0.0,0.0,0.0,0.0,0.0,0.0,0.0,0.0,0.0,0.0,0.0,0.0,0.0,0.0,0.0,0.0,0.0,0.0,0.0,0.0,0.0,0.0,0.0,0.0,0.0,0.0,0.0,0.0,0.0,0.0,0.0,0.0,0.0,-0.0,-0.0,-0.0,-0.0,-0.0,-0.0,-0.0,-0.0,-0.0,0.0,0.0,0.0,0.0,0.0,0.0,0.0,0.0,0.0,0.0,0.0,0.0,0.0,0.0,0.0,0.0,0.0,0.0,0.0,0.0,0.0,0.0,0.0,0.0,0.0,0.0,0.0,0.0,0.0,0.0,0.0,0.0,0.0,0.0,0.0,0.0,0.0,0.0,0.0,0.0,0.0,0.0,0.0,0.0,0.0,0.0,0.0,0.0,0.0,0.0,0.0,0.0,0.0,0.0,0.0,0.0,0.0,0.0,0.0,0.0,0.0,0.0,0.0,0.0,0.0,0.0,0.0,0.0,0.0,0.0,0.0,0.0,0.0,0.0,0.0,0.0,0.0,0.0,0.0,0.0,0.0,0.0,0.0,0.0,0.0,0.0,0.0,0.0,0.0,0.0,0.0,0.0,0.0,0.0,0.0,0.0,0.0,0.0,0.0,0.0,0.0,0.0,-0.0,-0.0,-0.0,-0.0,-0.0,-0.0,-0.0,-0.0,-0.0,-0.0,0.0,0.0,0.0,0.0,0.0,0.0,0.0,0.0,0.0,0.0,0.0,0.0,0.0,0.0,0.0,0.0,0.0,0.0,0.0,0.0,0.0,0.0,0.0,0.0,0.0,0.0,0.0,0.0,0.0,0.0,0.0,0.0,0.0,0.0,0.0,0.0,0.0,0.0,0.0,0.0,0.0,0.0,0.0,0.0,0.0,0.0,0.0,0.0,0.0,0.0,0.0,0.0,0.0,0.0,0.0,0.0,0.0,0.0,0.0,0.0,0.0,0.0,0.0,0.0,0.0,0.0,0.0,0.0,0.0,0.0,0.0,0.0,0.0,0.0,0.0,0.0,0.0,0.0,0.0,0.0,0.0,0.0,0.0,0.0,0.0,0.0,0.0,0.0,0.0,0.0,0.0,0.0,0.0,0.0,0.0,0.0,0.0,0.0,0.0,0.0,0.0,0.0,-0.0,-0.0,-0.0,-0.0,-0.0,-0.0,-0.0,-0.0,-0.0,0.0,0.0,0.0,0.0,0.0,0.0,0.0,0.0,0.0,0.0,0.0,0.0,0.0,0.0,0.0,0.0,0.0,0.0,0.0,0.0,0.0,0.0,0.0,0.0,0.0,0.0,0.0,0.0,0.0,0.0,0.0,0.0,0.0,0.0,0.0,0.0,0.0,0.0,0.0,0.0,0.0,0.0,0.0,0.0,0.0,0.0,0.0,0.0,0.0,0.0,0.0,0.0,0.0,0.0,0.0,0.0,0.0,0.0,0.0,0.0,0.0,0.0,0.0,0.0,0.0,0.0,0.0,0.0,0.0,0.0,0.0,0.0,0.0,0.0,0.0,0.0,0.0,0.0,0.0,0.0,0.0,0.0,0.0,0.0,0.0,0.0,0.0,0.0,0.0,0.0,0.0,0.0,0.0,0.0,0.0,0.0,0.0,0.0,0.0,0.0,0.0,0.0,0.0,-0.0,-0.0,-0.0,-0.0,-0.0,-0.0,-0.0,-0.0,-0.0,-0.0,0.0,0.0,0.0,0.0,0.0,0.0,0.0,0.0,0.0,0.0,0.0,0.0,0.0,0.0,0.0,0.0,0.0,0.0,0.0,0.0,0.0,0.0,0.0,0.0,0.0,0.0,0.0,0.0,0.0,0.0,0.0,0.0,0.0,0.0,0.0,0.0,0.0,0.0,0.0,0.0,0.0,0.0,0.0,0.0,0.0,0.0,0.0,0.0,0.0,0.0,0.0,0.0,0.0,0.0,0.0,0.0,0.0,0.0,0.0,0.0,0.0,0.0,0.0,0.0,0.0,0.0,0.0,0.0,0.0,0.0,0.0,0.0,0.0,0.0,0.0,0.0,0.0,0.0,0.0,0.0,0.0,0.0,0.0,0.0,0.0,0.0,0.0,0.0,0.0,0.0,0.0,0.0,0.0,0.0,0.0,0.0,0.0,0.0,0.0,0.0,0.0,0.0,-0.0,-0.0,-0.0,-0.0,-0.0,-0.0,-0.0,-0.0,-0.0,-0.0,0.0,0.0,0.0,0.0,0.0,0.0,0.0,0.0,0.0,0.0,0.0,0.0,0.0,0.0,0.0,0.0,0.0,0.0,0.0,0.0,0.0,0.0,0.0,0.0,0.0,0.0,0.0,0.0,0.0,0.0,0.0,0.0,0.0,0.0,0.0,0.0,0.0,0.0,0.0,0.0,0.0,0.0,0.0,0.0,0.0,0.0,0.0,0.0,0.0,0.0,0.0,0.0,0.0,0.0,0.0,0.0,0.0,0.0,0.0,0.0,0.0,0.0,0.0,0.0,0.0,0.0,0.0,0.0,0.0,0.0,0.0,0.0,0.0,0.0,0.0,0.0,0.0,0.0,0.0,0.0,0.0,0.0,0.0,0.0,0.0,0.0,0.0,0.0,0.0,0.0,0.0,0.0,0.0,0.0,0.0,0.0,0.0,0.0,0.0,0.0,0.0,0.0,-0.0,-0.0924,-0.1569,-0.1615,-0.1004,-0.0802,-0.0809,-0.0783,-0.0748,-0.0703,0.0,0.0,0.0,0.0,0.0,0.0,0.0,0.0,0.0,0.0,0.0,0.0,0.0,0.0,0.0,0.0,0.0,0.0,0.0,0.0,0.0,0.0,0.0,0.0,0.0,0.0,0.0,0.0,0.0,0.0,0.0,0.0,0.0,0.0,0.0,0.0,0.0,0.0,0.0,0.0,0.0,0.0,0.0,0.0,0.0,0.0,0.0,0.0,0.0,0.0,0.0,0.0,0.0,0.0,0.0,0.0,0.0,0.0,0.0,0.0,1.4189,0.0,0.0,0.0,0.0,0.0,0.0,0.0,0.0,0.0,0.0,0.0,0.0,0.0,0.0,0.0,0.0,0.0,0.0,0.0,0.0,0.0,0.0,0.0,0.0,0.0,0.0,0.0,0.0,0.0,0.0,0.0,0.0,0.0,0.0,0.0,0.0,0.0,0.0,0.0,0.0,0.0,-0.0,-0.7778,-1.3461,-1.3427,-0.9463,-0.6766,-0.6777,-0.6645,-0.6421,-0.6097,-0.5281,0.0,0.0,0.0,0.0,0.0,0.0,0.0,0.0,0.0,0.0,0.0,0.0,0.0,0.0,0.0,0.0,0.0,0.0,0.0,0.0,0.0,0.0,0.0,0.0,0.0,0.0,0.0,0.0,0.0,0.0,0.0,0.0,0.0,0.0,0.0,0.0,0.0,0.0,0.0,0.0,0.0,0.0,0.0,0.0,0.0,0.0,0.0,0.0,0.0,0.0,0.0,0.0,0.0,0.0,0.0,0.0,0.0,0.0,0.0,0.0,1.419,0.0,0.0,0.0,0.0,0.0,0.0,0.0,0.0,0.0,0.0,0.0,0.0,0.0,0.0,0.0,0.0,0.0,0.0,0.0,0.0,0.0,0.0,0.0,0.0,0.0,0.0,0.0,0.0,0.0,0.0,0.0,0.0,0.0,0.0,0.0,0.0,0.0,0.0,0.0,0.0,-0.4483,-0.9293,-1.3938,-1.6754,-1.4423,-1.2512,-1.2512,-1.2512,-1.2358,-1.1836,-1.1118,0.0,0.0,0.0,0.0,0.0,0.0,0.0,0.0,0.0,0.0,0.0,0.0,0.0,0.0,0.0,0.0,0.0,0.0,0.0,0.0,0.0,0.0,0.0,0.0,0.0,0.0,0.0,0.0,0.0,0.0,0.0,0.0,0.0,0.0,0.0,0.0,0.0,0.0,0.0,0.0,0.0,0.0,0.0,0.0,0.0,0.0,0.0,0.0,0.0,0.0,0.0,0.0,0.0,1.412,1.3766,1.3994,1.4614,1.2658,0.8869,1.1447,1.2762,1.3087,1.302,0.0,0.0,0.0,0.0,0.0,0.0,0.0,0.0,0.0,0.0,0.0,0.0,0.0,0.0,0.0,0.0,0.0,0.0,0.0,0.0,0.0,0.0,-0.0,-0.0,-0.0,-0.0,-0.0,0.0,0.0,0.0,0.0,0.0,0.0,0.0,0.0,0.0,0.0,0.0,-1.0579,-1.0054,-1.1861,-1.6459,-1.6904,-1.7106,-1.7106,-1.7085,-1.6897,-1.6529,-1.5737,-1.4875,0.0,0.0,0.0,0.0,0.0,0.0,0.0,0.0,0.0,0.0,0.0,0.0,0.0,0.0,0.0,0.0,0.0,0.0,0.0,0.0,0.0,0.0,0.0,0.0,0.0,0.0,0.0,0.0,0.0,0.0,0.0,0.0,1.7121,1.6992,0.0,0.0,0.0,0.0,0.0,0.0,0.0,0.0,0.0,0.0,0.0,0.0,0.0,1.5263,1.5414,1.5505,1.5462,1.5488,1.094,0.871,0.8713,1.3684,1.5515,1.4752,1.004,0.0,0.8061,0.8099,0.0,0.0,0.0,0.0,0.0,0.0,0.0,0.0,0.0,0.0,0.0,0.0,0.0,0.0,0.0,0.0,0.0,0.0,0.0,0.0,0.0,0.0,-0.0,-0.0,-0.0,-0.0,-0.0,-0.0,-0.0,-0.0,-0.6233,-0.9172,0.0,0.0,0.0,0.0,0.0,0.0,-1.5917,-1.5924,-1.6197,-1.6992,-1.6985,-1.6965,-1.6965,-1.6931,-1.6761,-1.6618,-1.6151,-1.5418,-1.4801,-1.3966,0.0,0.0,0.0,0.0,0.0,0.0,0.0,0.0,0.0,0.0,0.0,0.0,0.0,0.0,0.0,0.0,0.0,0.0,0.0,0.0,0.0,0.0,0.0,0.0,0.0,0.0,0.0,0.0,0.0,1.7304,1.7365,1.7127,1.7304,1.7324,0.0,0.0,0.0,0.0,0.0,0.0,0.0,0.0,0.0,1.5766,1.5763,1.4302,1.1112,1.1267,1.2927,1.6369,1.4124,0.9664,0.3352,0.5844,1.0441,1.5618,0.6798,0.3123,0.3055,0.309,0.438,0.6264,0.0,0.0,0.0,0.0,-0.0,-0.0,-0.0,-0.0,-0.0,-0.0,0.0,0.0,0.0,0.0,0.0,0.0,0.0,-0.0,-0.0,-0.0,-0.0,-0.0,-0.0,-0.0,-0.0,-0.0,-0.0,-0.0,-0.3191,-0.6258,-0.7386,-0.3403,0.0,0.0,0.0,-1.6368,-1.6487,-1.6918,-1.7046,-1.7114,-1.7134,-1.7107,-1.7019,-1.6902,-1.6869,-1.6863,-1.6592,-1.6246,-1.5811,-1.521,-1.4272,0.0,0.0,0.0,0.0,0.0,0.0,0.0,0.0,0.0,0.0,0.0,0.0,0.0,0.0,0.0,0.0,0.0,0.0,0.0,0.0,0.0,0.0,0.0,0.0,0.0,0.0,0.0,0.0,1.7487,1.7575,1.7236,1.7561,1.7616,0.0,0.0,0.0,0.0,0.0,0.0,1.6527,1.6289,1.5405,1.383,1.542,1.4352,1.0261,0.7343,0.8096,1.264,1.2722,0.8233,-0.0,-0.0,0.4495,1.1457,0.3545,-0.0,-0.0,-0.0,-0.0,-0.0,-0.0,-0.0,-0.0,-0.0,-0.0,-0.0,-0.0,-0.0,-0.0,-0.0,-0.0,-0.0,-0.0,0.0,0.0,0.0,0.0,-0.0,-0.0,-0.0,-0.0,-0.0,-0.0,-0.0,-0.0,-0.0,-0.0,-0.0,-0.0,-0.2041,-0.8878,-0.6394,0.0,-0.035,-0.6623,-1.2621,-1.5577,-1.6654,-1.727,-1.7236,-1.729,-1.6615,-1.4945,-1.4868,-1.4915,-1.4821,-1.4733,-1.4773,-1.4505,-1.397,-1.4134,-1.4709,0.0,0.0,0.0,0.0,0.0,0.0,0.0,0.0,0.0,0.0,0.0,0.0,0.0,0.0,0.0,0.0,0.0,0.0,0.0,0.0,0.0,0.0,0.0,0.0,0.0,0.0,0.0,0.0,0.0,1.7243,1.7846,0.0,0.0,0.0,0.0,1.7399,1.7521,1.7458,1.6956,1.722,1.4716,0.8624,1.3954,1.6989,1.7391,0.6011,0.0483,0.0974,0.0974,0.0487,-0.0,-0.0,0.0244,0.0731,0.0244,-0.0,-0.0,-0.0,-0.0,-0.0,-0.0,-0.0,-0.0,-0.0,-0.0,-0.0,-0.0,-0.0,-0.0,-0.0,-0.0,-0.0,-0.0,-0.0,0.0,0.0,-0.0,-0.0,-0.0,-0.0,-0.0,-0.0,-0.0,-0.0,-0.0,-0.0,-0.0,-0.0,-0.0,-0.0191,-0.0563,0.0,-0.9737,-0.1306,-0.0389,-0.4442,-1.4282,-1.673,-1.7487,-1.7344,-1.723,-1.4821,-0.9465,-0.8881,-0.8926,-0.8922,-0.8919,-0.8846,-0.8904,-0.8947,-1.1115,-1.5925,-1.478,0.0,0.0,0.0,0.0,0.0,0.0,0.0,0.0,0.0,0.0,0.0,0.0,0.0,0.0,0.0,0.0,0.0,0.0,0.0,0.0,0.0,0.0,0.0,0.0,0.0,0.0,0.0,0.0,1.807,1.864,0.0,1.8253,1.8088,1.7921,1.7874,1.7811,1.7922,1.7775,1.7817,1.6852,1.4341,0.9052,0.6165,0.6455,0.2235,-0.0,-0.0,-0.0,-0.0,-0.0,-0.0,-0.0,-0.0,-0.0,-0.0,-0.0,-0.0,-0.0,-0.0,-0.0,-0.0,-0.0,-0.0,-0.0,-0.0,-0.0,-0.0,-0.0,-0.0,-0.0,-0.0,-0.0,-0.0,-0.0,-0.0,-0.0,-0.0,-0.0,-0.0,-0.0,-0.0,-0.0,-0.0,-0.0,-0.0,-0.0,-0.0,-0.0,-0.0,-0.0,-0.2746,-0.3741,-0.0394,-0.0,-0.1258,-0.5123,-0.9175,-1.1717,-1.1836,-1.5213,-1.6563,-1.4188,-0.7233,-0.3074,-0.3059,-0.3059,-0.3041,-0.3005,-0.2954,-0.3909,-0.5762,-0.5409,-0.7121,0.0,0.0,0.0,0.0,0.0,0.0,0.0,0.0,0.0,0.0,0.0,0.0,0.0,0.0,0.0,0.0,0.0,0.0,0.0,0.0,0.0,0.0,0.0,0.0,0.0,0.0,1.8503,1.8796,1.9339,1.9535,1.8838,1.8681,1.7751,1.5276,1.4934,1.602,1.8294,1.8555,1.6485,1.2045,0.403,-0.0,-0.0,-0.0,-0.0,-0.0,-0.0,-0.0,-0.0,-0.0,-0.0,-0.0,-0.0,-0.0,-0.0,-0.0,-0.0,-0.0,-0.0,-0.0,-0.0,-0.0,-0.0,-0.0,-0.0,-0.0,-0.0,-0.0,-0.0,-0.0,-0.0,-0.0,-0.0,-0.0,-0.0,-0.0,-0.0,-0.0,-0.0,-0.0,-0.0,-0.0,-0.0,-0.0,-0.0,-0.0,-0.0,-0.0,-0.0,-0.0,-0.0,-0.0,-0.0,-0.0,-0.0,-0.3355,-0.5618,-0.5793,-0.9382,-1.1812,-1.1242,-0.4418,-0.0,-0.0,-0.0,-0.0,-0.0,-0.0,-0.0,-0.0,-0.3157,-0.6401,-0.9472,0.0,0.0,0.0,0.0,0.0,0.0,0.0,0.0,0.0,0.0,0.0,0.0,0.0,0.0,0.0,0.0,0.0,0.0,0.0,0.0,0.0,0.0,0.0,1.724,1.7755,1.8431,1.888,1.9416,1.9352,1.869,1.9149,1.671,0.9859,0.9166,1.1763,1.8001,1.8665,1.3094,0.0516,-0.0,-0.0,-0.0,-0.0,-0.0,-0.0,-0.0,-0.0,-0.0,-0.0,-0.0,-0.0,-0.0,-0.0,-0.0,-0.0,-0.0,-0.0,-0.0,-0.0,-0.0,-0.0,-0.0,-0.0,-0.0,-0.0,-0.0,-0.0,-0.0,-0.0,-0.0,-0.0,-0.0,-0.0,-0.0,-0.0,-0.0,-0.0,-0.0,-0.0,-0.0,-0.0,-0.0,-0.0,-0.0,-0.0,-0.0,-0.0,-0.0,-0.0,-0.0,-0.0,-0.0,0.0,-0.0,-0.0,-0.0,-0.0,-0.0,-0.0,-0.0,-0.0,-0.0,-0.0,-0.0,-0.0,-0.0,-0.0,-0.0,-0.0,-0.904,-0.9353,-0.0,0.0,0.0,0.0,0.0,0.0,0.0,0.0,0.0,0.0,0.0,0.0,0.0,0.0,0.0,0.0,0.0,0.0,0.0,0.0,0.0,0.0,0.0,1.7807,1.7859,1.3971,1.1389,1.1927,1.262,1.2987,1.2716,1.7185,1.9516,1.7541,0.8229,0.3342,0.513,0.5396,0.3862,-0.0,-0.0,-0.0,-0.0,-0.0,-0.0,-0.0,-0.0,-0.0,-0.0,-0.0,-0.0,-0.0,-0.0,-0.0,-0.0,-0.0,-0.0,-0.0,-0.0,-0.0,-0.0,-0.0,-0.0,-0.0,-0.0,-0.0,-0.0,-0.0,-0.0,-0.0,-0.0,-0.0,-0.0,-0.0,-0.0,-0.0,-0.0,-0.0,-0.0,-0.0,-0.0,-0.0,-0.0,-0.0,-0.0,-0.0,-0.0,-0.0,-0.0,-0.0,-0.0,-0.0,-0.0,-0.0,-0.0,-0.0,-0.0,-0.0,-0.0,-0.0,-0.0,-0.0,-0.0,-0.0,-0.0,-0.0,-0.0,-0.0,-0.0,-0.0,-0.2605,-0.2539,0.0,0.0,0.0,0.0,0.0,0.0,0.0,0.0,0.0,0.0,0.0,0.0,0.0,0.0,0.0,0.0,0.0,0.0,0.0,0.0,0.0,0.0,1.7669,1.7953,1.8498,1.5153,1.1036,0.6066,0.5845,0.5875,0.5919,0.9623,1.1965,1.1919,0.4457,-0.0,-0.0,-0.0,-0.0,-0.0,-0.0,-0.0,-0.0,-0.0,-0.0,-0.0,-0.0,-0.0,-0.0,-0.0,-0.0,-0.0,-0.0,-0.0,-0.0,-0.0,-0.0,-0.0,0.0,0.0,0.0,0.0,-0.0,-0.0,-0.0,-0.0,-0.0,-0.0,-0.0,-0.0,-0.0,-0.0,-0.0,-0.0,-0.0,-0.0,-0.0,-0.0,-0.0,-0.0,-0.0,-0.0,-0.0,-0.0,-0.0,-0.0,-0.0,0.0,-0.0,-0.0,-0.0,-0.0,-0.0,-0.0,-0.0,-0.0,-0.0,-0.0,-0.0,-0.0,-0.0,-0.0,0.0,0.0,0.0,-0.0,-0.0,-0.0,0.0,0.0,0.0,0.0,0.0,-0.0,0.0,0.0,-0.0,-0.0,0.0,0.0,0.0,0.0,0.0,0.0,0.0,0.0,0.0,0.0,0.0,0.0,0.0,0.0,0.0,0.0,1.75,1.7575,1.8772,1.7589,1.2511,0.1364,-0.0,-0.0,-0.0,-0.0,-0.0,-0.0,-0.0,-0.0,-0.0,0.0,0.0,0.0,0.0,-0.0,-0.0,-0.0,-0.0,-0.0,-0.0,-0.0,-0.0,-0.0,-0.0,-0.0,-0.0,-0.0,-0.0,-0.0,-0.0,-0.0,-0.0,-0.0,-0.0,-0.0,-0.0,-0.0,-0.0,0.0,0.0,-0.0,-0.0,-0.0,-0.0,-0.0,-0.0,-0.0,-0.0,-0.0,-0.0,-0.0,-0.0,-0.0,-0.0,-0.0,-0.0,-0.0,-0.0,-0.0,-0.0,-0.0,-0.0,-0.0,-0.0,-0.0,-0.0,-0.0,-0.0,-0.0,-0.0,-0.0,-0.0,0.0,-0.0,-0.0,-0.0,-0.0,-0.0,-0.0,-0.0,-0.0,-0.0,-0.0,-0.0,-0.0,-0.0,-0.0,-0.0,-0.0,-0.0,-0.0,0.0,0.0,0.0,0.0,0.0,0.0,0.0,0.0,0.0,0.0,0.0,0.0,0.0,0.0,0.0,1.6364,1.7943,1.8523,1.8656,1.0043,0.2795,0.0281,-0.0,-0.0,-0.0,-0.0,-0.0,-0.0,-0.0,-0.0,-0.0,-0.0,-0.0,-0.0,-0.0,-0.0,-0.0,-0.0,-0.0,-0.0,0.0,0.0,-0.0,-0.0,-0.0,-0.0,-0.0,-0.0,-0.0,-0.0,-0.0,-0.0,-0.0,-0.0,-0.0,-0.0,-0.0,-0.0,-0.0,-0.0,-0.0,-0.0,-0.0,-0.0,-0.0,-0.0,0.0,-0.0,-0.0,-0.0,-0.0,-0.0,-0.0,-0.0,-0.0,-0.0,-0.0,-0.0,-0.0,-0.0,-0.0,-0.0,-0.0,-0.0,-0.0,-0.0,-0.0,-0.0,-0.0,-0.0,-0.0,-0.0,-0.0,-0.0,-0.0,-0.0,-0.0,-0.0,-0.0,-0.0,-0.0,-0.0,-0.0,-0.0,-0.0,-0.0,-0.0,-0.0,-0.0,-0.0,-0.0,-0.0,0.0,0.0,0.0,0.0,0.0,0.0,0.0,0.0,0.0,0.0,0.0,1.6627,0.0,0.0,0.5295,0.8128,1.4273,1.656,1.0184,0.3981,-0.0,-0.0,-0.0,-0.0,-0.0,-0.0,-0.0,-0.0,-0.0,-0.0,-0.0,-0.0,-0.0,-0.0,-0.0,-0.0,-0.0,-0.0,-0.0,-0.0,-0.0,-0.0,-0.0,-0.0,-0.0,-0.0,-0.0,-0.0,-0.0,-0.0,-0.0,-0.0,-0.0,-0.0,-0.0,-0.0,-0.0,-0.0,-0.0,-0.0,-0.0,-0.0,-0.0,-0.0,-0.0,-0.0,-0.0,-0.0,-0.0,-0.0,-0.0,-0.0,-0.0,-0.0,-0.0,-0.0,-0.0,-0.0,-0.0,-0.0,-0.0,-0.0,-0.0,-0.0,-0.0,-0.0,-0.0,-0.0,-0.0,-0.0,-0.0,-0.0,-0.0,-0.0,-0.0,-0.0,-0.0,-0.0,-0.0,-0.0,-0.0,-0.0,-0.0,-0.0,-0.0,-0.0,-0.0,-0.0,-0.0,-0.0,-0.0,-0.0,0.0,0.0,0.0,0.0,0.0,0.0,0.0,0.0,1.5571,1.0227,1.192,1.4464,1.4526,0.6454,-0.0,-0.0,0.8609,1.1571,0.1436,-0.0,-0.0,-0.0,-0.0,-0.0,-0.0,-0.0,-0.0,-0.0,-0.0,-0.0,-0.0,-0.0,-0.0,-0.0,-0.0,-0.0,-0.0,-0.0,-0.0,-0.0,-0.0,-0.0,-0.0,-0.0,-0.0,-0.0,-0.0,-0.0,-0.0,-0.0,-0.0,-0.0,-0.0,-0.0,-0.0,-0.0,-0.0,-0.0,-0.0,-0.0,-0.0,-0.0,-0.0,-0.0,-0.0,-0.0,-0.0,-0.0,-0.0,-0.0,-0.0,-0.0,-0.0,-0.0,-0.0,-0.0,-0.0,-0.0,-0.0,-0.0,-0.0,-0.0,-0.0,-0.0,-0.0,-0.0,-0.0,-0.0,-0.0,-0.0,-0.0,-0.0,-0.0,-0.0,-0.0,-0.0,-0.0,-0.0,-0.0,-0.0,-0.0,-0.0,-0.0,-0.0,-0.0,-0.0,-0.0,-0.0,-0.0,-0.0,-0.0,-0.0,1.8233,1.8124,1.8179,1.8552,1.8674,1.8918,0.0,0.0,1.3351,1.1299,0.6121,0.2074,0.2107,0.0803,-0.0,-0.0,0.1135,0.1724,0.0293,-0.0,-0.0,-0.0,-0.0,-0.0,-0.0,-0.0,-0.0,-0.0,-0.0,-0.0,-0.0,-0.0,-0.0,-0.0,-0.0,-0.0,-0.0,-0.0,-0.0,-0.0,-0.0,-0.0,-0.0,-0.0,-0.0,-0.0,-0.0,-0.0,-0.0,-0.0,-0.0,-0.0,-0.0,-0.0,-0.0,-0.0,-0.0,-0.0,-0.0,-0.0,-0.0,-0.0,-0.0,-0.0,-0.0,-0.0,-0.0,-0.0,-0.0,-0.0,-0.0,-0.0,-0.0,-0.0,-0.0,-0.0,-0.0,-0.0,-0.0,-0.0,-0.0,-0.0,-0.0,-0.0,-0.0,-0.0,-0.0,-0.0,-0.0,-0.0,-0.0,-0.0,-0.0,-0.0,-0.0,-0.0,-0.0,-0.0,-0.0,-0.0,-0.0,-0.0,-0.0,-0.0,-0.0,-0.0,-0.0,-0.0,-0.0,-0.0,-0.0,-0.0,1.8952,0.0,0.0,0.0,1.961,2.0044,2.0211,1.9132,1.8002,1.7962,1.5518,1.191,0.7638,0.3034,-0.0,0.0,-0.0,-0.0,-0.0,-0.0,-0.0,-0.0,-0.0,-0.0,-0.0,-0.0,-0.0,-0.0,-0.0,-0.0,-0.0,-0.0,-0.0,-0.0,-0.0,-0.0,-0.0,-0.0,-0.0,-0.0,-0.0,-0.0,-0.0,-0.0,-0.0,-0.0,-0.0,-0.0,-0.0,-0.0,-0.0,-0.0,-0.0,-0.0,-0.0,-0.0,-0.0,-0.0,-0.0,-0.0,-0.0,-0.0,-0.0,-0.0,-0.0,-0.0,-0.0,-0.0,-0.0,-0.0,-0.0,-0.0,-0.0,-0.0,-0.0,-0.0,-0.0,-0.0,-0.0,-0.0,-0.0,-0.0,-0.0,-0.0,-0.0,-0.0,-0.0,-0.0,-0.0,-0.0,-0.0,-0.0,-0.0,-0.0,-0.0,-0.0,-0.0,-0.0,-0.0,-0.0,-0.0,-0.0,-0.0,-0.0,-0.0,-0.0,-0.0,-0.0,-0.0,-0.0,-0.0,-0.0,1.9217,0.0,0.0,1.9834,2.0438,2.1001,2.0888,2.1203,2.1808,2.2604,2.2841,2.1068,1.58,1.019,0.0,0.3475,0.3205,0.3224,0.3253,0.3248,0.2349,0.029,-0.0,-0.0,-0.0,-0.0,-0.0,-0.0,-0.0,-0.0,-0.0,-0.0,-0.0,-0.0,-0.0,-0.0,-0.0,-0.0,-0.0,-0.0,-0.0,-0.0,-0.0,-0.0,-0.0,-0.0,-0.0,-0.0,-0.0,-0.0,-0.0,-0.0,-0.0,-0.0,-0.0,-0.0,-0.0,-0.0,-0.0,-0.0,-0.0,-0.0,-0.0,-0.0,-0.0,-0.0,-0.0,-0.0,-0.0,-0.0,-0.0,-0.0,-0.0,-0.0,-0.0,-0.0,-0.0,-0.0,-0.0,-0.0,-0.0,-0.0,-0.0,-0.0,-0.0,-0.0,-0.0,-0.0,-0.0,-0.0,-0.0,-0.0,-0.0,-0.0,-0.0,-0.0,-0.0,-0.0,-0.0,-0.0,-0.0,-0.0,-0.0,-0.0,-0.0,-0.0,-0.0,-0.0,-0.0,-0.0,-0.0,-0.0,0.0,0.0,1.9786,2.0363,2.0967,2.153,2.1971,2.2201,2.2391,2.2696,2.2798,2.2934,2.2644,2.2624,1.9976,1.2478,1.138,1.1722,1.1144,1.1202,0.8501,0.0859,-0.0,-0.0,0.0,-0.0,-0.0,-0.0,-0.0,-0.0,-0.0,-0.0,-0.0,-0.0,-0.0,-0.0,-0.0,-0.0,-0.0,-0.0,-0.0,-0.0,-0.0,-0.0,-0.0,-0.0,-0.0,-0.0,-0.0,-0.0,-0.0,-0.0,-0.0,-0.0,-0.0,-0.0,-0.0,-0.0,-0.0,-0.0,-0.0,-0.0,-0.0,-0.0,-0.0,-0.0,-0.0,-0.0,-0.0,-0.0,-0.0,-0.0,-0.0,-0.0,-0.0,-0.0,-0.0,-0.0,-0.0,-0.0,-0.0,-0.0,-0.0,-0.0,-0.0,-0.0,-0.0,-0.0,-0.0,-0.0,-0.0,-0.0,-0.0,-0.0,-0.0,-0.0,-0.0,-0.0,-0.0,-0.0,-0.0,-0.0,-0.0,-0.0,-0.0,-0.0,-0.0,-0.0,-0.0,-0.0,-0.0,-0.0,0.0,0.0,2.0295,2.1089,2.1672,2.216,2.2601,2.2907,2.3083,2.3083,2.3083,2.3097,2.311,2.3042,2.218,1.9758,1.9623,1.976,1.9545,1.9584,1.8221,1.4814,0.9869,0.0,0.0,0.0,0.0,-0.0,-0.0,-0.0,-0.0,-0.0,-0.0,-0.0,-0.0,-0.0,-0.0,-0.0,-0.0,-0.0,-0.0,-0.0,-0.0,-0.0,-0.0,-0.0,-0.0,-0.0,-0.0,-0.0,-0.0,-0.0,-0.0,-0.0,-0.0,-0.0,-0.0,-0.0,-0.0,-0.0,-0.0,-0.0,-0.0,-0.0,-0.0,-0.0,-0.0,-0.0,-0.0,-0.0,-0.0,-0.0,-0.0,-0.0,-0.0,-0.0,-0.0,-0.0,-0.0,-0.0,-0.0,-0.0,-0.0,-0.0,-0.0,-0.0,-0.0,-0.0,-0.0,-0.0,-0.0,-0.0,-0.0,-0.0,-0.0,-0.0,-0.0,-0.0,-0.0,-0.0,-0.0,-0.0,-0.0,-0.0,-0.0,-0.0,-0.0,-0.0,-0.0,-0.0,-0.0,-0.0,0.0,2.0153,2.0702,2.1597,2.2167,2.2601,2.2995,2.3239,2.3347,2.3239,2.3097,2.2961,2.2873,2.2656,2.2642,2.2995,2.3259,2.3449,2.3605,2.338,2.3132,2.2422,1.7635,1.4416,0.0,0.0,0.0,0.0287,-0.0,-0.0,-0.0,-0.0,-0.0,-0.0,-0.0,-0.0,-0.0,-0.0,-0.0,-0.0,-0.0,-0.0,-0.0,-0.0,-0.0,-0.0,-0.0,-0.0,-0.0,-0.0,-0.0,-0.0,-0.0,-0.0,-0.0,-0.0,-0.0,-0.0,-0.0,-0.0,-0.0,-0.0,-0.0,-0.0,-0.0,-0.0,-0.0,-0.0,-0.0,-0.0,-0.0,-0.0,-0.0,-0.0,-0.0,-0.0,-0.0,-0.0,-0.0,-0.0,-0.0,-0.0,-0.0,-0.0,-0.0,-0.0,-0.0,-0.0,-0.0,-0.0,-0.0,-0.0,-0.0,-0.0,-0.0,-0.0,-0.0,-0.0,-0.0,-0.0,-0.0,-0.0,-0.0,-0.0,-0.0,-0.0,-0.0,-0.0,-0.0,-0.0,-0.0,-0.0,1.9922,2.0471,2.1034,2.1916,2.2466,2.2873,2.3151,2.3219,2.3205,2.3185,2.2832,2.252,0.0,0.0,2.2025,2.2466,2.2798,2.3063,2.3205,2.3361,2.3205,0.0,0.0,0.0,0.0,0.0,0.0,0.2276,0.0,0.0574,0.0583,0.0583,0.0291,-0.0,-0.0,-0.0,-0.0,-0.0,-0.0,-0.0,-0.0,-0.0,-0.0,-0.0,-0.0,-0.0,-0.0,-0.0,-0.0,-0.0,-0.0,-0.0,-0.0,-0.0,-0.0,-0.0,-0.0,-0.0,-0.0,-0.0,-0.0,-0.0,-0.0,-0.0,-0.0,-0.0,-0.0,-0.0,-0.0,-0.0,-0.0,-0.0,-0.0,-0.0,-0.0,-0.0,-0.0,-0.0,-0.0,-0.0,-0.0,-0.0,-0.0,-0.0,-0.0,-0.0,-0.0,-0.0,-0.0,-0.0,-0.0,-0.0,-0.0,-0.0,-0.0,-0.0,-0.0,-0.0,-0.0,-0.0,-0.0,-0.0,-0.0,-0.0,-0.0,-0.0,-0.0,-0.0,-0.0,-0.0,-0.0,-0.0,2.0404,2.1089,2.174,2.2303,2.2696,2.2995,2.3185,2.313,2.2995,2.2764,2.2466,2.2127,0.0,0.0,0.0,2.2181,2.2656,0.0,2.3361,2.3429,0.0,0.0,0.0,2.2357,2.1853,2.1813,0.0,0.0,1.1676,0.8592,0.8709,0.8717,0.6097,0.029,-0.0,-0.0,-0.0,-0.0,-0.0,-0.0,-0.0,-0.0,-0.0,-0.0,-0.0,-0.0,-0.0,-0.0,-0.0,-0.0,-0.0,-0.0,-0.0,-0.0,-0.0,-0.0,-0.0,-0.0,-0.0,-0.0,-0.0,-0.0,-0.0,-0.0,-0.0,-0.0,-0.0,-0.0,-0.0,-0.0,-0.0,-0.0,-0.0,-0.0,-0.0,-0.0,-0.0,-0.0,-0.0,-0.0,-0.0,-0.0,-0.0,-0.0,-0.0,-0.0,-0.0,-0.0,-0.0,-0.0,-0.0,-0.0,-0.0,-0.0,-0.0,-0.0,-0.0,-0.0,-0.0,-0.0,-0.0,-0.0,-0.0,-0.0,-0.0,-0.0,-0.0,-0.0,-0.0,-0.0,-0.0,-0.0,2.0878,2.1509,2.2059,2.2378,2.2696,2.2886,2.2764,2.273,2.2567,2.2079,2.1774,0.0,0.0,0.0,0.0,0.0,0.0,0.0,2.3381,2.3449,2.3327,0.0,2.2907,0.0,2.2432,2.2411,2.2547,0.0,1.8845,1.6638,1.6575,1.659,1.4544,1.0176,0.6969,0.523,0.4946,0.1741,-0.0,-0.0,-0.0,-0.0,-0.0,-0.0,-0.0,-0.0,-0.0,-0.0,-0.0,-0.0,-0.0,-0.0,-0.0,-0.0,-0.0,-0.0,-0.0,-0.0,-0.0,-0.0,-0.0,-0.0,-0.0,-0.0,-0.0,-0.0,-0.0,-0.0,-0.0,-0.0,-0.0,-0.0,-0.0,-0.0,-0.0,-0.0,-0.0,-0.0,-0.0,-0.0,-0.0,-0.0,-0.0,-0.0,-0.0,-0.0,-0.0,-0.0,-0.0,-0.0,-0.0,-0.0,-0.0,-0.0,-0.0,-0.0,-0.0,-0.0,-0.0,-0.0,-0.0,-0.0,-0.0,-0.0,-0.0,-0.0,-0.0,-0.0,-0.0,-0.0,-0.0,-0.0,2.1299,2.1774,2.2147,2.2303,2.2534,2.2608,2.2181,2.2127,2.1971,2.1265,0.0,0.0,2.0471,0.0,2.079,2.1509,0.0,2.2601,2.3347,2.3429,2.3381,2.3259,2.3259,2.3151,2.2886,2.2886,2.2961,2.3083,2.2737,2.2804,2.3072,2.3085,2.3085,2.3085,1.659,1.3071,1.3071,0.6389,0.2606,0.1439,0.1442,0.0863,-0.0,-0.0,-0.0,-0.0,-0.0,-0.0,-0.0,-0.0,-0.0,-0.0,-0.0,-0.0,-0.0,-0.0,-0.0,-0.0,-0.0,-0.0,-0.0,-0.0,-0.0,-0.0,-0.0,-0.0,-0.0,-0.0,-0.0,-0.0,-0.0,-0.0,-0.0,-0.0,-0.0,-0.0,-0.0,-0.0,-0.0,-0.0,-0.0,-0.0,-0.0,-0.0,-0.0,-0.0,-0.0,-0.0,-0.0,-0.0,-0.0,-0.0,-0.0,-0.0,-0.0,-0.0,-0.0,-0.0,-0.0,-0.0,-0.0,-0.0,-0.0,-0.0,-0.0,-0.0,-0.0,-0.0,-0.0,-0.0,-0.0,-0.0,2.1462,2.1862,2.2147,2.2303,2.2378,2.2323,2.2004,2.1564,0.0,0.0,0.0,2.0017,1.9841,0.0,0.0,2.1367,0.0,0.0,0.0,0.0,2.3293,0.0,0.0,0.0,0.0,0.0,0.0,0.0,0.0,2.3449,2.3259,2.3253,2.3273,2.3327,2.1895,2.131,2.131,1.9845,1.5964,0.9492,0.9492,0.6312,-0.0,-0.0,-0.0,-0.0,-0.0,-0.0,-0.0,-0.0,-0.0,-0.0,-0.0,-0.0,-0.0,-0.0,-0.0,-0.0,-0.0,-0.0,-0.0,-0.0,-0.0,-0.0,-0.0,-0.0,-0.0,-0.0,-0.0,-0.0,-0.0,-0.0,-0.0,-0.0,-0.0,-0.0,-0.0,-0.0,-0.0,-0.0,-0.0,-0.0,-0.0,-0.0,-0.0,-0.0,-0.0,-0.0,-0.0,-0.0,-0.0,-0.0,-0.0,-0.0,-0.0,-0.0,-0.0,-0.0,-0.0,-0.0,-0.0,-0.0,-0.0,-0.0,-0.0,-0.0,-0.0,-0.0,-0.0,-0.0,-0.0,-0.0,2.4578,2.4485,2.4261,2.2639,2.2093,2.1971,2.1421,0.0,0.0,0.0,0.0,1.959,1.9447,0.0,0.0,0.0,0.0,0.0,0.0,0.0,0.0,0.0,0.0,0.0,0.0,0.0,0.0,0.0,0.0,2.3503,2.3347,2.3259,2.3239,2.3253,2.3293,2.3307,2.3307,2.3341,2.1236,1.7659,1.7669,1.5624,1.1812,0.7768,0.6033,0.5734,0.5694,0.595,0.5927,0.5886,0.5859,0.5841,0.5524,0.5771,0.548,0.1361,-0.0,-0.0,-0.0,-0.0,-0.0,-0.0,-0.0,-0.0,-0.0,-0.0,-0.0,-0.0,-0.0,-0.0,-0.0,-0.0,-0.0,-0.0,-0.0,-0.0,-0.0,-0.0,-0.0,-0.0,-0.0,-0.0,-0.0,-0.0,-0.0,-0.0,-0.0,-0.0,-0.0,-0.0,-0.0,-0.0,-0.0,-0.0,-0.0,-0.0,-0.0,-0.0,-0.0,-0.0,-0.0,-0.0,-0.0,-0.0,-0.0,-0.0,-0.0,-0.0,-0.0,-0.0,-0.0,-0.0,2.8095,2.7731,2.7526,2.47,2.3829,2.3598,2.28,2.1946,0.0,0.0,1.9727,1.9217,1.9128,0.0,0.0,0.0,0.0,0.0,0.0,0.0,0.0,0.0,0.0,0.0,0.0,0.0,0.0,0.0,0.0,0.0,2.3395,2.3293,2.3219,2.3219,2.3219,2.3219,2.3219,2.3273,2.3293,2.3293,2.3341,2.3072,2.3079,1.6845,1.3874,1.3809,1.3703,1.3609,1.354,1.3434,1.3372,1.334,1.3201,1.3172,1.2617,0.677,0.3777,0.2162,0.2158,0.2424,0.2421,0.2425,0.1343,-0.0,-0.0,-0.0,-0.0,-0.0,-0.0,-0.0,-0.0,-0.0,-0.0,-0.0,-0.0,-0.0,-0.0,-0.0,-0.0,-0.0,-0.0,-0.0,-0.0,-0.0,-0.0,-0.0,-0.0,-0.0,-0.0,-0.0,-0.0,-0.0,-0.0,-0.0,-0.0,-0.0,-0.0,-0.0,-0.0,-0.0,-0.0,-0.0,-0.0,-0.0,-0.0,-0.0,-0.0,-0.0,-0.0,-0.0,-0.0,-0.0,3.0664,3.095,3.1098,3.0374,3.017,3.0046,2.8919,0.0,0.0,0.0,2.0527,1.8654,1.8782,1.9061,1.9501,0.0,0.0,0.0,0.0,0.0,0.0,0.0,0.0,0.0,0.0,0.0,0.0,0.0,0.0,0.0,2.3259,2.3219,2.3219,2.3219,2.3219,2.3219,2.3219,2.3219,2.3219,2.3219,2.3239,2.3273,2.3307,2.2297,2.1679,2.1692,2.1412,2.1297,2.1265,2.0998,2.0807,2.0966,2.1233,2.0786,2.0311,1.9985,1.5499,0.9666,0.9718,0.9703,0.9657,0.9991,0.5666,-0.0,-0.0,-0.0,-0.0,-0.0,-0.0,-0.0,-0.0,-0.0,-0.0,-0.0,-0.0,-0.0,-0.0,-0.0,-0.0,-0.0,-0.0,-0.0,-0.0,-0.0,-0.0,-0.0,-0.0,-0.0,-0.0,-0.0,-0.0,-0.0,-0.0,-0.0,-0.0,-0.0,-0.0,-0.0,-0.0,-0.0,-0.0,-0.0,-0.0,-0.0,-0.0,-0.0,-0.0,-0.0,-0.0,-0.0,-0.0,-0.0,3.4042,3.3974,3.3719,3.1596,3.0785,3.0334,2.9562,0.0,0.0,2.3496,2.1976,2.0591,1.8843,1.8864,1.9237,1.9712,1.9963,2.0404,0.0,0.0,0.0,0.0,0.0,0.0,0.0,0.0,0.0,0.0,0.0,0.0,2.3239,2.3219,2.3219,2.3219,2.3219,2.3219,2.3219,2.3219,2.3219,2.3219,2.3219,2.3185,2.313,2.3063,2.2954,2.2798,2.2669,2.2288,2.2201,2.1987,2.2194,2.2215,2.2025,2.1937,2.1896,2.1605,1.9898,1.7402,1.7402,1.7413,1.744,1.75,1.5616,1.2586,0.814,0.352,-0.0,-0.0,-0.0,-0.0,-0.0,-0.0,-0.0,-0.0,-0.0,-0.0,-0.0,-0.0,-0.0,-0.0,-0.0,-0.0,-0.0,-0.0,-0.0,-0.0,-0.0,-0.0,-0.0,-0.0,-0.0,-0.0,-0.0,-0.0,-0.0,-0.0,-0.0,-0.0,-0.0,-0.0,-0.0,-0.0,-0.0,-0.0,-0.0,-0.0,-0.0,-0.0,-0.0,-0.0,-0.0,-0.0,3.6843,3.7188,3.6869,3.4538,3.3445,3.2917,0.0,0.0,2.8896,2.5919,2.4658,2.3095,2.0199,2.0008,1.9854,1.9427,1.9434,1.9854,2.0594,0.0,0.0,0.0,0.0,0.0,0.0,0.0,0.0,0.0,0.0,0.0,2.3219,2.3185,2.3185,2.3219,2.3219,2.3219,2.3219,2.3185,2.3151,2.3151,2.3117,2.3042,2.294,2.2886,2.2764,2.2554,2.25,2.2411,2.2269,2.216,2.2147,2.2181,2.2025,2.1991,2.2025,2.1625,2.1876,2.1937,2.1916,2.195,2.2018,2.2106,2.2181,2.135,1.5952,1.0706,0.6042,0.3834,0.3288,0.2752,0.0556,-0.0,-0.0,-0.0,-0.0,-0.0,-0.0,-0.0,-0.0,-0.0,-0.0,-0.0,-0.0,-0.0,-0.0,-0.0,-0.0,-0.0,-0.0,-0.0,-0.0,-0.0,-0.0,-0.0,-0.0,-0.0,-0.0,-0.0,-0.0,-0.0,-0.0,-0.0,-0.0,-0.0,-0.0,-0.0,-0.0,-0.0,-0.0,-0.0,-0.0,-0.0,3.8716,4.0254,4.0829,4.0575,4.0241,3.9495,0.0,3.5484,3.2715,3.1468,2.8847,2.5787,2.2923,2.2578,2.1992,1.9205,1.9149,1.9691,2.0438,0.0,0.0,0.0,0.0,0.0,0.0,0.0,0.0,0.0,0.0,0.0,2.3219,2.3083,2.3083,2.3219,2.3219,2.3219,2.3219,2.3083,2.3008,2.3008,2.2852,2.2784,2.2784,2.2622,2.2554,2.2554,2.2411,2.2249,2.2113,2.2113,2.2025,2.1903,2.2059,2.2025,2.1903,2.2059,2.2004,2.1903,2.2059,2.2004,2.1937,2.2235,2.2235,2.2113,2.2106,2.19,2.0539,1.3168,1.0946,0.9347,0.1964,-0.0,-0.0,-0.0,-0.0,-0.0,-0.0,-0.0,-0.0,-0.0,-0.0,-0.0,-0.0,-0.0,-0.0,-0.0,-0.0,-0.0,-0.0,-0.0,-0.0,-0.0,-0.0,-0.0,-0.0,-0.0,-0.0,-0.0,-0.0,-0.0,-0.0,-0.0,-0.0,-0.0,-0.0,-0.0,-0.0,-0.0,-0.0,-0.0,-0.0,-0.0,3.3702,3.5164,3.6074,3.7659,3.7996,3.7662,3.6687,3.5646,3.3917,3.1058,2.9728,2.7748,2.2909,2.2268,2.1783,1.9442,1.9183,1.9468,0.0,0.0,0.0,0.0,0.0,0.0,0.0,0.0,0.0,0.0,0.0,0.0,2.3083,2.3029,2.3083,2.3219,2.313,2.3083,2.3083,2.292,2.2852,2.2852,2.2798,2.273,2.2622,2.2574,2.2445,2.2255,2.2201,2.2093,2.195,2.195,2.1991,2.2038,2.2093,2.2079,2.2038,2.2093,2.2079,2.2038,2.2093,2.2147,2.2215,2.2303,2.2303,2.2249,2.2147,2.216,2.1652,1.9396,1.895,1.8531,1.6013,0.7584,-0.0,-0.0,-0.0,-0.0,-0.0,-0.0,-0.0,-0.0,-0.0,-0.0,-0.0,-0.0,-0.0,-0.0,-0.0,-0.0,-0.0,-0.0,-0.0,-0.0,-0.0,-0.0,-0.0,-0.0,-0.0,-0.0,-0.0,-0.0,-0.0,-0.0,-0.0,-0.0,-0.0,-0.0,-0.0,-0.0,-0.0,-0.0,-0.0,-0.0,0.0,3.1115,3.2133,3.4693,3.5271,3.521,3.5577,3.5551,3.4808,3.2124,3.1696,3.0376,2.5818,2.5163,2.4458,2.2237,2.1125,2.0731,2.1225,0.0,0.0,0.0,0.0,0.0,0.0,0.0,0.0,0.0,0.0,0.0,2.292,2.2873,2.2907,2.3049,2.3029,2.2974,2.292,2.2764,2.2696,2.2696,2.2642,2.2567,2.2466,2.2466,2.2344,2.2113,2.2113,2.1991,0.0,2.1916,2.1991,2.2038,2.2147,2.2201,2.2201,2.2201,2.2235,2.2269,2.2269,2.2344,2.2425,2.2425,2.2344,2.2215,2.2004,2.2038,2.2181,2.2289,2.2445,2.2588,2.2335,1.5543,0.792,0.5096,0.1999,-0.0,-0.0,-0.0,-0.0,-0.0,-0.0,-0.0,-0.0,-0.0,-0.0,-0.0,-0.0,-0.0,-0.0,-0.0,-0.0,-0.0,-0.0,-0.0,-0.0,-0.0,-0.0,-0.0,-0.0,-0.0,-0.0,-0.0,-0.0,-0.0,-0.0,-0.0,-0.0,-0.0,-0.0,-0.0,-0.0,-0.0,0.0,2.754,2.8754,3.147,3.1985,3.2349,3.4497,3.4636,0.0,3.395,3.3844,3.2995,3.0279,2.9851,2.9046,2.6126,2.3807,2.258,0.0,0.0,0.0,0.0,0.0,0.0,0.0,0.0,0.0,0.0,0.0,0.0,2.2744,2.2622,2.2608,2.273,2.2873,2.2886,2.2744,2.2608,2.252,2.252,2.2391,2.2323,2.2337,2.2337,2.2249,2.2093,2.2093,2.1937,2.1672,2.1971,2.2004,2.1916,2.2235,2.2357,2.2357,2.2357,2.2445,2.2554,2.2534,2.2534,2.2534,2.2534,2.2344,2.2059,2.1774,2.1882,2.2147,2.2269,2.2323,2.2411,2.2456,2.2543,2.0815,1.3962,0.6898,0.1449,0.0865,0.029,-0.0,-0.0,-0.0,-0.0,-0.0,-0.0,-0.0,-0.0,-0.0,-0.0,-0.0,-0.0,-0.0,-0.0,-0.0,-0.0,-0.0,-0.0,-0.0,-0.0,-0.0,-0.0,-0.0,-0.0,-0.0,-0.0,-0.0,-0.0,-0.0,-0.0,-0.0,-0.0,-0.0,-0.0,1.8692,0.0,2.349,2.6203,2.6911,2.7183,0.0,2.7775,2.8421,0.0,0.0,2.9624,2.7059,2.6755,2.538,2.0941,1.992,1.9775,0.0,0.0,0.0,0.0,0.0,0.0,0.0,0.0,0.0,0.0,0.0,2.2554,2.2445,2.2411,2.2357,2.2269,2.2303,2.2357,2.2445,2.2289,2.2215,2.2215,2.2181,2.2235,2.2337,2.2337,2.2201,2.1937,2.1937,2.1774,2.1509,2.1815,2.1916,2.1916,2.2344,2.25,2.25,2.25,2.252,2.2534,2.2432,2.2391,2.2391,2.2391,2.2269,2.2079,2.1882,2.1971,2.2093,2.2004,2.216,2.2357,2.2445,2.2493,2.2009,2.0514,1.8906,1.611,1.0123,0.4063,-0.0,-0.0,-0.0,-0.0,-0.0,-0.0,-0.0,-0.0,-0.0,-0.0,-0.0,-0.0,-0.0,-0.0,-0.0,-0.0,-0.0,-0.0,-0.0,-0.0,-0.0,-0.0,-0.0,-0.0,-0.0,-0.0,-0.0,-0.0,-0.0,-0.0,-0.0,-0.0,-0.0,-0.0,1.6279,1.7538,1.96,2.2442,2.3203,2.3775,2.5009,0.0,0.0,0.0,0.0,2.6928,2.5726,0.0,0.0,2.2413,2.1043,0.0,0.0,0.0,0.0,0.0,0.0,0.0,0.0,0.0,0.0,0.0,0.0,2.2357,2.2147,2.2127,2.2093,2.2004,2.2004,2.2038,2.2127,2.2038,2.2004,2.2004,2.2004,2.2059,2.2127,2.2127,2.2004,2.1781,2.1781,2.1686,2.1564,2.1794,2.1971,2.2127,2.2432,2.2588,2.2642,2.25,2.25,2.252,2.2235,2.2127,2.2113,2.2059,2.2025,2.1971,2.1828,2.1937,2.2079,2.1916,2.2113,2.2337,2.2337,2.2411,2.2513,2.2676,2.2873,2.218,1.792,1.3634,0.9593,0.6097,0.2327,-0.0,-0.0,-0.0,-0.0,-0.0,-0.0,-0.0,-0.0,-0.0,-0.0,-0.0,-0.0,-0.0,-0.0,-0.0,-0.0,-0.0,-0.0,-0.0,-0.0,-0.0,-0.0,-0.0,-0.0,-0.0,-0.0,-0.0,-0.0,-0.0,-0.0,-0.0,1.6062,1.6408,1.732,1.9529,2.0266,2.1018,2.3268,0.0,0.0,0.0,0.0,0.0,0.0,0.0,0.0,0.0,0.0,0.0,0.0,0.0,0.0,0.0,0.0,0.0,0.0,0.0,0.0,0.0,0.0,2.2147,2.1862,2.1848,2.1848,2.1815,2.1815,2.1815,2.1774,2.1828,2.1848,2.1848,2.1848,2.1862,2.1882,2.1882,2.1815,2.1672,2.1672,0.0,2.1652,2.1815,2.2038,2.2289,2.2479,2.2642,2.271,2.2445,2.2411,2.2466,2.2025,2.1882,2.1862,2.174,2.1781,2.1848,2.1706,2.1882,2.2079,2.1916,2.2113,2.2337,2.2378,2.2466,2.2574,2.2608,2.2852,2.3103,2.3117,2.3253,2.1298,1.4523,0.8127,0.2904,0.0291,-0.0,-0.0,-0.0,-0.0,-0.0,-0.0,-0.0,-0.0,-0.0,-0.0,-0.0,-0.0,-0.0,-0.0,-0.0,-0.0,-0.0,-0.0,-0.0,-0.0,-0.0,-0.0,-0.0,-0.0,-0.0,-0.0,-0.0,-0.0,-0.0,1.6164,1.6415,1.6524,1.701,1.7087,1.7398,1.7807,1.7909,0.0,0.0,0.0,0.0,0.0,0.0,0.0,0.0,0.0,0.0,0.0,0.0,0.0,0.0,0.0,0.0,0.0,0.0,0.0,0.0,0.0,2.1882,2.1706,2.1706,2.1638,2.1509,2.1509,2.1441,2.1319,2.1564,2.1706,2.1706,2.1706,2.176,2.1882,2.1882,2.1815,2.1672,0.0,2.1597,2.1496,2.1774,2.1916,2.1991,2.2398,2.2574,2.2567,2.2391,2.2357,2.2323,2.1991,2.1882,2.1882,2.1862,2.1862,2.1848,2.1706,2.1882,2.2079,2.1916,2.2113,2.2378,2.2479,2.2534,2.2622,2.2886,2.2974,2.3063,2.3171,2.3273,2.2736,2.1549,2.0394,1.5435,0.2325,-0.0,-0.0,-0.0,-0.0,-0.0,-0.0,-0.0,-0.0,-0.0,-0.0,-0.0,-0.0,-0.0,-0.0,-0.0,-0.0,-0.0,-0.0,-0.0,-0.0,-0.0,-0.0,-0.0,-0.0,-0.0,-0.0,-0.0,-0.0,-0.0,1.5961,1.6232,1.6408,1.6422,1.6653,1.6863,1.6788,1.6822,0.0,0.0,0.0,0.0,0.0,0.0,0.0,0.0,0.0,0.0,0.0,0.0,0.0,0.0,0.0,0.0,0.0,0.0,0.0,0.0,0.0,0.0,2.155,2.155,2.1509,2.1441,2.1353,2.1279,2.1211,2.1285,2.1299,2.1319,2.1387,2.1462,2.153,2.1597,2.1652,2.1672,0.0,2.1597,2.1686,2.1828,2.1937,2.2038,2.2411,2.2554,2.252,2.2303,2.2059,2.1828,2.1686,2.1638,2.1638,2.1638,2.1638,2.1652,2.1672,2.1815,2.1991,2.2004,2.216,2.2357,2.2425,2.25,2.2588,2.273,2.2886,2.3029,2.3097,2.3185,2.3253,2.3253,2.3307,2.0984,1.3646,0.8997,0.4939,0.0582,-0.0,-0.0,-0.0,-0.0,-0.0,-0.0,-0.0,-0.0,-0.0,-0.0,-0.0,-0.0,-0.0,-0.0,-0.0,-0.0,-0.0,-0.0,-0.0,-0.0,-0.0,-0.0,-0.0,-0.0,-0.0,-0.0,1.5818,1.6076,1.63,1.6476,1.6781,1.7032,1.7032,0.0,0.0,0.0,0.0,0.0,0.0,0.0,0.0,0.0,0.0,0.0,0.0,0.0,0.0,0.0,0.0,0.0,0.0,0.0,0.0,0.0,0.0,0.0,2.1353,2.1333,2.1333,2.1333,2.1231,2.1143,2.1109,2.1001,2.0967,2.1001,2.1109,2.1177,2.1211,2.1367,2.153,2.1672,2.155,2.1618,2.1828,2.1862,2.1937,2.2038,2.2344,2.2411,2.2323,2.2093,2.1774,2.1441,2.1441,2.1441,2.1441,2.1441,2.1441,2.1455,2.1584,2.1726,2.1862,2.2025,2.216,2.2303,2.2411,2.2554,2.2676,2.2696,2.2886,2.3063,2.3063,2.3151,2.3219,2.3219,2.3253,2.3293,2.3307,1.8315,1.2195,0.6389,0.3776,0.2616,0.2621,0.1166,-0.0,-0.0,-0.0,-0.0,-0.0,-0.0,-0.0,-0.0,-0.0,-0.0,-0.0,-0.0,-0.0,-0.0,-0.0,-0.0,-0.0,-0.0,-0.0,-0.0,-0.0,-0.0,1.5947,1.6083,1.6164,1.6449,1.6544,0.0,1.7087,1.7073,0.0,0.0,0.0,0.0,0.0,0.0,0.0,0.0,0.0,0.0,0.0,0.0,0.0,0.0,0.0,0.0,0.0,0.0,0.0,0.0,0.0,0.0,2.1034,2.1034,2.1034,2.1034,2.1021,2.0946,2.0811,2.079,2.0858,2.1001,2.1021,2.1089,2.1211,2.1367,2.153,2.1672,2.1652,2.1672,2.1692,2.1828,2.1815,2.1726,2.2025,2.1971,2.1726,2.1706,2.1597,2.1441,2.1441,2.1441,2.1441,2.1441,2.1441,2.1441,2.1455,2.1564,2.1726,2.1862,2.2004,2.2215,2.2642,2.2873,2.3008,2.3137,2.3185,2.3205,2.3205,2.3219,2.3219,2.3219,2.3219,2.3239,2.3293,2.2717,2.214,2.1612,1.5413,1.0734,1.0744,0.4357,-0.0,-0.0,-0.0,-0.0,-0.0,-0.0,-0.0,-0.0,-0.0,-0.0,-0.0,-0.0,-0.0,-0.0,-0.0,-0.0,-0.0,-0.0,-0.0,-0.0,-0.0,-0.0,1.571,1.5872,1.6035,1.6422,0.0,0.0,0.0,0.0,0.0,0.0,0.0,0.0,0.0,0.0,0.0,0.0,0.0,0.0,0.0,0.0,0.0,0.0,0.0,0.0,0.0,0.0,0.0,0.0,0.0,0.0,2.1001,2.1001,2.1001,2.1001,2.0912,2.0824,2.077,2.0682,2.0661,2.0716,2.0804,2.0933,2.1089,2.1231,2.1441,2.1672,2.1564,2.1584,2.1672,2.1726,2.1672,2.155,2.176,2.1774,2.1672,2.1672,2.1564,2.1441,2.1441,2.1441,2.1441,2.1441,2.1441,2.1441,2.1441,2.155,2.1706,2.1848,2.2127,2.2432,2.2588,2.2744,2.2907,2.3063,2.3151,2.3219,2.3219,2.3219,2.3219,2.3219,2.3219,2.3219,2.3253,2.3253,2.3273,2.3327,2.0677,1.8914,1.8942,1.6305,1.076,0.1162,-0.0,-0.0,-0.0,-0.0,-0.0,-0.0,-0.0,-0.0,-0.0,-0.0,-0.0,-0.0,-0.0,-0.0,-0.0,-0.0,-0.0,-0.0,-0.0,-0.0,1.5581,1.5744,1.5947,0.0,0.0,0.0,0.0,0.0,0.0,0.0,0.0,0.0,0.0,0.0,0.0,0.0,0.0,0.0,0.0,0.0,0.0,0.0,0.0,0.0,0.0,0.0,0.0,0.0,0.0,0.0,2.0858,2.0858,2.0858,2.0858,2.0756,2.0702,2.0702,2.0594,2.0539,2.0539,2.0648,2.0804,2.1001,2.1197,2.1421,2.1672,2.1564,2.1564,2.1672,2.1672,2.1584,2.1455,2.1564,2.1564,2.153,2.1584,2.153,2.1441,2.1441,2.1441,2.1441,2.1441,2.1441,2.1441,2.1441,2.1509,2.1652,2.1882,2.2181,2.2466,2.2642,2.2818,2.294,2.3049,2.3151,2.3219,2.3219,2.3219,2.3219,2.3219,2.3219,2.3219,2.3219,2.3219,2.3239,2.3273,2.3273,2.3293,2.3341,2.3072,1.7179,0.1744,-0.0,-0.0,-0.0,-0.0,-0.0,-0.0,-0.0,-0.0,-0.0,-0.0,-0.0,-0.0,-0.0,-0.0,-0.0,-0.0,-0.0,-0.0,-0.0,-0.0,1.5635,1.5737,0.0,0.0,0.0,0.0,0.0,0.0,0.0,0.0,0.0,0.0,0.0,0.0,0.0,0.0,0.0,0.0,0.0,0.0,0.0,0.0,0.0,0.0,0.0,0.0,0.0,0.0,0.0,2.0539,2.0539,2.0539,2.0539,2.0539,2.0539,2.0539,2.0539,2.0539,2.0539,2.0539,2.0539,2.0702,2.1001,2.1299,2.1509,2.1672,2.1672,2.1672,2.1672,2.1672,2.1584,2.1441,2.1441,2.1333,2.1231,2.1387,2.1441,2.1441,2.1441,2.1441,2.1441,2.1441,2.1441,2.1441,2.1441,2.1441,2.153,2.1984,2.2113,2.2255,2.2852,2.3117,2.3219,2.3219,2.3219,2.3219,2.3219,2.3219,2.3219,2.3219,2.3219,2.3219,2.3219,2.3219,2.3219,2.3219,2.3219,2.3219,2.3219,2.3273,1.7153,0.1743,-0.0,-0.0,-0.0,-0.0,-0.0,-0.0,-0.0,-0.0,-0.0,-0.0,-0.0,-0.0,-0.0,-0.0,-0.0,-0.0,-0.0,-0.0,-0.0,-0.0,1.535,0.0,0.0,0.0,0.0,0.0,0.0,0.0,0.0,0.0,0.0,0.0,0.0,0.0,0.0,0.0,0.0,0.0,0.0,0.0,0.0,0.0,0.0,0.0,0.0,0.0,0.0,0.0,0.0,2.0539,2.0539,2.0539,2.0539,2.0539,2.0539,2.0539,2.0539,2.0539,2.0539,2.0539,2.0648,2.0756,2.0845,2.0933,2.1055,2.1197,2.1197,2.1197,2.1197,2.1197,2.1177,2.1123,2.1123,2.1109,2.1068,2.1109,2.1197,2.1279,2.1279,2.1353,2.1441,2.1441,2.1441,2.1441,2.1441,2.1509,2.1652,2.1882,2.2113,2.2357,2.2744,2.2961,2.3097,2.3205,2.3219,2.3219,2.3219,2.3219,2.3219,2.3219,2.3219,2.3219,2.3219,2.3219,2.3219,2.3219,2.3219,2.3219,2.3219,2.3307,1.9226,0.9286,0.3202,-0.0,-0.0,-0.0,-0.0,-0.0,-0.0,-0.0,-0.0,-0.0,-0.0,-0.0,-0.0,-0.0,-0.0,-0.0,-0.0,-0.0,-0.0,-0.0,0.0,0.0,0.0,0.0,0.0,0.0,0.0,0.0,0.0,0.0,0.0,0.0,0.0,0.0,0.0,0.0,0.0,0.0,0.0,0.0,0.0,0.0,0.0,0.0,0.0,0.0,0.0,0.0,2.0539,2.0539,2.0539,2.0539,2.0539,2.0539,2.0539,2.0539,2.0539,2.0539,2.0539,2.0539,2.0627,2.0682,2.0682,2.0804,2.0912,2.1001,2.1001,2.1001,2.1001,2.1001,2.0967,2.0912,2.098,2.0967,2.0912,2.098,2.1055,2.1143,2.1197,2.1265,2.1353,2.1421,2.1441,2.1441,2.1441,2.155,2.1726,2.1991,2.2235,2.25,2.2866,2.3029,2.3117,2.3205,2.3219,2.3219,2.3219,2.3219,2.3205,2.3151,2.3185,2.3205,2.3151,2.3185,2.3219,2.3219,2.3219,2.3219,2.3219,2.3327,2.0701,1.3928,0.5237,-0.0,-0.0,-0.0,-0.0,-0.0,-0.0,-0.0,-0.0,-0.0,-0.0,-0.0,-0.0,-0.0,-0.0,-0.0,-0.0,-0.0,-0.0,-0.0,0.0,0.0,0.0,0.0,0.0,0.0,0.0,0.0,0.0,0.0,0.0,0.0,0.0,0.0,0.0,0.0,0.0,0.0,0.0,0.0,0.0,0.0,0.0,0.0,0.0,0.0,0.0,2.0526,2.0526,2.0526,2.0526,2.0505,2.0505,2.0539,2.0526,2.0526,2.0539,2.0539,2.0539,2.0539,2.0539,2.0539,2.056,2.0824,2.0967,2.0967,2.0967,2.0967,2.0967,2.0967,2.0878,2.077,2.0912,2.0878,2.077,2.0933,2.098,2.1021,2.1157,2.1231,2.1245,2.1387,2.1441,2.1441,2.1441,2.1564,2.1774,2.2181,2.2411,2.2622,2.3049,2.3171,2.3171,2.3185,2.3205,2.3219,2.3205,2.3205,2.3171,2.3008,2.3097,2.313,2.3008,2.3117,2.3205,2.3219,2.3219,2.3219,2.3219,2.3327,2.1279,1.594,0.7558,0.1457,-0.0,-0.0,-0.0,-0.0,-0.0,-0.0,-0.0,-0.0,-0.0,-0.0,-0.0,-0.0,-0.0,-0.0,-0.0,-0.0,-0.0,-0.0,0.0,0.0,0.0,0.0,0.0,0.0,0.0,0.0,0.0,0.0,0.0,0.0,0.0,0.0,0.0,0.0,0.0,0.0,0.0,0.0,0.0,0.0,0.0,0.0,0.0,0.0,2.0485,2.0383,2.0383,2.0383,2.0383,2.0261,2.0295,2.0539,2.0438,2.0438,2.0539,2.0539,2.0539,2.0539,2.0539,2.0539,2.0539,2.0614,2.0648,2.0648,2.0648,2.0648,2.0648,2.0648,2.0614,2.0594,2.0627,2.0614,2.0614,2.077,2.0892,2.1021,2.1157,2.1285,2.1408,2.1421,2.1441,2.1441,2.1441,2.1618,2.1862,2.195,2.2181,2.2432,2.2642,2.2696,2.273,2.2852,2.3049,2.3185,2.3083,2.3063,2.3008,2.2852,2.2852,2.2873,2.2832,2.2961,2.3097,2.3205,2.3219,2.3219,2.3219,2.3293,2.1248,1.594,1.7163,1.3392,0.1162,-0.0,-0.0,-0.0,-0.0,-0.0,-0.0,-0.0,-0.0,-0.0,-0.0,-0.0,-0.0,-0.0,-0.0,-0.0,-0.0,-0.0,0.0,0.0,0.0,0.0,0.0,0.0,0.0,0.0,0.0,0.0,0.0,0.0,0.0,0.0,0.0,0.0,0.0,0.0,0.0,0.0,0.0,0.0,0.0,0.0,0.0,2.0329,2.0295,2.0227,2.0227,2.0227,2.0227,2.0139,2.0173,2.0329,2.0261,2.0261,2.0329,2.0397,2.0397,2.0329,2.0471,2.0539,2.0539,2.0539,2.0539,2.0539,2.0539,2.0539,2.0539,2.0539,2.0539,2.0539,2.0539,2.0539,2.056,2.0627,2.0716,2.0804,2.1034,2.1157,2.1245,2.1387,2.1441,2.1455,2.153,2.1706,2.1916,2.2059,2.2269,2.2479,2.2622,2.2662,2.2676,2.2764,2.2961,2.3083,2.294,2.2961,2.294,2.271,2.273,2.2764,2.2676,2.2852,2.3063,2.3205,2.3219,2.3219,2.3219,2.3273,2.2107,1.9435,2.1562,1.9833,1.1902,0.7837,0.552,0.5528,0.5528,0.5528,0.5528,0.5528,0.3784,-0.0,-0.0,-0.0,-0.0,-0.0,-0.0,-0.0,-0.0,-0.0,0.0,0.0,0.0,0.0,0.0,0.0,0.0,0.0,0.0,0.0,0.0,0.0,0.0,0.0,0.0,0.0,0.0,0.0,0.0,0.0,0.0,0.0,0.0,0.0,2.0119,2.0098,2.0085,2.0064,2.0064,2.0051,2.0031,2.0031,2.0031,2.0064,2.0064,2.0064,2.0098,2.0227,2.0227,2.0098,2.0349,2.0485,2.0539,2.0526,2.0526,2.0539,2.0539,2.0539,2.0539,2.0539,2.0539,2.0539,2.0539,2.0539,2.0539,2.0573,2.0594,2.0661,2.0946,2.1055,2.1123,2.1353,2.1441,2.1455,2.1597,2.174,2.1937,2.2181,2.2378,2.2554,2.2676,2.271,2.271,2.271,2.2818,2.2907,2.2764,2.2832,2.2852,2.2567,2.2622,2.2676,2.2574,2.2764,2.2974,2.3117,2.3171,2.3185,2.3185,2.3253,2.3273,2.3219,2.3307,2.3341,2.3307,1.7443,1.3642,1.3654,1.3654,1.3654,1.3654,1.3642,1.046,0.4082,0.2618,0.2036,0.2041,0.0583,-0.0,-0.0,-0.0,-0.0,0.0,0.0,0.0,0.0,0.0,0.0,0.0,0.0,0.0,0.0,0.0,0.0,0.0,0.0,0.0,0.0,0.0,0.0,0.0,0.0,0.0,0.0,0.0,2.0119,2.0098,2.0098,2.0051,1.9908,1.9908,1.9854,1.9732,1.9712,1.9786,1.9908,1.9908,1.9963,2.0098,2.0119,2.0119,2.0098,2.0139,2.0295,2.0539,2.0417,2.0417,2.0539,2.0539,2.0539,2.0539,2.0539,2.0539,2.0539,2.0539,2.0539,2.056,2.0682,2.0824,2.0967,2.1123,2.1265,2.1387,2.1421,2.1441,2.1441,2.1455,2.1672,2.1882,2.1937,2.2147,2.2378,2.2391,2.2391,2.2391,2.2391,2.252,2.2608,2.2588,2.2608,2.2567,2.2391,2.2391,2.2432,2.2534,2.2588,2.2662,2.2818,2.2961,2.3042,2.3042,2.3151,2.3219,2.3219,2.3239,2.3253,2.3307,2.2127,2.1562,2.1612,2.1612,2.1612,2.1612,2.1562,2.1261,2.014,1.3373,1.0158,1.0158,0.3194,-0.0,-0.0,-0.0,-0.0,0.0,0.0,0.0,0.0,0.0,0.0,0.0,0.0,0.0,0.0,0.0,0.0,0.0,0.0,0.0,0.0,0.0,0.0,0.0,0.0,0.0,0.0,1.9976,1.9908,1.9746,1.9732,1.9657,1.9501,1.9501,1.9468,1.9413,1.94,1.9468,1.9624,1.9624,1.9698,1.9854,1.9929,2.001,2.0098,2.001,2.0085,2.0295,2.0227,2.0329,2.0539,2.0539,2.0539,2.0539,2.0539,2.0539,2.0539,2.0539,2.0539,2.0539,2.0614,2.0736,2.0892,2.1034,2.1197,2.1333,2.1408,2.1441,2.1455,2.155,2.1726,2.1903,2.1991,2.2113,2.2235,2.2323,2.2269,2.2235,2.2323,2.2391,2.2432,2.2432,2.25,2.252,2.2378,2.2337,2.2391,2.2534,2.2554,2.2608,2.2764,2.2907,2.3008,2.3008,2.313,2.3219,2.3219,2.3219,2.3239,2.3253,2.3253,2.3273,2.3293,2.3293,2.3293,2.3293,2.3273,2.3273,2.3293,1.9775,1.8036,1.8063,1.4544,0.8427,-0.0,-0.0,-0.0,0.0,0.0,0.0,0.0,0.0,0.0,0.0,0.0,0.0,0.0,0.0,0.0,0.0,0.0,0.0,0.0,0.0,0.0,0.0,0.0,0.0,0.0,1.9698,1.961,1.9393,1.9379,1.9325,1.9203,1.9203,1.9183,1.9149,1.9183,1.9237,1.9325,1.9359,1.9434,1.9535,1.9644,1.98,1.9997,1.9834,1.9875,2.0098,2.0064,2.0187,2.0438,2.0438,2.0451,2.0485,2.0485,2.0505,2.0539,2.0539,2.0539,2.0539,2.058,2.0702,2.0858,2.1001,2.1143,2.1285,2.1408,2.1441,2.1475,2.1618,2.1774,2.1916,2.2072,2.2147,2.2201,2.2303,2.2249,2.2201,2.2303,2.2337,2.2337,2.2337,2.2432,2.2466,2.2357,2.2337,2.2378,2.2479,2.25,2.2554,2.2696,2.2852,2.2961,2.3008,2.313,2.3219,2.3219,2.3219,2.3219,2.3219,2.3219,2.3219,2.3219,2.3219,2.3219,2.3219,2.3219,2.3219,2.3219,2.3253,2.3307,2.3341,2.3072,1.7179,0.5807,0.1745,-0.0,0.0,0.0,0.0,0.0,0.0,0.0,0.0,0.0,0.0,0.0,0.0,0.0,0.0,0.0,0.0,0.0,0.0,0.0,0.0,0.0,0.0,1.9237,1.9237,1.9237,1.9217,1.9217,1.9203,1.9203,1.9203,1.9149,1.9006,1.9128,1.9149,1.9027,1.9149,1.9217,1.9217,1.9237,1.9379,1.9678,1.9522,1.9678,2.0098,1.9942,1.9976,2.0119,2.0119,2.0207,2.0349,2.0349,2.0417,2.0539,2.0539,2.0539,2.056,2.0702,2.0858,2.1001,2.1157,2.1299,2.1421,2.1441,2.1441,2.1475,2.1618,2.1774,2.1916,2.2072,2.2215,2.2323,2.2337,2.2337,2.2323,2.2337,2.2337,2.2337,2.2337,2.2337,2.2357,2.2337,2.2337,2.2337,2.2357,2.2357,2.2391,2.2534,2.2696,2.2852,2.2995,2.313,2.3219,2.3219,2.3219,2.3219,2.3219,2.3219,2.3219,2.3219,2.3219,2.3219,2.3219,2.3219,2.3219,2.3219,2.3219,2.3219,2.3239,2.3293,2.2717,2.1549,0.7012,-0.0,0.0,0.0,0.0,0.0,0.0,0.0,0.0,0.0,0.0,0.0,0.0,0.0,0.0,0.0,0.0,0.0,0.0,0.0,0.0,0.0,0.0,1.9203,1.9203,1.9169,1.9081,1.9061,1.9027,1.8918,1.8918,1.8905,1.885,1.8884,1.8938,1.8993,1.9128,1.9291,1.9501,1.9501,1.9556,1.9664,1.961,1.9664,1.982,1.9766,1.9766,1.982,1.982,2.001,2.0329,2.0329,2.0417,2.0539,2.0539,2.0539,2.0539,2.0614,2.079,2.1001,2.1055,2.1231,2.1441,2.1441,2.1441,2.1455,2.1509,2.1638,2.1774,2.1916,2.2004,2.2093,2.2289,2.2269,2.2215,2.2323,2.2337,2.2337,2.2337,2.2337,2.2337,2.2337,2.2337,2.2337,2.2337,2.2411,2.25,2.2554,2.2764,2.294,2.3008,2.313,2.3219,2.3219,2.3219,2.3219,2.3219,2.3219,2.3219,2.3219,2.3219,2.3219,2.3219,2.3219,2.3219,2.3219,2.3219,2.3219,2.3219,2.3239,2.3273,2.3012,1.7483,0.9657,1.4007,0.0,0.0,0.0,0.0,0.0,0.0,0.0,0.0,0.0,0.0,0.0,0.0,0.0,0.0,0.0,0.0,0.0,0.0,0.0,1.9115,1.9061,1.9094,1.9081,1.8918,1.8918,1.8871,1.8762,1.8762,1.8762,1.8762,1.8762,1.8816,1.8905,1.9006,1.9183,1.9434,1.9434,1.9488,1.959,1.959,1.961,1.9664,1.9664,1.9664,1.9664,1.9664,1.9888,2.0261,2.0261,2.0363,2.0539,2.0539,2.0539,2.0539,2.0594,2.079,2.1001,2.1055,2.1231,2.1441,2.1441,2.1475,2.1509,2.1509,2.1618,2.1774,2.1916,2.195,2.2025,2.2269,2.2269,2.2215,2.2323,2.2337,2.2337,2.2337,2.2337,2.2337,2.2337,2.2337,2.2337,2.2337,2.2466,2.2574,2.2622,2.2852,2.3029,2.3083,2.3171,2.3219,2.3219,2.3219,2.3219,2.3219,2.3219,2.3219,2.3219,2.3219,2.3219,2.3219,2.3219,2.3219,2.3219,2.3219,2.3219,2.3219,2.3219,2.3239,2.3273,2.3341,1.6438,0.0,0.0,0.0,0.0,0.0,0.0,0.0,0.0,0.0,0.0,0.0,0.0,0.0,0.0,0.0,0.0,0.0,0.0,0.0,0.0,1.8918,1.8782,1.8884,1.8918,1.8782,1.8762,1.8762,1.8762,1.8762,1.8762,1.8762,1.8762,1.8762,1.8762,1.8762,1.885,1.8993,1.8993,1.9149,1.9434,1.9434,1.9522,1.9664,1.9664,1.9664,1.9664,1.9664,1.9834,2.0098,2.0098,2.0275,2.0539,2.0539,2.0539,2.056,2.0702,2.0858,2.1021,2.1157,2.1319,2.1441,2.1441,2.155,2.1672,2.1672,2.176,2.1903,2.2059,2.2113,2.2147,2.2303,2.2337,2.2337,2.2337,2.2337,2.2337,2.2337,2.2337,2.2337,2.2337,2.2337,2.2337,2.2337,2.2466,2.2608,2.2764,2.292,2.3063,2.3205,2.3219,2.3219,2.3219,2.3219,2.3219,2.3219,2.3219,2.3219,2.3219,2.3219,2.3219,2.3219,2.3219,2.3219,2.3219,2.3219,2.3219,2.3219,2.3219,2.3219,2.3219,2.3449,1.9517,1.3587,0.0,0.0,0.0,0.0,0.0,0.0,0.0,0.0,0.0,0.0,0.0,0.0,0.0,0.0,0.0,0.0,0.0,0.0,0.0,1.8816,1.8762,1.8796,1.8816,1.8762,1.8762,1.8762,0.0,1.8762,1.8762,1.8762,1.8762,1.8816,1.8918,1.8918,1.8993,1.9149,1.9149,1.9237,1.9434,1.9434,1.9522,1.9664,1.9664,1.9664,1.9664,1.9664,1.9834,2.0098,2.0098,2.0275,2.0539,2.0539,2.0539,2.0539,2.0594,2.077,2.1001,2.1055,2.1231,2.1441,2.1441,2.1475,2.1509,2.1509,2.1618,2.176,2.1903,2.2025,2.2147,2.2303,2.2337,2.2337,2.2337,2.2337,2.2337,2.2337,2.2337,2.2337,2.2337,2.2337,2.2378,2.2479,2.2622,2.2764,2.292,2.3063,2.3171,2.3219,2.3219,2.3219,2.3219,2.3219,2.3219,2.3219,2.3219,2.3219,2.3219,2.3219,2.3219,2.3219,2.3219,2.3219,2.3219,2.3219,2.3219,2.3219,2.3327,2.3327,2.3219,2.3558,2.261,1.362,1.3892,1.4217,1.4428,0.0,0.0,0.0,0.0,0.0,0.0,0.0,0.0,0.0,0.0,0.0,0.0,0.0,0.0,0.0,1.8816,1.883,1.8762,1.8816,1.883,1.8762,1.8762,1.8762,1.8762,1.8762,1.8762,1.8762,1.8762,1.8796,1.8884,1.8905,1.8972,1.9115,1.9115,1.9217,1.9434,1.9434,1.9522,1.9664,1.9664,1.9664,1.9664,1.9664,1.9834,2.0098,2.0098,2.0275,2.0539,2.0539,2.0539,2.0539,2.0539,2.0736,2.1001,2.1001,2.1197,2.1441,2.1441,2.1475,2.153,2.153,2.1597,2.1706,2.1848,2.1991,2.2147,2.2303,2.2337,2.2337,2.2337,2.2337,2.2337,2.2337,2.2337,2.2337,2.2337,2.2391,2.2445,2.2534,2.273,2.2907,2.2995,2.313,2.3219,2.3219,2.3219,2.3219,2.3219,2.3219,2.3219,2.3219,2.3219,2.3219,2.3219,2.3219,2.3219,2.3219,2.3219,2.3219,2.3219,2.3219,2.3259,2.3307,2.3347,2.3347,2.3327,2.3612,2.3802,1.3702,1.398,1.4367,1.4624,1.4529,0.0,1.5655,1.5601,0.0,0.0,0.0,0.0,0.0,0.0,0.0,0.0,0.0,0.0,0.0,1.8884,1.8918,1.8782,1.8884,1.8918,1.8782,1.8762,1.8762,1.8762,1.8762,1.8762,1.8762,1.8762,1.8762,1.8782,1.8782,1.883,1.8993,1.8972,1.9115,1.9413,1.9413,1.9501,1.9664,1.9664,1.9664,1.9664,1.9664,1.9834,2.0098,2.0098,2.0275,2.0539,2.0539,2.0539,2.0539,2.056,2.075,2.1001,2.1021,2.1211,2.1441,2.1441,2.153,2.1652,2.1672,2.1672,2.1706,2.1848,2.1991,2.2147,2.2289,2.2323,2.2323,2.2337,2.2337,2.2337,2.2337,2.2357,2.2357,2.2357,2.2466,2.2574,2.2608,2.2832,2.3008,2.3029,2.313,2.3219,2.3219,2.3219,2.3219,2.3219,2.3219,2.3219,2.3219,2.3219,2.3219,2.3219,2.3219,2.3219,2.3219,2.3219,2.3219,2.3219,2.3219,2.3293,2.3429,2.3293,2.3307,2.3503,2.3626,2.3768,1.3926,1.4143,1.4312,1.4373,1.4611,0.0,1.4679,1.476,0.0,0.0,0.0,0.0,0.0,0.0,0.0,0.0,0.0,0.0,0.0,1.8782,1.8796,1.8762,1.8796,1.8796,1.8762,1.8762,1.8762,1.8762,1.8762,1.8762,1.8762,1.8762,1.8816,1.8938,1.883,1.883,1.8993,1.8871,1.8959,1.9257,1.9257,1.9393,1.9664,1.9664,1.9664,1.9664,1.9664,1.9834,2.0098,2.0098,2.0275,2.0539,2.0539,2.0539,2.056,2.0682,2.0845,2.1021,2.1123,2.1285,2.1441,2.1441,2.1455,2.1509,2.1638,2.1672,2.1706,2.1848,2.1991,2.2113,2.2147,2.216,2.2181,2.2303,2.2337,2.2337,2.2337,2.2432,2.252,2.252,2.2534,2.2622,2.2886,2.2974,2.3049,2.3171,2.3205,2.3219,2.3219,2.3219,2.3219,2.3219,2.3219,2.3219,2.3219,2.3219,2.3219,2.3219,2.3219,2.3219,2.3219,2.3219,2.3219,2.3219,2.3219,2.3239,2.3273,2.3239,2.3415,2.3802,2.3714,2.3822,1.4095,1.4183,1.4333,1.4482,1.4577,0.0,0.0,1.474,0.0,0.0,0.0,0.0,0.0,0.0,0.0,0.0,0.0,0.0,0.0,1.8464,1.8654,1.8654,1.8586,1.8565,1.864,1.8586,1.8552,1.8552,1.8552,1.8565,1.864,1.8654,1.8728,1.8871,1.8796,1.8796,1.8871,1.8871,1.8993,1.9203,1.9271,1.9434,1.9664,1.9664,1.9664,1.9664,1.9732,1.9888,2.0098,2.0187,2.0349,2.0539,2.0539,2.0539,2.056,2.0627,2.0804,2.1021,2.1089,2.1245,2.1441,2.1441,2.1496,2.1584,2.1726,2.1828,2.1903,2.1971,2.2059,2.2127,2.2201,2.2215,2.2249,2.2323,2.2337,2.2357,2.2432,2.25,2.2608,2.2744,2.2784,2.2832,2.2974,2.3063,2.313,2.3205,2.3219,2.3219,2.3219,2.3219,2.3219,2.3219,2.3219,2.3219,2.3219,2.3219,2.3219,2.3219,2.3219,2.3219,2.3219,2.3219,2.3219,2.3219,2.3293,2.3293,2.3219,2.3293,2.3449,2.368,2.368,2.3802,1.438,1.4421,1.4584,1.4713,1.4652,1.4638,0.0,0.0,0.0,0.0,0.0,0.0,0.0,0.0,0.0,0.0,0.0,0.0,0.0,1.7826,0.0,1.8355,1.8301,1.8321,1.8443,1.8287,1.8233,1.8321,1.8233,1.8287,1.8511,1.8531,1.862,1.8796,1.8816,1.8816,1.8816,1.8959,1.9094,1.9203,1.9359,1.9522,1.9664,1.9664,1.9664,1.9664,1.9786,1.9942,2.0119,2.0241,2.0383,2.0539,2.0539,2.0539,2.0539,2.0573,2.0736,2.0967,2.1021,2.1197,2.1408,2.1455,2.1584,2.1726,2.1815,2.1971,2.2093,2.2038,2.2072,2.2147,2.2269,2.2289,2.2303,2.2337,2.2357,2.2411,2.2534,2.2608,2.271,2.2961,2.3029,2.3049,2.3049,2.3151,2.3219,2.3219,2.3219,2.3219,2.3219,2.3219,2.3219,2.3219,2.3219,2.3219,2.3219,2.3219,2.3219,2.3219,2.3219,2.3219,2.3219,2.3219,2.3239,2.3259,2.3361,2.3347,2.3219,2.3347,2.3436,2.3503,2.3626,2.3768,1.5072,1.5269,1.5364,1.4862,1.512,1.5296,1.4563,0.0,1.4679,1.4468,0.0,0.0,0.0,0.0,0.0,0.0,0.0,0.0,1.6252,1.6659,1.7148,1.7684,1.7968,1.8124,1.8145,1.7894,1.7894,1.8287,1.7948,1.7968,1.8498,1.8531,1.8674,1.8959,1.8972,1.8972,1.8972,1.9115,1.9183,1.9203,1.9359,1.9522,1.9664,1.9664,1.9664,1.9664,1.9678,1.9841,2.0098,2.0119,2.0295,2.0539,2.0539,2.0539,2.056,2.0702,2.077,2.0845,2.1089,2.1211,2.1285,2.1564,2.174,2.1828,2.1726,2.1882,2.2059,2.1794,2.1916,2.2113,2.2127,2.2127,2.216,2.2303,2.2432,2.2534,2.2554,2.2764,2.2974,2.3008,2.3117,2.3205,2.3205,2.3205,2.3219,2.3219,2.3219,2.3219,2.3219,2.3219,2.3219,2.3219,2.3219,2.3219,2.3219,2.3219,2.3219,2.3219,2.3219,2.3219,2.3219,2.3219,2.3293,2.3415,2.3307,2.3239,2.3219,2.3239,2.3381,2.3666,2.368,2.3822,1.5228,1.5343,1.5425,1.5086,1.5126,1.5126,1.4658,1.4516,1.4448,1.4326,0.0,0.0,0.0,0.0,0.0,0.0,1.5262,0.0,0.0,0.0,1.6585,0.0,0.0,0.0,1.7548,1.7534,1.7629,1.7914,1.7589,1.765,1.8247,1.8355,1.8552,1.885,1.8938,1.8952,1.8871,1.9169,1.9257,1.9081,1.9413,1.9556,1.9535,1.9624,1.9664,1.9678,1.9841,1.9976,2.0119,2.0275,2.0438,2.0539,2.0539,2.0539,2.0539,2.0614,2.0702,2.079,2.0912,2.1068,2.1265,2.1564,2.1706,2.176,2.1794,2.1937,2.2093,2.195,2.2079,2.2249,2.2249,2.2249,2.2289,2.2432,2.252,2.2608,2.2784,2.292,2.3029,2.3117,2.3185,2.3219,2.3219,2.3219,2.3219,2.3219,2.3219,2.3219,2.3219,2.3219,2.3219,2.3219,2.3219,2.3219,2.3219,2.3219,2.3219,2.3219,2.3219,2.3219,2.3219,2.3219,2.3259,2.3307,2.3347,2.3307,2.3219,2.3307,2.3415,2.3558,2.3646,2.3843,1.5513,1.5567,1.5628,1.5269,1.5133,1.5011,1.4692,1.455,1.4468,1.4428,1.4516,0.0,0.0,0.0,1.4624,1.4869,0.0,1.516,0.0,1.5533,0.0,0.0,0.0,0.0,0.0,1.7148,1.7249,1.7561,1.7188,1.7283,1.8057,1.8199,1.8409,1.8742,1.8905,1.8918,1.8762,1.9169,1.9237,1.8993,1.94,1.9535,1.9434,1.959,1.9678,1.9732,1.9942,2.0085,2.0187,2.0397,2.0505,2.0539,2.0539,2.0539,2.0539,2.0539,2.0614,2.0716,2.0756,2.1001,2.1319,2.1584,2.1672,2.1692,2.1794,2.1903,2.2004,2.2038,2.216,2.2289,2.2323,2.2337,2.2378,2.252,2.2588,2.2696,2.2961,2.3042,2.3083,2.3151,2.3185,2.3205,2.3171,2.3205,2.3219,2.3219,2.3219,2.3219,2.3219,2.3219,2.3219,2.3219,2.3219,2.3219,2.3219,2.3219,2.3219,2.3219,2.3219,2.3239,2.3273,2.3239,2.3239,2.3293,2.3347,2.3327,2.3219,2.3327,2.3415,2.3449,2.3558,2.3768,1.613,1.6266,1.6279,1.5398,1.5289,1.5208,1.4482,1.4645,1.4909,1.4753,1.5072,1.533,1.5181,1.5153,1.5065,1.4794,1.4875,0.0,0.0,1.4869,0.0,0.0,0.0,0.0,0.0,1.668,1.6646,1.7372,1.6748,1.6849,1.8023,1.8091,1.8301,1.8742,1.8905,1.8918,1.8762,1.9061,1.9128,1.8993,1.9291,1.9434,1.9434,1.959,1.9732,1.9875,1.9875,2.0051,2.0329,2.0329,2.0417,2.0539,2.0539,2.0539,2.0539,2.0539,2.0539,2.0573,2.0716,2.1055,2.1455,2.1618,2.1672,2.1672,2.1672,2.1686,2.1706,2.1848,2.2004,2.2147,2.2303,2.2337,2.2378,2.252,2.2662,2.2818,2.2974,2.3117,2.3171,2.3042,2.313,2.3185,2.3042,2.313,2.3219,2.3219,2.3219,2.3219,2.3219,2.3219,2.3219,2.3219,2.3219,2.3219,2.3219,2.3219,2.3219,2.3219,2.3219,2.3293,2.3436,2.3293,2.3293,2.3436,2.3307,2.3219,2.3219,2.3219,2.3307,2.3449,2.3449,2.3612,1.6551,1.6741,1.6775,1.5974,1.5737,1.5506,1.476,1.4862,1.5038,1.4794,1.5181,1.5486,1.5228,1.5181,1.5147,1.5052,1.4997,1.4936,0.0,1.4685,0.0,0.0,0.0,0.0,0.0,1.6544,1.6707,1.6958,1.6741,1.691,1.7609,1.7826,1.8111,1.8464,1.8708,1.8816,1.8762,1.9061,1.9128,1.8993,1.9291,1.9434,1.9434,1.959,1.9732,1.9875,1.9976,2.0139,2.0329,2.0438,2.0505,2.0539,2.0539,2.0539,2.0539,2.0539,2.0614,2.0736,2.098,2.1157,2.1319,2.1475,2.1509,2.1509,2.1509,2.1584,2.1686,2.1726,2.1848,2.1991,2.2147,2.2181,2.2269,2.2622,2.2744,2.2852,2.3097,2.3117,2.3063,2.3029,2.3049,2.3063,2.3008,2.313,2.3219,2.3219,2.3219,2.3219,2.3219,2.3219,2.3219,2.3219,2.3219,2.3219,2.3219,2.3219,2.3219,2.3219,2.3219,2.3239,2.3293,2.3259,2.3239,2.3293,2.3259,2.3219,2.3219,2.3219,2.3259,2.3293,2.3293,2.347,1.6842,1.7005,1.7039,1.6402,1.6164,1.5913,1.5215,1.533,1.5513,1.5269,1.5567,1.5852,1.5757,1.5608,1.5466,1.5364,1.5174,1.4936,0.0,1.4679,1.4875,1.5215,0.0,0.0,0.0,1.6341,1.6463,1.6727,1.6551,1.6693,1.7304,1.7623,1.7935,1.8233,1.8531,1.8674,1.8674,1.8918,1.9006,1.8918,1.9203,1.9345,1.9359,1.9576,1.9766,1.9963,2.0064,2.0227,2.0417,2.0505,2.0539,2.0539,2.0539,2.0539,2.0539,2.0539,2.0648,2.0811,2.1055,2.1177,2.1231,2.1387,2.1441,2.1441,2.1441,2.1509,2.1597,2.1652,2.1774,2.1916,2.2079,2.2147,2.2269,2.2622,2.2696,2.2764,2.3008,2.2995,2.2907,2.2852,2.294,2.2995,2.294,2.3097,2.3219,2.3219,2.3219,2.3219,2.3219,2.3219,2.3219,2.3219,2.3219,2.3219,2.3219,2.3219,2.3219,2.3219,2.3219,2.3219,2.3219,2.3219,2.3219,2.3219,2.3219,2.3219,2.3219,2.3219,2.3219,2.3219,2.3219,2.3361]},{"header":{"parameterUnit":"m.s-1","parameterCategory":1,"la1":30.6,"la2":29.2853,"lo1":-89.7004,"lo2":-87.6739,"dy":0.0162,"dx":0.0183,"nx":112,"ny":82,"refTime":"2025-03-04T18:00:00:Z","depth":0,"parameterNumber":3,"parameterNumberName":"V-component_of_WINDS"},"data":[0.0,0.0,0.0,0.0,0.0,0.0,0.0,0.0,0.0,0.0,0.0,0.0,0.0,0.0,0.0,0.0,0.0,0.0,0.0,0.0,0.0,0.0,0.0,0.0,0.0,0.0,0.0,0.0,0.0,0.0,0.0,0.0,0.0,0.0,0.0,0.0,0.0,0.0,0.0,0.0,0.0,0.0,0.0,0.0,0.0,0.0,0.0,0.0,0.0,0.0,0.0,0.0,0.0,0.0,0.0,0.0,0.0,0.0,0.0,0.0,0.0,0.0,0.0,0.0,0.0,0.0,0.0,0.0,0.0,0.0,0.0,0.0,0.0,0.0,0.0,0.0,0.0,0.0,0.0,0.0,0.0,0.0,0.0,0.0,0.0,0.0,0.0,0.0,0.0,0.0,-7.7656,-8.039,-8.6054,-8.9336,-8.8594,-8.7656,-8.4961,-8.0,0.0,0.0,0.0,0.0,0.0,0.0,0.0,0.0,0.0,0.0,0.0,0.0,0.0,0.0,0.0,0.0,0.0,0.0,0.0,0.0,0.0,0.0,0.0,0.0,0.0,0.0,0.0,0.0,0.0,0.0,0.0,0.0,0.0,0.0,0.0,0.0,0.0,0.0,0.0,0.0,0.0,0.0,0.0,0.0,0.0,0.0,0.0,0.0,0.0,0.0,0.0,0.0,0.0,0.0,0.0,0.0,0.0,0.0,0.0,0.0,0.0,0.0,0.0,0.0,0.0,0.0,0.0,0.0,0.0,0.0,0.0,0.0,0.0,0.0,0.0,0.0,0.0,0.0,0.0,0.0,0.0,0.0,0.0,0.0,0.0,0.0,0.0,0.0,0.0,0.0,0.0,0.0,0.0,0.0,0.0,0.0,0.0,0.0,0.0,0.0,0.0,0.0,0.0,0.0,-7.6797,-8.4414,-8.6797,-8.7812,-8.7695,-8.6211,-8.3672,-7.9922,0.0,0.0,0.0,0.0,0.0,0.0,0.0,0.0,0.0,0.0,0.0,0.0,0.0,0.0,0.0,0.0,0.0,0.0,0.0,0.0,0.0,0.0,0.0,0.0,0.0,0.0,0.0,0.0,0.0,0.0,0.0,0.0,0.0,0.0,0.0,0.0,0.0,0.0,0.0,0.0,0.0,0.0,0.0,0.0,0.0,0.0,0.0,0.0,0.0,0.0,0.0,0.0,0.0,0.0,0.0,0.0,0.0,0.0,0.0,0.0,0.0,0.0,0.0,0.0,0.0,0.0,0.0,0.0,0.0,0.0,0.0,0.0,0.0,0.0,0.0,0.0,0.0,0.0,0.0,0.0,0.0,0.0,0.0,0.0,0.0,0.0,0.0,0.0,0.0,0.0,0.0,0.0,0.0,0.0,0.0,0.0,0.0,0.0,0.0,0.0,0.0,0.0,0.0,-7.5195,-7.8008,-8.4765,-8.6719,-8.7304,-8.6836,-8.5625,-8.3242,-7.9297,-7.6992,0.0,0.0,0.0,0.0,0.0,0.0,0.0,0.0,0.0,0.0,0.0,0.0,0.0,0.0,0.0,0.0,0.0,0.0,0.0,0.0,0.0,0.0,0.0,0.0,0.0,0.0,0.0,0.0,0.0,0.0,0.0,0.0,0.0,0.0,0.0,0.0,0.0,0.0,0.0,0.0,0.0,0.0,0.0,0.0,0.0,0.0,0.0,0.0,0.0,0.0,0.0,0.0,0.0,0.0,0.0,0.0,0.0,0.0,0.0,0.0,0.0,0.0,0.0,0.0,0.0,0.0,0.0,0.0,0.0,0.0,0.0,0.0,0.0,0.0,0.0,0.0,0.0,0.0,0.0,0.0,0.0,0.0,0.0,0.0,0.0,0.0,0.0,0.0,0.0,0.0,0.0,0.0,0.0,0.0,0.0,0.0,0.0,0.0,0.0,0.0,0.0,0.0,-7.8281,-8.0547,-8.4492,-8.6445,-8.707,-8.5976,-8.4726,-8.2304,-7.8437,-7.5351,0.0,0.0,0.0,0.0,0.0,0.0,0.0,0.0,0.0,0.0,0.0,0.0,0.0,0.0,0.0,0.0,0.0,0.0,0.0,0.0,0.0,0.0,0.0,0.0,0.0,0.0,0.0,0.0,0.0,0.0,0.0,0.0,0.0,0.0,0.0,0.0,0.0,0.0,0.0,0.0,0.0,0.0,0.0,0.0,0.0,0.0,0.0,0.0,0.0,0.0,0.0,0.0,0.0,0.0,0.0,0.0,0.0,0.0,0.0,0.0,0.0,0.0,0.0,0.0,0.0,0.0,0.0,0.0,0.0,0.0,0.0,0.0,0.0,0.0,0.0,0.0,0.0,0.0,0.0,0.0,0.0,0.0,0.0,0.0,0.0,0.0,0.0,0.0,0.0,0.0,0.0,0.0,0.0,0.0,0.0,0.0,0.0,0.0,0.0,0.0,0.0,0.0,-7.9922,-8.4492,-8.4844,-8.6445,-8.6836,-8.5117,-8.2695,-8.0117,-7.7461,-7.332,0.0,0.0,0.0,0.0,0.0,0.0,0.0,0.0,0.0,0.0,0.0,0.0,0.0,0.0,0.0,0.0,0.0,0.0,0.0,0.0,0.0,0.0,0.0,0.0,0.0,0.0,0.0,0.0,0.0,0.0,0.0,0.0,0.0,0.0,0.0,0.0,0.0,0.0,0.0,0.0,0.0,0.0,0.0,0.0,0.0,0.0,0.0,0.0,0.0,0.0,0.0,0.0,0.0,0.0,0.0,0.0,0.0,0.0,0.0,0.0,0.0,0.0,0.0,0.0,0.0,0.0,0.0,0.0,0.0,0.0,0.0,0.0,0.0,0.0,0.0,0.0,0.0,0.0,0.0,0.0,0.0,0.0,0.0,0.0,0.0,0.0,0.0,0.0,0.0,0.0,0.0,0.0,0.0,0.0,0.0,0.0,0.0,0.0,0.0,0.0,0.0,0.0,-7.8867,-8.2695,-8.5429,-8.6797,-8.6797,-8.5039,-8.3984,-8.164,-7.7461,0.0,0.0,0.0,0.0,0.0,0.0,0.0,0.0,0.0,0.0,0.0,0.0,0.0,0.0,0.0,0.0,0.0,0.0,0.0,0.0,0.0,0.0,0.0,0.0,0.0,0.0,0.0,0.0,0.0,0.0,0.0,0.0,0.0,0.0,0.0,0.0,0.0,0.0,0.0,0.0,0.0,0.0,0.0,0.0,0.0,0.0,0.0,0.0,0.0,0.0,0.0,0.0,0.0,0.0,0.0,0.0,0.0,0.0,0.0,0.0,0.0,0.0,0.0,0.0,0.0,0.0,0.0,0.0,0.0,0.0,0.0,0.0,0.0,0.0,0.0,0.0,0.0,0.0,0.0,0.0,0.0,0.0,0.0,0.0,0.0,0.0,0.0,0.0,0.0,0.0,0.0,0.0,0.0,0.0,0.0,0.0,0.0,0.0,0.0,0.0,0.0,0.0,-7.5273,-7.9101,-8.2695,-8.625,-8.7148,-8.7031,-8.582,-8.4453,-8.1797,-7.7461,0.0,0.0,0.0,0.0,0.0,0.0,0.0,0.0,0.0,0.0,0.0,0.0,0.0,0.0,0.0,0.0,0.0,0.0,0.0,0.0,0.0,0.0,0.0,0.0,0.0,0.0,0.0,0.0,0.0,0.0,0.0,0.0,0.0,0.0,0.0,0.0,0.0,0.0,0.0,0.0,0.0,0.0,0.0,0.0,0.0,0.0,0.0,0.0,0.0,0.0,0.0,0.0,0.0,0.0,0.0,0.0,0.0,0.0,0.0,0.0,0.0,0.0,0.0,0.0,0.0,0.0,0.0,0.0,0.0,0.0,0.0,0.0,0.0,0.0,0.0,0.0,0.0,0.0,0.0,0.0,0.0,0.0,0.0,0.0,0.0,0.0,0.0,0.0,0.0,0.0,0.0,0.0,0.0,0.0,0.0,0.0,0.0,0.0,0.0,0.0,0.0,0.0,-7.5586,-8.1172,-8.5586,-8.7344,-8.7539,-8.7539,-8.75,-8.3554,-7.9961,0.0,0.0,0.0,0.0,0.0,0.0,0.0,0.0,0.0,0.0,0.0,0.0,0.0,0.0,0.0,0.0,0.0,0.0,0.0,0.0,0.0,0.0,0.0,0.0,0.0,0.0,0.0,0.0,0.0,0.0,0.0,0.0,0.0,0.0,0.0,0.0,0.0,0.0,0.0,0.0,0.0,0.0,0.0,0.0,0.0,0.0,0.0,0.0,0.0,0.0,0.0,0.0,0.0,0.0,0.0,0.0,0.0,0.0,0.0,0.0,0.0,0.0,0.0,0.0,0.0,0.0,0.0,0.0,0.0,0.0,0.0,0.0,0.0,0.0,0.0,0.0,0.0,0.0,0.0,0.0,0.0,0.0,0.0,0.0,0.0,0.0,0.0,0.0,0.0,0.0,0.0,0.0,0.0,0.0,0.0,0.0,0.0,0.0,0.0,0.0,0.0,0.0,0.0,-7.7226,-8.2461,-8.6719,-8.9023,-8.9258,-8.9023,-8.8398,-8.6094,-8.2773,-7.8398,0.0,0.0,0.0,0.0,0.0,0.0,0.0,0.0,0.0,0.0,0.0,0.0,0.0,0.0,0.0,0.0,0.0,0.0,0.0,0.0,0.0,0.0,0.0,0.0,0.0,0.0,0.0,0.0,0.0,0.0,0.0,0.0,0.0,0.0,0.0,0.0,0.0,0.0,0.0,0.0,0.0,0.0,0.0,0.0,0.0,0.0,0.0,0.0,0.0,0.0,0.0,0.0,0.0,0.0,0.0,0.0,0.0,0.0,0.0,0.0,0.0,0.0,0.0,0.0,0.0,0.0,0.0,0.0,0.0,0.0,0.0,0.0,0.0,0.0,0.0,0.0,0.0,0.0,0.0,0.0,0.0,0.0,0.0,0.0,0.0,0.0,0.0,0.0,0.0,0.0,0.0,0.0,0.0,0.0,0.0,0.0,0.0,0.0,0.0,0.0,0.0,0.0,-7.7969,-8.3594,-8.8164,-9.0742,-9.0742,-9.0469,-9.0273,-8.8086,-8.4492,-7.9297,0.0,0.0,0.0,0.0,0.0,0.0,0.0,0.0,0.0,0.0,0.0,0.0,0.0,0.0,0.0,0.0,0.0,0.0,0.0,0.0,0.0,0.0,0.0,0.0,0.0,0.0,0.0,0.0,0.0,0.0,0.0,0.0,0.0,0.0,0.0,0.0,0.0,0.0,0.0,0.0,0.0,0.0,0.0,0.0,0.0,0.0,0.0,0.0,0.0,0.0,0.0,0.0,0.0,0.0,0.0,0.0,0.0,0.0,0.0,0.0,0.0,0.0,0.0,0.0,0.0,0.0,0.0,0.0,0.0,0.0,0.0,0.0,0.0,0.0,0.0,0.0,0.0,0.0,0.0,0.0,0.0,0.0,0.0,0.0,0.0,0.0,0.0,0.0,0.0,0.0,0.0,0.0,0.0,0.0,0.0,0.0,0.0,0.0,0.0,0.0,0.0,0.0,-7.8398,-8.4721,-8.9908,-9.2525,-9.2065,-9.191,-9.2692,-8.9762,-8.57,-8.0544,0.0,0.0,0.0,0.0,0.0,0.0,0.0,0.0,0.0,0.0,0.0,0.0,0.0,0.0,0.0,0.0,0.0,0.0,0.0,0.0,0.0,0.0,0.0,0.0,0.0,0.0,0.0,0.0,0.0,0.0,0.0,0.0,0.0,0.0,0.0,0.0,0.0,0.0,0.0,0.0,0.0,0.0,0.0,0.0,0.0,0.0,0.0,0.0,0.0,0.0,0.0,0.0,0.0,0.0,0.0,0.0,0.0,0.0,0.0,0.0,-8.1508,0.0,0.0,0.0,0.0,0.0,0.0,0.0,0.0,0.0,0.0,0.0,0.0,0.0,0.0,0.0,0.0,0.0,0.0,0.0,0.0,0.0,0.0,0.0,0.0,0.0,0.0,0.0,0.0,0.0,0.0,0.0,0.0,0.0,0.0,0.0,0.0,0.0,0.0,0.0,0.0,0.0,-8.0976,-8.6722,-9.1436,-9.4046,-9.3978,-9.3819,-9.3974,-9.2143,-8.9026,-8.4546,-8.0569,0.0,0.0,0.0,0.0,0.0,0.0,0.0,0.0,0.0,0.0,0.0,0.0,0.0,0.0,0.0,0.0,0.0,0.0,0.0,0.0,0.0,0.0,0.0,0.0,0.0,0.0,0.0,0.0,0.0,0.0,0.0,0.0,0.0,0.0,0.0,0.0,0.0,0.0,0.0,0.0,0.0,0.0,0.0,0.0,0.0,0.0,0.0,0.0,0.0,0.0,0.0,0.0,0.0,0.0,0.0,0.0,0.0,0.0,0.0,0.0,-8.2579,0.0,0.0,0.0,0.0,0.0,0.0,0.0,0.0,0.0,0.0,0.0,0.0,0.0,0.0,0.0,0.0,0.0,0.0,0.0,0.0,0.0,0.0,0.0,0.0,0.0,0.0,0.0,0.0,0.0,0.0,0.0,0.0,0.0,0.0,0.0,0.0,0.0,0.0,0.0,0.0,-8.2104,-8.8419,-9.3261,-9.5018,-9.5084,-9.5039,-9.5039,-9.3463,-9.0803,-8.6972,-8.3048,0.0,0.0,0.0,0.0,0.0,0.0,0.0,0.0,0.0,0.0,0.0,0.0,0.0,0.0,0.0,0.0,0.0,0.0,0.0,0.0,0.0,0.0,0.0,0.0,0.0,0.0,0.0,0.0,0.0,0.0,0.0,0.0,0.0,0.0,0.0,0.0,0.0,0.0,0.0,0.0,0.0,0.0,0.0,0.0,0.0,0.0,0.0,0.0,0.0,0.0,0.0,0.0,0.0,-9.0427,-9.0759,-9.0921,-9.0982,-9.1511,-9.2113,-8.8442,-8.6683,-8.6279,-8.459,0.0,0.0,0.0,0.0,0.0,0.0,0.0,0.0,0.0,0.0,0.0,0.0,0.0,0.0,0.0,0.0,0.0,0.0,0.0,0.0,0.0,0.0,-8.3828,-8.4531,-8.582,-8.5117,-7.8672,0.0,0.0,0.0,0.0,0.0,0.0,0.0,0.0,0.0,0.0,0.0,-8.3158,-8.9987,-9.4886,-9.5784,-9.5865,-9.5789,-9.5789,-9.4483,-9.2294,-8.9184,-8.5954,-8.2259,0.0,0.0,0.0,0.0,0.0,0.0,0.0,0.0,0.0,0.0,0.0,0.0,0.0,0.0,0.0,0.0,0.0,0.0,0.0,0.0,0.0,0.0,0.0,0.0,0.0,0.0,0.0,0.0,0.0,0.0,0.0,0.0,-9.7096,-9.6365,0.0,0.0,0.0,0.0,0.0,0.0,0.0,0.0,0.0,0.0,0.0,0.0,0.0,-9.0004,-9.089,-9.2657,-9.3654,-9.3808,-9.6019,-9.711,-9.7149,-9.7363,-9.7958,-9.8708,-9.7571,0.0,-8.9873,-8.8144,0.0,0.0,0.0,0.0,0.0,0.0,0.0,0.0,0.0,0.0,0.0,0.0,0.0,0.0,0.0,0.0,0.0,0.0,0.0,0.0,0.0,0.0,-8.9023,-8.914,-8.9336,-8.9219,-8.8203,-8.3359,-7.8594,-7.6562,-7.5015,-7.3374,0.0,0.0,0.0,0.0,0.0,0.0,-8.5881,-9.1476,-9.5511,-9.6365,-9.6326,-9.6211,-9.6211,-9.6019,-9.5057,-9.3059,-9.0444,-8.744,-8.3939,-7.9208,0.0,0.0,0.0,0.0,0.0,0.0,0.0,0.0,0.0,0.0,0.0,0.0,0.0,0.0,0.0,0.0,0.0,0.0,0.0,0.0,0.0,0.0,0.0,0.0,0.0,0.0,0.0,0.0,0.0,-9.8134,-9.8481,-9.7134,-9.8134,-9.825,0.0,0.0,0.0,0.0,0.0,0.0,0.0,0.0,0.0,-9.2969,-9.4198,-9.5695,-9.7533,-9.8891,-9.987,-10.0511,-10.2114,-10.271,-10.2406,-10.292,-10.3694,-10.4503,-10.3723,-10.2218,-9.9992,-9.4402,-9.1184,-8.9586,0.0,0.0,0.0,0.0,-8.6289,-8.6875,-8.875,-8.914,-8.8711,-8.8008,0.0,0.0,0.0,0.0,0.0,0.0,0.0,-8.5586,-8.789,-9.0703,-9.3164,-9.4101,-9.4336,-9.4219,-9.375,-9.0117,-8.5859,-8.2226,-8.1226,-7.952,-7.4989,-7.4219,0.0,0.0,0.0,-8.52,-8.8954,-9.3561,-9.6673,-9.7057,-9.7173,-9.7019,-9.6519,-9.7094,-9.6902,-9.5634,-9.4095,-9.2133,-8.9671,-8.5176,-8.0939,0.0,0.0,0.0,0.0,0.0,0.0,0.0,0.0,0.0,0.0,0.0,0.0,0.0,0.0,0.0,0.0,0.0,0.0,0.0,0.0,0.0,0.0,0.0,0.0,0.0,0.0,0.0,0.0,-9.9173,-9.9673,-9.775,-9.9596,-9.9904,0.0,0.0,0.0,0.0,0.0,0.0,-9.4939,-9.605,-9.7264,-9.8408,-10.0187,-10.2121,-10.4183,-10.5017,-10.5823,-10.6793,-10.7492,-10.7615,-10.7187,-10.7812,-10.8383,-10.9009,-10.8301,-10.8515,-10.8711,-10.0781,-9.6719,-9.5312,-9.289,-9.1328,-9.0469,-9.1328,-9.1797,-9.2304,-9.4726,-9.539,-9.4961,-9.3476,-9.1797,-8.957,-8.5273,0.0,0.0,0.0,0.0,-8.8594,-9.1797,-9.4219,-9.6289,-9.7969,-9.8359,-9.8125,-9.7304,-9.5625,-9.2695,-8.7539,-8.664,-8.5014,-7.9466,-7.9038,0.0,-8.0116,-8.4154,-8.84,-9.1852,-9.567,-9.7942,-9.775,-9.8057,-9.7976,-9.7099,-9.8019,-9.8328,-9.771,-9.7131,-9.5979,-9.4242,-9.0767,-8.6786,-8.2369,0.0,0.0,0.0,0.0,0.0,0.0,0.0,0.0,0.0,0.0,0.0,0.0,0.0,0.0,0.0,0.0,0.0,0.0,0.0,0.0,0.0,0.0,0.0,0.0,0.0,0.0,0.0,0.0,0.0,-9.7788,-10.1212,0.0,0.0,0.0,0.0,-9.8673,-9.9365,-10.0288,-10.1325,-10.2905,-10.4713,-10.6605,-10.7811,-10.8799,-10.9803,-11.0109,-11.0702,-11.1597,-11.1597,-11.16,-11.1601,-11.1601,-11.1718,-11.1716,-11.1718,-11.2109,-11.25,-10.6289,-10.2304,-9.9804,-9.8008,-9.6328,-9.4961,-9.5859,-9.664,-9.7578,-9.9375,-9.9453,-9.8984,-10.0508,-9.8242,-9.4531,-9.2617,-9.0859,0.0,0.0,-9.0937,-9.289,-9.5547,-9.6914,-9.8008,-9.9765,-10.0195,-9.9922,-9.9062,-9.8789,-9.7148,-9.1992,-8.9531,-8.7734,-8.5975,0.0,-8.5463,-8.5498,-8.914,-9.2471,-9.4157,-9.7362,-9.9173,-9.8365,-9.898,-9.9172,-9.8295,-9.9016,-9.9522,-9.9483,-9.9444,-9.8627,-9.6896,-9.5088,-9.2184,-8.8064,-8.3824,0.0,0.0,0.0,0.0,0.0,0.0,0.0,0.0,0.0,0.0,0.0,0.0,0.0,0.0,0.0,0.0,0.0,0.0,0.0,0.0,0.0,0.0,0.0,0.0,0.0,0.0,0.0,0.0,-10.2481,-10.5713,0.0,-10.352,-10.3906,-10.4292,-10.4022,-10.5024,-10.5678,-10.6218,-10.7914,-10.9492,-11.0794,-11.19,-11.2918,-11.3684,-11.3806,-11.4101,-11.4414,-11.4414,-11.4414,-11.4414,-11.4414,-11.4687,-11.5195,-11.4609,-11.4804,-11.539,-11.2695,-10.9414,-10.5898,-10.3594,-10.2383,-10.1914,-10.2187,-10.2812,-10.3711,-10.4804,-10.4687,-10.3789,-10.2812,-10.0312,-9.7422,-9.625,-9.5078,-9.4297,-9.4804,-9.6211,-9.7773,-9.8711,-10.0,-10.1211,-10.1797,-10.1992,-10.1914,-10.1601,-10.1094,-9.9804,-9.6836,-9.4375,-9.207,-8.9844,-8.988,-9.0196,-9.0194,-9.3242,-9.6124,-9.7756,-9.9853,-10.0884,-10.0005,-10.0298,-10.0321,-9.9383,-10.0286,-10.0617,-10.0109,-10.0109,-9.9524,-9.8352,-9.6673,-9.4255,-9.095,-8.8428,-8.3486,0.0,0.0,0.0,0.0,0.0,0.0,0.0,0.0,0.0,0.0,0.0,0.0,0.0,0.0,0.0,0.0,0.0,0.0,0.0,0.0,0.0,0.0,0.0,0.0,0.0,0.0,-10.6292,-10.6597,-10.9675,-11.0791,-10.8216,-10.8719,-10.8993,-10.8697,-10.973,-11.0485,-11.0804,-11.2385,-11.3694,-11.4603,-11.5398,-11.6015,-11.6601,-11.6601,-11.6601,-11.6601,-11.6601,-11.6484,-11.6211,-11.6211,-11.6484,-11.6992,-11.6406,-11.6601,-11.7304,-11.6211,-11.4218,-11.1601,-10.9101,-10.7695,-10.7187,-10.7187,-10.7617,-10.8086,-10.8711,-10.8711,-10.8008,-10.5508,-10.3203,-10.1406,-10.0195,-9.9531,-9.914,-9.9375,-10.0508,-10.1601,-10.1601,-10.2695,-10.3789,-10.3789,-10.3789,-10.3711,-10.3398,-10.2695,-10.1719,-10.0508,-9.8476,-9.6172,-9.3867,-9.4687,-9.5547,-9.5234,-9.7773,-10.0117,-10.1211,-10.2484,-10.2893,-10.2023,-10.2109,-10.1699,-10.0624,-10.1192,-10.1211,-10.039,-10.0,-9.9453,-9.8594,-9.7226,-9.5351,-9.289,-9.0413,-8.6129,-8.0027,0.0,0.0,0.0,0.0,0.0,0.0,0.0,0.0,0.0,0.0,0.0,0.0,0.0,0.0,0.0,0.0,0.0,0.0,0.0,0.0,0.0,0.0,0.0,-10.302,-10.6103,-10.8682,-10.9874,-11.2992,-11.4113,-11.1689,-11.2919,-11.3503,-11.2694,-11.3301,-11.4318,-11.5282,-11.6206,-11.72,-11.828,-11.8281,-11.8281,-11.8281,-11.8281,-11.8281,-11.8281,-11.8281,-11.789,-11.6992,-11.6992,-11.6992,-11.6992,-11.6992,-11.75,-11.8203,-11.6484,-11.6289,-11.6718,-11.4218,-11.2187,-11.0781,-11.0781,-11.0781,-11.0781,-11.0703,-11.1289,-11.1601,-10.8984,-10.75,-10.6484,-10.4804,-10.4297,-10.4101,-10.3203,-10.3594,-10.4297,-10.4297,-10.4883,-10.5586,-10.5508,-10.5586,-10.5312,-10.4492,-10.3711,-10.3008,-10.3008,-10.1601,-9.9922,-9.8164,-10.0,-10.1406,-10.0586,-10.2695,0.0,-10.4297,-10.5,-10.5195,-10.4297,-10.4219,-10.3515,-10.1797,-10.1719,-10.1211,-10.0312,-9.9453,-9.8554,-9.7695,-9.6914,-9.5703,-9.4062,-8.978,-8.7156,-8.6367,0.0,0.0,0.0,0.0,0.0,0.0,0.0,0.0,0.0,0.0,0.0,0.0,0.0,0.0,0.0,0.0,0.0,0.0,0.0,0.0,0.0,0.0,-10.6411,-10.6719,-10.9818,-11.31,-11.5911,-11.7606,-11.8588,-11.8499,-11.8526,-11.8204,-11.7368,-11.7681,-11.7804,-11.7505,-11.7689,-11.7983,-11.8281,-11.8281,-11.8281,-11.8281,-11.8281,-11.8281,-11.8281,-11.8281,-11.8203,-11.789,-11.789,-11.789,-11.789,-11.789,-11.8086,-11.8281,-11.7812,-11.7383,-11.6797,-11.4883,-11.4218,-11.4297,-11.4297,-11.4297,-11.4297,-11.3593,-11.3593,-11.3515,-11.1484,-11.0195,-10.9218,-10.75,-10.6484,-10.5781,-10.5,-10.5781,-10.6719,-10.5508,-10.6211,-10.7187,-10.6484,-10.6914,-10.7187,-10.6992,-10.6797,-10.6211,-10.5,-10.4883,-10.4219,-10.1914,-10.2617,-10.3594,-10.3984,-10.5703,-10.6719,-10.6093,-10.6797,-10.6797,-10.5312,-10.5117,-10.4687,-10.3594,-10.289,-10.1601,-9.9492,-9.8554,-9.7695,-9.6875,-9.6601,-9.6562,-9.664,-9.1838,-8.9495,0.0,0.0,0.0,0.0,0.0,0.0,0.0,0.0,0.0,0.0,0.0,0.0,0.0,0.0,0.0,0.0,0.0,0.0,0.0,0.0,0.0,0.0,-10.8492,-11.177,-11.3581,-11.51,-11.7294,-12.0785,-12.1695,-12.232,-12.3217,-12.2278,-12.1482,-12.1016,-12.0112,-11.9492,-11.9414,-11.8984,-11.8789,-11.8789,-11.8789,-11.8711,-11.8281,-11.8281,-11.8281,-11.8281,-11.8281,-11.8281,-11.8281,-11.8281,-11.8281,-11.8281,-11.8281,-11.8281,-11.8281,-11.789,-11.7695,-11.7383,0.0,0.0,0.0,0.0,-11.6015,-11.6211,-11.5312,-11.5,-11.4687,-11.3008,-11.1914,-11.0781,-10.9101,-10.8203,-10.7695,-10.7187,-10.7812,-10.8398,-10.7812,-10.8398,-10.8984,-10.8515,-10.8711,-10.9218,-10.9609,-10.9297,-10.8906,-10.8281,-10.8281,0.0,-10.6914,-10.6484,-10.6406,-10.6484,-10.8008,-10.8906,-10.8398,-10.8789,-10.8711,-10.7695,-10.6992,-10.6211,-10.5312,-10.3789,0.0,0.0,0.0,-9.7187,-9.6015,-9.5976,0.0,0.0,0.0,0.0,0.0,-9.4023,0.0,0.0,-9.0586,-9.0351,0.0,0.0,0.0,0.0,0.0,0.0,0.0,0.0,0.0,0.0,0.0,0.0,0.0,0.0,0.0,0.0,-11.37,-11.76,-12.1962,-12.1309,-12.1584,-12.4992,-12.5117,-12.5312,-12.6211,-12.4804,-12.3711,-12.3711,-12.1406,-12.0312,-12.1015,0.0,0.0,0.0,0.0,-11.9297,-11.8515,-11.8398,-11.8398,-11.8281,-11.8281,-11.8281,-11.8281,-11.8281,-11.8281,-11.8281,-11.8281,-11.8281,-11.8203,-11.75,-11.7617,-11.8203,-11.7383,-11.6718,-11.6015,-11.6015,-11.6406,-11.6914,-11.6093,0.0,0.0,-11.3789,-11.2812,-11.1718,-11.0117,-10.9609,-10.9609,-10.9609,-10.9609,-10.9804,-11.0703,-11.0781,-11.0781,-11.0898,-11.0898,-11.1093,-11.1992,-11.1601,-11.1289,-11.1992,-11.1601,-11.1289,-11.1914,-11.0703,-10.9414,-10.8789,-11.0,-11.1015,-11.1015,-11.1015,-11.1015,-11.0781,-10.9492,0.0,-10.7109,-10.4883,-10.2812,-10.1015,-9.9336,-9.7773,-9.6289,-9.6328,-9.7109,-9.8672,-9.9453,-10.1094,-10.3515,-10.4297,-10.5117,-10.5781,-9.6328,-9.4804,0.0,0.0,0.0,0.0,0.0,0.0,0.0,0.0,0.0,0.0,0.0,0.0,0.0,0.0,0.0,-11.4619,-11.8295,-12.2119,-12.672,-12.7613,-12.8094,-12.8788,-12.7109,-12.6406,-12.789,-12.6484,-12.5195,-12.4609,-12.3398,-12.25,-12.1992,-12.1093,-12.0586,-12.0586,-12.0586,-12.0195,-11.9414,-11.9297,-11.8984,-11.8281,0.0,0.0,-11.8281,-11.8281,-11.8281,-11.8281,-11.8281,-11.8281,-11.8281,-11.8086,-11.8086,-11.8281,-11.8086,-11.789,-11.7812,-11.7812,-11.75,-11.6992,-11.6797,-11.5898,-11.4687,-11.4414,-11.3711,-11.2812,-11.1718,-11.1406,0.0,-11.1406,-11.1406,-11.1601,-11.25,-11.2187,-11.1797,-11.25,-11.2695,-11.289,-11.3789,-11.3906,-11.3789,-11.3984,-11.3906,-11.3593,-11.3008,-11.2109,-11.1797,-11.3086,-11.3515,-11.3711,-11.3711,-11.3711,-11.3203,-11.1797,-11.1992,-11.1289,-10.8984,-10.8281,-10.6992,-10.4609,-10.3515,-10.2812,-10.25,-10.3086,-10.3984,-10.4883,-10.5117,-10.5781,-10.6992,-10.7187,-10.8086,-10.9492,-10.539,-10.4492,0.0,0.0,0.0,0.0,0.0,0.0,0.0,0.0,0.0,0.0,0.0,-10.8025,0.0,0.0,-11.5503,-11.9998,-12.2885,-12.5789,-12.9404,-13.029,-13.0586,-13.0586,-12.9414,-12.8789,-12.9218,-12.8086,-12.6992,-12.6093,-12.4883,-12.3984,-12.3515,-12.2695,-12.1992,-12.1601,-12.1601,-12.1093,-12.0312,-12.0312,-11.9804,-11.8984,-11.8984,-11.8711,-11.8281,-11.8281,-11.8515,-11.8906,-11.8515,-11.8515,-11.8906,-11.8515,-11.8281,-11.8281,-11.8281,-11.8281,-11.8281,-11.8281,-11.8008,-11.7695,-11.7695,-11.6797,-11.5781,-11.5781,-11.4883,-11.3711,-11.2812,-11.2187,-11.1992,-11.2383,-11.2617,-11.2812,-11.4101,-11.4101,-11.3906,-11.4297,-11.4492,-11.4687,-11.5586,-11.5781,-11.5781,-11.5781,-11.5781,-11.5586,-11.5195,-11.4687,-11.4492,-11.4492,-11.4804,-11.5117,-11.5117,-11.5117,-11.4804,-11.3906,-11.3906,-11.3281,-11.1992,-11.0703,-10.9218,-10.75,-10.6601,-10.6093,-10.6093,-10.6484,-10.7109,-10.8008,-10.8398,-10.9297,-11.0586,-11.1015,-11.2109,-11.3789,-11.25,-11.1601,0.0,0.0,0.0,0.0,0.0,0.0,0.0,0.0,-10.7392,-10.8699,-11.1081,-11.3693,-11.6205,-11.8222,-12.0898,-12.5117,-12.7091,-12.9013,-13.1593,-13.1914,-13.1914,-13.1914,-13.1484,-13.1015,-13.0508,-12.9492,-12.8593,-12.8086,-12.6289,-12.539,-12.5508,-12.4609,-12.3593,-12.2695,-12.2695,-12.2187,-12.1211,-12.1211,-12.0703,-11.9883,-11.9883,-11.9492,-11.8789,-11.8789,-11.9218,-11.9804,-11.8906,-11.8906,-11.9297,-11.8593,-11.8281,-11.8281,-11.8515,-11.8398,-11.8281,-11.8281,-11.8281,-11.8281,-11.8281,-11.7695,-11.6992,-11.6992,-11.6015,-11.4609,-11.3906,-11.3203,-11.2812,-11.3711,-11.3789,-11.4101,-11.5781,-11.6015,-11.5781,-11.6093,-11.6093,-11.6211,-11.7109,-11.7304,-11.7304,-11.7304,-11.7304,-11.7304,-11.7304,-11.7304,-11.6797,-11.539,-11.5781,-11.6211,-11.6211,-11.6289,-11.6211,-11.6093,-11.5586,-11.5195,-11.5,-11.289,-11.1289,-11.0586,-11.0,-10.9687,-10.9492,-10.9687,-11.0195,-11.1015,-11.1601,-11.2695,-11.4414,-11.5,-11.5898,-11.7304,-11.7304,-11.6484,-10.3405,-10.2789,-10.3097,-10.5213,-10.5905,-10.729,0.0,0.0,-11.2806,-11.4718,-11.6793,-11.881,-12.0684,-12.2692,-12.5195,-12.8789,-13.0112,-13.1707,-13.4218,-13.4609,-13.4609,-13.4609,-13.2617,-13.1484,-13.2109,-13.0703,-13.0,-13.0703,-12.8398,-12.7383,-12.8086,-12.6601,-12.5312,-12.4492,-12.4492,-12.3711,-12.2109,-12.2109,-12.1601,-12.0781,-12.0781,-12.0703,-12.0586,-12.0586,-12.0703,-12.0703,-11.9804,-11.9101,-11.8398,-11.8281,-11.8281,-11.8398,-11.9218,-11.8984,-11.8281,-11.8281,-11.8281,-11.8281,-11.8281,-11.7695,-11.6992,-11.6992,-11.6406,-11.5586,-11.5508,-11.539,-11.5508,-11.6289,-11.6015,-11.5781,-11.7617,-11.6914,-11.6211,-11.7695,-11.7383,-11.7109,-11.8008,-11.8203,-11.8203,-11.8203,-11.8203,-11.8203,-11.8203,-11.8203,-11.8086,-11.789,-11.8008,-11.8008,-11.8008,-11.8008,-11.7695,-11.6914,-11.75,-11.7617,-11.6797,-11.5781,-11.5195,-11.5,-11.5586,-11.5586,-11.4883,-11.5586,-11.6406,-11.7304,-11.6601,-11.7109,-11.8906,-11.8203,-11.8008,-11.8203,-11.8203,-11.8086,-10.7482,0.0,0.0,0.0,-11.1214,-11.3676,-11.6105,-11.7475,-11.8681,-12.0188,-12.1985,-12.3685,-12.4884,-12.6409,-12.8398,0.0,-13.2304,-13.3398,-13.5508,-13.5312,-13.4804,-13.4414,-13.289,-13.2109,-13.25,-13.1797,-13.1406,-13.1211,-13.0195,-12.9297,-12.8593,-12.789,-12.6914,-12.5508,-12.5508,-12.5117,-12.4414,-12.4414,-12.3984,-12.3203,-12.2695,-12.2109,-12.1601,-12.1093,-12.0898,-12.0898,-12.1093,-12.0312,-11.9101,-11.9101,-11.9101,-11.9101,-11.9492,-11.9687,-11.9804,-11.9218,-11.8711,-11.8281,-11.8281,-11.8086,-11.7812,-11.7812,-11.7187,-11.6484,-11.6484,-11.6093,-11.5898,-11.6797,-11.6718,-11.6718,-11.8008,-11.7812,-11.7383,-11.8086,-11.8008,-11.789,-11.8203,-11.8281,-11.8281,-11.8281,-11.8711,-11.9101,-11.9101,-11.9492,-11.9804,-11.9804,-11.9414,-11.9101,-11.9101,-11.9101,-11.8906,-11.8593,-11.9297,-11.9687,-11.9297,-11.8984,-11.8789,-11.8711,-11.9101,-11.9101,-11.8711,-11.9101,-11.9218,-11.9101,-11.9218,-11.9414,-11.9609,-11.9687,-11.9609,-11.9101,-11.9609,-11.9492,-10.8983,0.0,0.0,-11.2483,-11.5907,-11.91,-11.9992,-12.1801,-12.3678,-12.5004,-12.6311,-12.7608,-12.8682,-12.9482,0.0,-13.2689,-13.3516,-13.4297,-13.5508,-13.5312,-13.4589,-13.3085,-13.2383,-13.1914,-13.1484,-13.1914,-13.2109,-13.1914,-13.1484,-13.0781,-12.9687,-12.9414,-12.8515,-12.6797,-12.6992,-12.6718,-12.6015,-12.6211,-12.5898,-12.5117,-12.4492,-12.3906,-12.3203,-12.2383,-12.1718,-12.1289,-12.1914,-12.1289,-12.0,-12.0,-12.0,-12.0,-12.0195,-12.0586,-12.0898,-12.0508,-11.9804,-11.8984,-11.8711,-11.8711,-11.8593,-11.8398,-11.789,-11.7383,-11.7383,-11.6914,-11.6484,-11.7187,-11.7383,-11.75,-11.8086,-11.8281,-11.8281,-11.8281,-11.8281,-11.8281,-11.8281,-11.8281,-11.8281,-11.8281,-11.8984,-11.9609,-11.9609,-12.0312,-12.1015,-12.1211,-12.0703,-12.0195,-12.0,-12.0,-12.0,-12.0,-12.0508,-12.0898,-12.0898,-12.0898,-12.0898,-12.0898,-12.1406,-12.1406,-12.0898,-12.1601,-12.1484,-12.0312,-12.0898,-12.0898,-12.0312,-12.0703,-12.0586,-12.0,-12.0586,-12.0586,0.0,0.0,-11.2214,-11.5484,-11.8908,-12.21,-12.4601,-12.5909,-12.6986,-12.8717,-12.9294,-13.0064,-13.1779,-13.1664,-13.1696,-13.2617,-13.3422,-13.398,-13.4108,-13.4809,-13.4184,-13.1208,-13.0781,-13.0195,0.0,-13.0195,-13.1914,-13.3593,-13.2187,-13.1484,-13.2304,-13.1601,-13.0312,-12.8593,-12.9297,-12.8593,-12.6015,-12.6797,-12.6797,-12.6015,-12.5898,-12.5898,-12.5898,-12.5,-12.3789,-12.2187,-12.2187,-12.1718,-12.0898,-12.0898,-12.0898,-12.0898,-12.1797,-12.1601,-12.1015,-12.1797,-12.1601,-12.0703,-11.9883,-11.9609,-11.9414,-11.8593,-11.8281,-11.8281,-11.8281,-11.8203,-11.8203,-11.8281,-11.8281,-11.8281,-11.8281,-11.8281,-11.8281,-11.8281,-11.8281,-11.8281,-11.8281,-11.8281,-11.8281,-11.8281,-11.8984,-11.9609,-11.9609,-12.0312,-12.1211,-12.1992,-12.2109,-12.1797,-12.1015,-12.0898,-12.0898,-12.0898,-12.0898,-12.0898,-12.0898,-12.0898,-12.0898,-12.0898,-12.25,-12.2695,-12.1015,-12.3281,-12.3906,-12.2187,-12.2109,-12.2109,-12.2109,-12.1289,-12.0898,-12.0898,-12.0898,-12.0898,0.0,0.0,-11.5099,-11.96,-12.2908,-12.5678,-12.8179,-12.991,-13.091,-13.091,-13.091,-13.0987,-13.1064,-13.0679,-13.0789,-13.2203,-13.329,-13.4217,-13.4801,-13.5072,-13.3883,-13.0018,-12.8998,0.0,0.0,0.0,0.0,-13.2812,-13.289,-13.2812,-13.25,-13.2187,-13.1484,-13.039,-13.0586,-13.0312,-12.9492,-12.9687,-12.9492,-12.8593,-12.7383,-12.6289,-12.5195,-12.5508,-12.5,-12.3906,-12.3906,-12.3398,-12.2617,-12.1992,-12.1797,-12.1797,-12.2109,-12.2383,-12.2695,-12.3008,-12.289,-12.2304,-12.0312,-11.9609,-11.9492,-11.8593,-11.8281,-11.8281,-11.8281,-11.8281,-11.8281,-11.8281,-11.8281,-11.8281,-11.8281,-11.8281,-11.8281,-11.8281,-11.8281,-11.8281,-11.8281,-11.8281,-11.8515,-11.9101,-11.9883,-12.0586,-12.1211,-12.1992,-12.2695,-12.3008,-12.2617,-12.2109,-12.1797,-12.1797,-12.1797,-12.1797,-12.2304,-12.2617,-12.2617,-12.2617,-12.2617,-12.2617,-12.3711,-12.4101,-12.3515,-12.4804,-12.5117,-12.3906,-12.4414,-12.4218,-12.3086,-12.3281,-12.289,-12.1797,-12.2383,-12.2304,0.0,-11.4291,-11.7407,-12.2485,-12.5717,-12.8179,-13.041,-13.1795,-13.241,-13.1795,-13.0987,-13.0217,-12.9717,-12.8486,-12.8409,-13.041,-13.191,-13.2987,-13.3872,-13.4308,-13.2884,-12.8805,-12.7497,-12.6525,0.0,0.0,0.0,-13.1718,-13.2383,-13.2812,-13.3008,-13.3008,-13.2617,-13.1718,-13.1992,-13.1797,-13.1211,-13.1484,-13.1093,-12.9883,-12.8789,-12.7304,-12.5703,-12.6211,-12.6015,-12.5195,-12.5195,-12.4687,-12.3906,-12.3398,-12.289,-12.2695,-12.2695,-12.3008,-12.3515,-12.3789,-12.3789,-12.3203,-12.0898,-12.0117,-11.9883,-11.8711,-11.8281,-11.8281,-11.8281,-11.8281,-11.8281,-11.8281,-11.8281,-11.8281,-11.8281,-11.8281,-11.8281,-11.8281,-11.8281,-11.8281,-11.8281,-11.8515,-11.8906,-11.9492,-12.0781,-12.1992,-12.2617,-12.3593,-12.4218,-12.3593,-12.3281,-12.3008,-12.2695,-12.289,-12.3086,-12.3086,-12.3593,-12.3984,-12.3984,-12.3711,-12.3515,-12.3515,-12.4297,-12.4804,-12.4804,-12.5898,-12.6093,-12.5195,-12.6015,-12.5586,-12.3984,-12.4492,-12.4218,-12.3086,-12.3711,-12.3789,-11.2983,-11.6099,-11.9292,-12.4293,-12.7409,-12.9717,-13.1295,-13.1679,-13.1602,-13.1487,-12.9487,-12.7717,0.0,0.0,-12.4909,-12.7409,-12.9294,-13.0794,-13.1602,-13.2487,-13.1602,0.0,0.0,0.0,0.0,0.0,0.0,-13.041,0.0,-13.16,-13.3592,-13.3709,-13.3398,-13.2617,-13.3281,-13.3008,-13.1289,-13.2109,-13.1601,-13.0,-12.9883,-12.8984,-12.7304,-12.7304,-12.6914,-12.6093,-12.6093,-12.5586,-12.4883,-12.4883,-12.4414,-12.3593,-12.3593,-12.3593,-12.3711,-12.4492,-12.4218,-12.3281,-12.1484,-12.0898,-12.0586,-11.8906,-11.8281,-11.8281,-11.8281,-11.8281,-11.8281,-11.8281,-11.8281,-11.8398,-11.8281,-11.8281,-11.8398,-11.8281,-11.8281,-11.8281,-11.8398,-11.8984,-11.9609,-11.9804,-12.1914,-12.3593,-12.3593,-12.4883,-12.5508,-12.3906,-12.4297,-12.4492,-12.3711,-12.4297,-12.4804,-12.4883,-12.4883,-12.4883,-12.4883,-12.4101,-12.3593,-12.3593,-12.4297,-12.4804,-12.4883,-12.6406,-12.6914,-12.6093,-12.6914,-12.6484,-12.4883,-12.4883,-12.4883,-12.4883,-12.4883,-12.5312,-11.5715,-11.96,-12.3293,-12.6486,-12.8717,-13.041,-13.1487,-13.1179,-13.041,-12.9102,-12.7409,-12.5486,0.0,0.0,0.0,-12.5794,-12.8486,0.0,-13.2487,-13.2872,0.0,0.0,0.0,-12.6794,-12.5534,-12.5303,0.0,0.0,-13.018,-13.1086,-13.2879,-13.2996,-13.2985,-13.3007,-13.3203,-13.3281,-13.3086,-13.2695,-13.1992,-13.0898,-13.0195,-12.8984,-12.7304,-12.8008,-12.7812,-12.6992,-12.6992,-12.6914,-12.6601,-12.6015,-12.5586,-12.539,-12.539,-12.5,-12.4492,-12.4687,-12.4218,-12.3281,-12.1484,-12.0898,-12.0703,-11.9609,-11.8789,-11.8281,-11.8281,-11.8281,-11.8281,-11.8281,-11.8789,-11.9101,-11.8515,-11.8789,-11.9101,-11.8515,-11.8281,-11.8515,-11.9101,-11.9414,-12.0195,-12.2109,-12.4101,-12.539,-12.539,-12.5703,-12.5898,-12.539,-12.5586,-12.539,-12.4609,-12.4687,-12.5,-12.5586,-12.5703,-12.5703,-12.5703,-12.4883,-12.4492,-12.4492,-12.4687,-12.5117,-12.5703,-12.6718,-12.7187,-12.6992,-12.7812,-12.7383,-12.5703,-12.6289,-12.6289,-12.5703,-12.5703,-12.5781,-11.8407,-12.1985,-12.5101,-12.6909,-12.8717,-12.9794,-12.9102,-12.8909,-12.7986,-12.5216,-12.3485,0.0,0.0,0.0,0.0,0.0,0.0,0.0,-13.2603,-13.2987,-13.2295,0.0,-12.991,0.0,-12.7217,-12.7101,-12.7871,0.0,-12.9969,-13.0782,-13.2601,-13.2717,-13.2799,-13.3009,-13.2981,-13.31,-13.3306,-13.2996,-13.2383,-13.1484,-13.1211,-13.0312,-12.8984,-12.9492,-12.9492,-12.8984,-12.8593,-12.8203,-12.7812,-12.6914,-12.6289,-12.6015,-12.5586,-12.5195,-12.4804,-12.4804,-12.4218,-12.3398,-12.2812,-12.2109,-12.1289,-12.0,-11.9297,-11.8906,-11.8906,-11.8593,-11.8281,-11.8281,-11.8906,-11.9414,-11.8515,-11.9218,-11.9883,-11.8593,-11.8906,-11.9492,-11.9609,-12.0195,-12.1601,-12.4609,-12.6211,-12.7109,-12.7109,-12.75,-12.75,-12.6718,-12.6601,-12.6484,-12.6484,-12.6093,-12.5898,-12.6015,-12.6289,-12.6406,-12.6015,-12.5586,-12.5,-12.4297,-12.4609,-12.5,-12.5508,-12.6289,-12.6718,-12.6718,-12.8008,-12.7695,-12.6015,-12.6914,-12.6992,-12.6601,-12.6601,-12.6797,-12.0793,-12.3485,-12.5601,-12.6486,-12.7794,-12.8217,-12.5794,-12.5486,-12.4601,-12.06,0.0,0.0,-11.6099,0.0,-11.7907,-12.1985,0.0,-12.8179,-13.241,-13.2872,-13.2603,-13.191,-13.191,-13.1295,-12.9794,-12.9794,-13.0217,-13.091,-13.0614,-13.0998,-13.2538,-13.2615,-13.2615,-13.2615,-13.2717,-13.2717,-13.2717,-13.301,-13.2708,-13.1906,-13.2218,-13.1911,-13.1093,-13.1093,-13.1211,-13.1211,-13.0312,-12.9492,-12.8711,-12.7812,-12.6992,-12.6093,-12.539,-12.5,-12.4804,-12.4883,-12.4297,-12.3593,-12.4414,-12.3593,-12.2109,-12.0508,-11.9804,-11.9609,-11.9609,-11.8984,-11.8281,-11.8281,-11.8984,-11.9609,-11.8711,-11.9804,-12.0703,-11.8984,-11.9804,-12.0703,-12.0117,-12.1406,-12.3593,-12.6718,-12.8086,-12.8789,-12.8789,-12.9414,-12.9414,-12.789,-12.75,-12.7695,-12.8515,-12.7812,-12.7109,-12.6406,-12.6992,-12.7187,-12.6406,-12.6093,-12.539,-12.3906,-12.4297,-12.4687,-12.5,-12.5586,-12.6093,-12.6211,-12.7812,-12.7812,-12.6211,-12.7187,-12.7617,-12.7617,-12.7812,-12.8203,-12.1716,-12.3985,-12.5601,-12.6486,-12.6909,-12.6601,-12.4793,-12.2293,0.0,0.0,0.0,-11.3522,-11.2522,0.0,0.0,-12.1177,0.0,0.0,0.0,0.0,-13.2102,0.0,0.0,0.0,0.0,0.0,0.0,0.0,0.0,-13.2987,-13.191,-13.1872,-13.1987,-13.2295,-13.2618,-13.2674,-13.2674,-13.2783,-13.24,-13.1611,-13.1611,-13.1411,-13.0781,-13.0781,-13.0898,-13.1211,-13.0312,-12.9804,-12.9609,-12.8711,-12.789,-12.7109,-12.6914,-12.6015,-12.4883,-12.5508,-12.4804,-12.3515,-12.3711,-12.3515,-12.3086,-12.2109,-12.0781,-11.9609,-11.9609,-11.8984,-11.8281,-11.8281,-11.9414,-12.0508,-11.9609,-12.0703,-12.1718,-12.0703,-12.0703,-12.1093,-12.1601,-12.3593,-12.5703,-12.6992,-12.8593,-12.9687,-12.9687,-12.9804,-12.9804,-12.9492,-12.8789,-12.8398,-12.8593,-12.7812,-12.75,-12.8086,-12.8281,-12.8281,-12.8203,-12.6797,-12.5898,-12.5586,-12.4414,-12.4297,-12.5703,-12.5898,-12.6289,-12.7109,-12.8086,-12.8086,-12.7109,-12.8711,-12.9414,-12.9492,-13.0195,-13.0586,-12.0806,-12.3096,-12.4812,-12.5196,-12.5293,-12.4601,-12.1485,0.0,0.0,0.0,0.0,-11.1098,-11.0291,0.0,0.0,0.0,0.0,0.0,0.0,0.0,0.0,0.0,0.0,0.0,0.0,0.0,0.0,0.0,0.0,-13.3295,-13.241,-13.191,-13.1795,-13.1872,-13.2102,-13.2179,-13.2179,-13.2372,-13.2211,-13.1909,-13.1986,-13.2008,-13.1698,-13.1724,-13.158,-13.132,-13.0422,-12.9785,-12.9278,-12.838,-12.7795,-12.7405,-12.652,-12.5883,-12.5505,-12.4719,-12.4218,-12.3906,-12.3593,-12.3515,-12.3398,-12.3008,-12.1992,-12.1015,-12.1015,-12.0312,-11.9687,-11.9687,-12.0586,-12.1406,-12.0508,-12.1601,-12.25,-12.1211,-12.1601,-12.25,-12.3398,-12.5586,-12.7617,-12.8515,-13.0117,-13.1289,-13.1289,-13.1289,-13.1289,-13.1289,-13.0508,-13.0117,-13.0586,-12.9492,-12.8593,-12.8593,-12.8593,-12.8398,-12.8008,-12.7617,-12.6992,-12.6093,-12.5703,-12.5586,-12.6015,-12.6406,-12.6718,-12.6601,-12.789,-12.8398,-12.8008,-12.9297,-13.0117,-13.0586,-13.1015,-13.1211,-11.9315,-12.1324,-12.2892,-12.2774,-12.2588,-12.1399,-11.7297,-11.5591,0.0,0.0,-10.909,-10.8983,-10.8482,0.0,0.0,0.0,0.0,0.0,0.0,0.0,0.0,0.0,0.0,0.0,0.0,0.0,0.0,0.0,0.0,0.0,-13.2679,-13.2102,-13.1679,-13.1679,-13.1679,-13.1679,-13.1679,-13.1987,-13.2102,-13.2102,-13.2372,-13.2538,-13.2576,-13.2409,-13.2007,-13.1385,-13.0375,-12.9482,-12.8821,-12.7811,-12.7229,-12.6918,-12.5597,-12.5325,-12.5304,-12.3995,-12.3614,-12.3887,-12.3614,-12.3413,-12.3296,-12.3492,-12.3117,-12.2383,-12.2304,-12.1718,-12.1093,-12.1015,-12.1484,-12.1992,-12.1406,-12.25,-12.3515,-12.2304,-12.3203,-12.4609,-12.539,-12.7304,-12.9101,-13.0,-13.1406,-13.25,-13.25,-13.25,-13.2383,-13.2187,-13.1484,-13.1211,-13.1914,-13.0586,-12.9414,-12.8906,-12.8711,-12.8281,-12.7617,-12.8008,-12.7695,-12.6093,-12.6601,-12.6718,-12.6015,-12.6797,-12.7109,-12.6601,-12.789,-12.8593,-12.8593,-12.9687,-13.0508,-13.1211,-13.1601,-13.1797,-11.751,-11.8606,-11.9173,-11.8513,-11.7718,-11.6177,-11.2837,0.0,0.0,0.0,-10.5601,-10.579,-10.6521,-10.8098,-11.0598,0.0,0.0,0.0,0.0,0.0,0.0,0.0,0.0,0.0,0.0,0.0,0.0,0.0,0.0,0.0,-13.191,-13.1679,-13.1679,-13.1679,-13.1679,-13.1679,-13.1679,-13.1679,-13.1679,-13.1679,-13.1795,-13.1987,-13.2179,-13.1482,-13.1308,-13.1385,-12.9689,-12.8996,-12.8803,-12.7184,-12.6028,-12.5289,-12.5204,-12.421,-12.3022,-12.4421,-12.3996,-12.2823,-12.3485,-12.329,-12.2706,-12.3502,-12.3581,-12.3203,-12.2383,-12.2109,-12.1914,-12.1093,-12.1484,-12.2187,-12.2109,-12.3398,-12.4804,-12.539,-12.6289,-12.7187,-12.8086,-12.9101,-13.0,-13.0898,-13.1797,-13.25,-13.25,-13.25,-13.2187,-13.1406,-13.0586,-13.0,-13.0117,-12.9297,-12.8984,-12.9687,-12.9101,-12.8593,-12.8515,-12.7812,-12.6992,-12.6093,-12.6093,-12.6093,-12.6015,-12.6797,-12.7617,-12.8281,-12.8515,-12.8593,-12.8593,-13.0312,-13.1093,-13.1211,-13.2812,-13.3593,-11.401,-11.5619,-11.663,-11.6899,-11.5903,-11.4204,-11.1297,0.0,0.0,-10.4901,-10.4511,-10.4713,-10.5518,-10.6982,-10.9098,-11.1791,-11.3214,-11.5715,0.0,0.0,0.0,0.0,0.0,0.0,0.0,0.0,0.0,0.0,0.0,0.0,-13.1795,-13.1679,-13.1679,-13.1679,-13.1679,-13.1679,-13.1679,-13.1679,-13.1679,-13.1679,-13.1679,-13.1487,-13.1179,-13.0794,-13.0179,-12.9294,-12.8563,-12.8035,-12.7535,-12.6303,-12.587,-12.5986,-12.4909,-12.4409,-12.4178,-12.411,-12.3881,-12.3822,-12.3822,-12.3899,-12.4093,-12.4518,-12.4926,-12.4993,-12.4186,-12.409,-12.4218,-12.3789,-12.4101,-12.4609,-12.5117,-12.5781,-12.6289,-12.6015,-12.7109,-12.8203,-12.8515,-13.0117,-13.1601,-13.1914,-13.2695,-13.3086,-13.2617,-13.25,-13.2187,-13.1289,-13.0898,-13.0703,-13.0703,-12.9883,-12.9687,-13.0586,-12.9414,-12.8593,-12.8593,-12.8281,-12.789,-12.7617,-12.7617,-12.7617,-12.7617,-12.789,-12.8203,-12.8593,-12.8593,-12.8906,-12.9414,-13.0586,-13.1484,-13.1992,-13.3203,-13.3789,-11.0916,-11.2777,-11.4319,-11.4759,-11.382,-11.2022,0.0,0.0,-10.5084,-10.2999,-10.2706,-10.3109,-10.3914,-10.5383,-10.7121,-10.8787,-11.0214,-11.2599,-11.6792,0.0,0.0,0.0,0.0,0.0,0.0,0.0,0.0,0.0,0.0,0.0,-13.1679,-13.1487,-13.1487,-13.1679,-13.1679,-13.1679,-13.1679,-13.1487,-13.1295,-13.1295,-13.1102,-13.0679,-13.0102,-12.9794,-12.9102,-12.7909,-12.7602,-12.7101,-12.6294,-12.5678,-12.5601,-12.5794,-12.4909,-12.4716,-12.4909,-12.4225,-12.4062,-12.4409,-12.4293,-12.4486,-12.487,-12.537,-12.5794,-12.5897,-12.5395,-12.5521,-12.5792,-12.5488,-12.5582,-12.6103,-12.7498,-12.7695,-12.75,-12.7187,-12.8515,-12.9687,-12.9414,-13.1211,-13.289,-13.289,-13.3398,-13.3593,-13.3008,-13.2695,-13.2187,-13.1289,-13.1015,-13.0781,-13.0781,-13.0312,-13.0195,-13.1093,-12.9883,-12.8984,-12.8984,-12.8711,-12.8515,-12.8203,-12.8515,-12.8593,-12.8593,-12.8593,-12.8711,-12.8984,-12.8711,-12.8984,-12.9883,-13.0781,-13.1601,-13.25,-13.3398,-13.3789,-10.8577,-11.0597,-11.2176,-11.1478,-11.056,-10.9252,0.0,-10.4532,-10.2975,-9.9805,-9.9781,-10.0615,-10.1306,-10.2904,-10.4588,-10.6207,-10.8598,-11.1675,-11.5907,0.0,0.0,0.0,0.0,0.0,0.0,0.0,0.0,0.0,0.0,0.0,-13.1679,-13.091,-13.091,-13.1679,-13.1679,-13.1679,-13.1679,-13.091,-13.0487,-13.0487,-12.9602,-12.9217,-12.9217,-12.8294,-12.7909,-12.7909,-12.7101,-12.6178,-12.5409,-12.5409,-12.4909,-12.4216,-12.5101,-12.4909,-12.4216,-12.5101,-12.4793,-12.4216,-12.5101,-12.4793,-12.4409,-12.6101,-12.6101,-12.5409,-12.537,-12.5803,-12.6112,-12.5286,-12.5108,-12.5786,-12.8618,-12.8711,-12.8398,-12.9609,-13.1211,-13.2187,-13.1406,-13.25,-13.3789,-13.3789,-13.3789,-13.3789,-13.3789,-13.3086,-13.2187,-13.1289,-13.0508,-12.9883,-12.9883,-12.9883,-13.0195,-13.1093,-13.039,-12.9883,-12.9883,-12.9101,-12.8203,-12.7383,-12.8086,-12.8593,-12.8593,-12.8593,-12.8984,-12.9883,-12.8984,-12.8984,-12.9883,-13.0781,-13.1601,-13.25,-13.3398,-13.3789,-10.3724,-10.5093,-10.627,-10.4889,-10.4394,-10.3476,-10.0796,-9.9967,-9.9206,-9.7025,-9.7237,-9.8388,-10.0227,-10.1492,-10.3594,-10.7514,-10.879,-11.0406,0.0,0.0,0.0,0.0,0.0,0.0,0.0,0.0,0.0,0.0,0.0,0.0,-13.091,-13.0602,-13.091,-13.1679,-13.1179,-13.091,-13.091,-12.9987,-12.9602,-12.9602,-12.9294,-12.8909,-12.8294,-12.8025,-12.7294,-12.6217,-12.5909,-12.5293,-12.4486,-12.4486,-12.4716,-12.4986,-12.5293,-12.5216,-12.4986,-12.5293,-12.5216,-12.4986,-12.5293,-12.5601,-12.5986,-12.6486,-12.6486,-12.6178,-12.5601,-12.5678,-12.6005,-12.6016,-12.6795,-12.7804,-12.8104,-12.8604,-12.9101,-12.9492,-13.0586,-13.1718,-13.1992,-13.3008,-13.3789,-13.3789,-13.3789,-13.3593,-13.3008,-13.2695,-13.2187,-13.1289,-13.1015,-13.0781,-13.0781,-13.0781,-13.1093,-13.1992,-13.1289,-13.0781,-13.0781,-12.9414,-12.8711,-12.9101,-12.8789,-12.8593,-12.8593,-12.8593,-12.8711,-12.8984,-12.8711,-12.8984,-12.9883,-13.0781,-13.1992,-13.3398,-13.3711,-13.3789,0.0,-10.2572,-10.3485,-10.2202,-10.1714,-10.0826,-9.8415,-9.7676,-9.6948,-9.5318,-9.542,-9.634,-9.8064,-9.9081,-10.0906,-10.4616,-10.62,-10.7909,-11.0479,0.0,0.0,0.0,0.0,0.0,0.0,0.0,0.0,0.0,0.0,0.0,-12.9987,-12.9717,-12.991,-13.0718,-13.0602,-13.0294,-12.9987,-12.9102,-12.8717,-12.8717,-12.8409,-12.7986,-12.7409,-12.7409,-12.6717,-12.5409,-12.5409,-12.4716,0.0,-12.4293,-12.4716,-12.4986,-12.5601,-12.5909,-12.5909,-12.5909,-12.6101,-12.6294,-12.6294,-12.6717,-12.7178,-12.7178,-12.6717,-12.5986,-12.4793,-12.4986,-12.5794,-12.6409,-12.7294,-12.8102,-12.8305,-12.891,-12.9484,-12.9704,-13.0883,-13.1992,-13.2304,-13.3086,-13.3789,-13.3789,-13.3789,-13.3593,-13.3086,-13.2695,-13.2304,-13.1797,-13.1406,-13.1289,-13.1601,-13.1718,-13.1992,-13.289,-13.1914,-13.1289,-13.1718,-13.0117,-12.9218,-12.9414,-12.8906,-12.8711,-12.9101,-12.8789,-12.8789,-12.9101,-12.8789,-12.9218,-13.039,-13.1601,-13.2695,-13.3789,-13.3789,-13.3789,0.0,-10.189,-10.2812,-10.2136,-10.1444,-10.0303,-9.8095,-9.7134,0.0,-9.4559,-9.4264,-9.4482,-9.5306,-9.6136,-9.7279,-9.9235,-10.2105,-10.5102,0.0,0.0,0.0,0.0,0.0,0.0,0.0,0.0,0.0,0.0,0.0,0.0,-12.8986,-12.8294,-12.8217,-12.8909,-12.9717,-12.9794,-12.8986,-12.8217,-12.7717,-12.7717,-12.6986,-12.6601,-12.6678,-12.6678,-12.6178,-12.5293,-12.5293,-12.4409,-12.2908,-12.4601,-12.4793,-12.4293,-12.6101,-12.6794,-12.6794,-12.6794,-12.7294,-12.7909,-12.7794,-12.7794,-12.7794,-12.7794,-12.6717,-12.5101,-12.3485,-12.4101,-12.5601,-12.6294,-12.6601,-12.7101,-12.8997,-12.9498,-12.9589,-13.0112,-13.1616,-13.2804,-13.2184,-13.289,-13.3789,-13.3789,-13.3789,-13.3789,-13.3789,-13.3086,-13.2617,-13.2617,-13.1914,-13.1718,-13.25,-13.2617,-13.289,-13.3711,-13.2383,-13.1718,-13.2304,-13.0781,-12.9492,-12.8711,-12.8711,-12.9101,-12.9883,-12.9218,-12.9218,-13.0,-12.9297,-12.9687,-13.1289,-13.3008,-13.3789,-13.3789,-13.3789,-13.3789,-9.5054,0.0,-9.5996,-9.5291,-9.5418,-9.5585,0.0,-9.5292,-9.5183,0.0,0.0,-9.3956,-9.5945,-9.6476,-9.8138,-10.293,-10.4922,-10.6698,0.0,0.0,0.0,0.0,0.0,0.0,0.0,0.0,0.0,0.0,0.0,-12.7909,-12.7294,-12.7101,-12.6794,-12.6294,-12.6486,-12.6794,-12.7294,-12.6409,-12.5986,-12.5986,-12.5794,-12.6101,-12.6678,-12.6678,-12.5909,-12.4409,-12.4409,-12.3485,-12.1985,-12.3716,-12.4293,-12.4293,-12.6717,-12.7602,-12.7602,-12.7602,-12.7717,-12.7794,-12.7217,-12.6986,-12.6986,-12.6986,-12.6294,-12.5216,-12.4101,-12.4601,-12.5293,-12.4793,-12.5678,-12.6794,-12.7294,-12.7563,-12.8083,-12.9518,-13.0394,-13.1202,-13.2308,-13.2985,-13.3281,-13.3281,-13.3593,-13.3789,-13.3789,-13.3593,-13.3515,-13.3515,-13.3281,-13.3281,-13.3515,-13.3515,-13.3593,-13.3789,-13.3398,-13.2695,-13.1601,-12.9883,-12.9101,-12.9609,-12.9609,-12.9687,-12.9883,-13.0312,-13.0703,-13.0898,-13.1289,-13.1797,-13.2187,-13.3281,-13.3789,-13.3789,-13.3789,-13.3789,-9.2326,-9.3486,-9.4233,-9.3476,-9.3934,-9.4476,-9.4157,0.0,0.0,0.0,0.0,-9.3911,-9.5178,0.0,0.0,-10.11,-10.3428,0.0,0.0,0.0,0.0,0.0,0.0,0.0,0.0,0.0,0.0,0.0,0.0,-12.6794,-12.5601,-12.5486,-12.5293,-12.4793,-12.4793,-12.4986,-12.5486,-12.4986,-12.4793,-12.4793,-12.4793,-12.5101,-12.5486,-12.5486,-12.4793,-12.3524,-12.3524,-12.2985,-12.2293,-12.3601,-12.4601,-12.5486,-12.7217,-12.8102,-12.8409,-12.7602,-12.7602,-12.7717,-12.6101,-12.5486,-12.5409,-12.5101,-12.4909,-12.4601,-12.3793,-12.4409,-12.5216,-12.4293,-12.5409,-12.6678,-12.6678,-12.7101,-12.7678,-12.8602,-12.9717,-13.0789,-13.1676,-13.2503,-13.3014,-13.2985,-13.33,-13.3515,-13.3515,-13.3711,-13.3789,-13.3789,-13.3789,-13.3789,-13.3789,-13.3789,-13.3789,-13.3789,-13.3398,-13.2812,-13.1914,-13.0586,-12.9687,-12.9297,-12.9687,-12.9883,-12.9883,-13.0703,-13.1211,-13.1211,-13.2109,-13.25,-13.25,-13.3398,-13.3789,-13.3789,-13.3789,-13.3789,-9.1095,-9.3056,-9.4599,-9.3889,-9.4332,-9.4807,-9.42,0.0,0.0,0.0,0.0,0.0,0.0,0.0,0.0,0.0,0.0,0.0,0.0,0.0,0.0,0.0,0.0,0.0,0.0,0.0,0.0,0.0,0.0,-12.5601,-12.3985,-12.3909,-12.3909,-12.3716,-12.3716,-12.3716,-12.3485,-12.3793,-12.3909,-12.3909,-12.3909,-12.3985,-12.4101,-12.4101,-12.3716,-12.2908,-12.2908,0.0,-12.2793,-12.3716,-12.4986,-12.6409,-12.7486,-12.8409,-12.8794,-12.7294,-12.7101,-12.7409,-12.4909,-12.4101,-12.3985,-12.3293,-12.3524,-12.3909,-12.3101,-12.4101,-12.5216,-12.4293,-12.5409,-12.6678,-12.6909,-12.7409,-12.8025,-12.8217,-12.9602,-13.1025,-13.1102,-13.1872,-13.2597,-13.2605,-13.2876,-13.3093,-13.3203,-13.3515,-13.3711,-13.3789,-13.3789,-13.3789,-13.3789,-13.3789,-13.3789,-13.3789,-13.3086,-13.2617,-13.25,-13.1797,-13.0703,-12.9101,-12.9687,-13.0195,-13.0312,-13.1093,-13.1601,-13.1601,-13.2304,-13.2695,-13.2695,-13.3398,-13.3789,-13.3789,-13.3789,-13.3789,-9.1672,-9.3095,-9.371,-9.2909,-9.3331,-9.387,-9.3793,-9.433,0.0,0.0,0.0,0.0,0.0,0.0,0.0,0.0,0.0,0.0,0.0,0.0,0.0,0.0,0.0,0.0,0.0,0.0,0.0,0.0,0.0,-12.4101,-12.3101,-12.3101,-12.2716,-12.1985,-12.1985,-12.16,-12.0908,-12.2293,-12.3101,-12.3101,-12.3101,-12.3408,-12.4101,-12.4101,-12.3716,-12.2908,0.0,-12.2485,-12.1908,-12.3485,-12.4293,-12.4716,-12.7025,-12.8025,-12.7986,-12.6986,-12.6794,-12.6601,-12.4716,-12.4101,-12.4101,-12.3985,-12.3985,-12.3909,-12.3101,-12.4101,-12.5216,-12.4293,-12.5409,-12.6909,-12.7486,-12.7794,-12.8294,-12.9794,-13.0294,-13.0794,-13.141,-13.1987,-13.2318,-13.2319,-13.2502,-13.2895,-13.3183,-13.3281,-13.3398,-13.3711,-13.3789,-13.3789,-13.3789,-13.3789,-13.3789,-13.3789,-13.3711,-13.3281,-13.2617,-13.2383,-13.1914,-13.0898,-13.0898,-13.1289,-13.2109,-13.289,-13.3398,-13.3398,-13.3515,-13.3593,-13.3593,-13.3711,-13.3789,-13.3789,-13.3789,-13.3789,-9.0517,-9.2056,-9.3056,-9.3133,-9.4441,-9.5634,-9.5211,-9.5403,0.0,0.0,0.0,0.0,0.0,0.0,0.0,0.0,0.0,0.0,0.0,0.0,0.0,0.0,0.0,0.0,0.0,0.0,0.0,0.0,0.0,0.0,-12.2216,-12.2216,-12.1985,-12.16,-12.11,-12.0677,-12.0292,-12.0716,-12.0793,-12.0908,-12.1293,-12.1716,-12.21,-12.2485,-12.2793,-12.2908,0.0,-12.2485,-12.2985,-12.3793,-12.4409,-12.4986,-12.7101,-12.7909,-12.7717,-12.6486,-12.5101,-12.3793,-12.2985,-12.2716,-12.2716,-12.2716,-12.2716,-12.2793,-12.2908,-12.3716,-12.4716,-12.4793,-12.5678,-12.6794,-12.7178,-12.7602,-12.8102,-12.8909,-12.9794,-13.0602,-13.0987,-13.1487,-13.1872,-13.1872,-13.2179,-13.2489,-13.262,-13.282,-13.3111,-13.3397,-13.3515,-13.3593,-13.3789,-13.3789,-13.3789,-13.3789,-13.3789,-13.3593,-13.3203,-13.3203,-13.2617,-13.1289,-13.1211,-13.1601,-13.25,-13.289,-13.3281,-13.3789,-13.3789,-13.3789,-13.3789,-13.3789,-13.3789,-13.3789,-13.3789,-13.3789,-8.971,-9.1171,-9.2441,-9.3441,-9.5172,-9.6596,-9.6596,0.0,0.0,0.0,0.0,0.0,0.0,0.0,0.0,0.0,0.0,0.0,0.0,0.0,0.0,0.0,0.0,0.0,0.0,0.0,0.0,0.0,0.0,0.0,-12.11,-12.0985,-12.0985,-12.0985,-12.0408,-11.9908,-11.9715,-11.91,-11.8908,-11.91,-11.9715,-12.01,-12.0292,-12.1177,-12.21,-12.2908,-12.2216,-12.2601,-12.3793,-12.3985,-12.4409,-12.4986,-12.6717,-12.7101,-12.6601,-12.5293,-12.3485,-12.16,-12.16,-12.16,-12.16,-12.16,-12.16,-12.1677,-12.2408,-12.3216,-12.3985,-12.4909,-12.5678,-12.6486,-12.7101,-12.7909,-12.8602,-12.8717,-12.9794,-13.0794,-13.0794,-13.1295,-13.1679,-13.1679,-13.1872,-13.2102,-13.2179,-13.2411,-13.2722,-13.301,-13.311,-13.3216,-13.349,-13.3588,-13.3711,-13.3711,-13.3711,-13.3789,-13.3789,-13.3593,-13.289,-13.1601,-13.1289,-13.1484,-13.2187,-13.2383,-13.289,-13.3789,-13.3789,-13.3789,-13.3789,-13.3789,-13.3789,-13.3789,-13.3789,-13.3789,-9.0441,-9.121,-9.1672,-9.3287,-9.3826,0.0,-9.6903,-9.6826,0.0,0.0,0.0,0.0,0.0,0.0,0.0,0.0,0.0,0.0,0.0,0.0,0.0,0.0,0.0,0.0,0.0,0.0,0.0,0.0,0.0,0.0,-11.9292,-11.9292,-11.9292,-11.9292,-11.9215,-11.8792,-11.8023,-11.7907,-11.8292,-11.91,-11.9215,-11.96,-12.0292,-12.1177,-12.21,-12.2908,-12.2793,-12.2908,-12.3024,-12.3793,-12.3716,-12.3216,-12.4909,-12.4601,-12.3216,-12.3101,-12.2485,-12.16,-12.16,-12.16,-12.16,-12.16,-12.16,-12.16,-12.1677,-12.2293,-12.3216,-12.3985,-12.4793,-12.5986,-12.8409,-12.9717,-13.0487,-13.1218,-13.1487,-13.1602,-13.1602,-13.1679,-13.1679,-13.1679,-13.1679,-13.1795,-13.2102,-13.2203,-13.2301,-13.2704,-13.2701,-13.2691,-13.2808,-13.3092,-13.3203,-13.3203,-13.3593,-13.3789,-13.3789,-13.3086,-13.25,-13.2383,-13.1601,-13.1211,-13.1289,-13.2109,-13.289,-13.3789,-13.3789,-13.3789,-13.3789,-13.3789,-13.3789,-13.3789,-13.3789,-13.3789,-8.9094,-9.0017,-9.0941,-9.3133,0.0,0.0,0.0,0.0,0.0,0.0,0.0,0.0,0.0,0.0,0.0,0.0,0.0,0.0,0.0,0.0,0.0,0.0,0.0,0.0,0.0,0.0,0.0,0.0,0.0,0.0,-11.91,-11.91,-11.91,-11.91,-11.86,-11.81,-11.7792,-11.7292,-11.7176,-11.7484,-11.7984,-11.8715,-11.96,-12.0408,-12.16,-12.2908,-12.2293,-12.2408,-12.2908,-12.3216,-12.2908,-12.2216,-12.3408,-12.3485,-12.2908,-12.2908,-12.2293,-12.16,-12.16,-12.16,-12.16,-12.16,-12.16,-12.16,-12.16,-12.2216,-12.3101,-12.3909,-12.5486,-12.7217,-12.8102,-12.8986,-12.991,-13.0794,-13.1295,-13.1679,-13.1679,-13.1679,-13.1679,-13.1679,-13.1679,-13.1679,-13.1872,-13.1872,-13.1987,-13.2295,-13.2418,-13.2484,-13.2678,-13.2792,-13.3003,-13.3198,-13.3593,-13.3789,-13.3789,-13.3008,-13.25,-13.25,-13.1718,-13.1406,-13.1992,-13.2304,-13.289,-13.3789,-13.3789,-13.3789,-13.3789,-13.3789,-13.3789,-13.3789,-13.3789,-13.3789,-8.8363,-8.9286,-9.0441,0.0,0.0,0.0,0.0,0.0,0.0,0.0,0.0,0.0,0.0,0.0,0.0,0.0,0.0,0.0,0.0,0.0,0.0,0.0,0.0,0.0,0.0,0.0,0.0,0.0,0.0,0.0,-11.8292,-11.8292,-11.8292,-11.8292,-11.7715,-11.7407,-11.7407,-11.6792,-11.6484,-11.6484,-11.71,-11.7984,-11.91,-12.0216,-12.1485,-12.2908,-12.2293,-12.2293,-12.2908,-12.2908,-12.2408,-12.1677,-12.2293,-12.2293,-12.21,-12.2408,-12.21,-12.16,-12.16,-12.16,-12.16,-12.16,-12.16,-12.16,-12.16,-12.1985,-12.2793,-12.4101,-12.5794,-12.7409,-12.8409,-12.941,-13.0102,-13.0718,-13.1295,-13.1679,-13.1679,-13.1679,-13.1679,-13.1679,-13.1679,-13.1679,-13.1679,-13.1679,-13.1795,-13.1987,-13.1987,-13.2102,-13.2372,-13.2538,-13.2721,-13.3191,-13.3593,-13.3789,-13.3789,-13.3008,-13.2617,-13.289,-13.2109,-13.1914,-13.25,-13.25,-13.289,-13.3789,-13.3789,-13.3789,-13.3789,-13.3789,-13.3789,-13.3789,-13.3789,-13.3789,-8.8671,-8.9248,0.0,0.0,0.0,0.0,0.0,0.0,0.0,0.0,0.0,0.0,0.0,0.0,0.0,0.0,0.0,0.0,0.0,0.0,0.0,0.0,0.0,0.0,0.0,0.0,0.0,0.0,0.0,-11.6484,-11.6484,-11.6484,-11.6484,-11.6484,-11.6484,-11.6484,-11.6484,-11.6484,-11.6484,-11.6484,-11.6484,-11.7407,-11.91,-12.0793,-12.1985,-12.2908,-12.2908,-12.2908,-12.2908,-12.2908,-12.2408,-12.16,-12.16,-12.0985,-12.0408,-12.1293,-12.16,-12.16,-12.16,-12.16,-12.16,-12.16,-12.16,-12.16,-12.16,-12.16,-12.21,-12.4678,-12.5409,-12.6217,-12.9602,-13.1102,-13.1679,-13.1679,-13.1679,-13.1679,-13.1679,-13.1679,-13.1679,-13.1679,-13.1679,-13.1679,-13.1679,-13.1679,-13.1679,-13.1679,-13.1679,-13.1679,-13.1679,-13.1987,-13.2527,-13.3113,-13.3593,-13.3789,-13.3789,-13.3008,-13.289,-13.3711,-13.3008,-13.25,-13.25,-13.25,-13.289,-13.3789,-13.3789,-13.3789,-13.3789,-13.3789,-13.3789,-13.3789,-13.3789,-13.3789,-8.7055,0.0,0.0,0.0,0.0,0.0,0.0,0.0,0.0,0.0,0.0,0.0,0.0,0.0,0.0,0.0,0.0,0.0,0.0,0.0,0.0,0.0,0.0,0.0,0.0,0.0,0.0,0.0,0.0,-11.6484,-11.6484,-11.6484,-11.6484,-11.6484,-11.6484,-11.6484,-11.6484,-11.6484,-11.6484,-11.6484,-11.71,-11.7715,-11.8215,-11.8715,-11.9408,-12.0216,-12.0216,-12.0216,-12.0216,-12.0216,-12.01,-11.9792,-11.9792,-11.9715,-11.9485,-11.9715,-12.0216,-12.0677,-12.0677,-12.11,-12.16,-12.16,-12.16,-12.16,-12.16,-12.1985,-12.2793,-12.4101,-12.5409,-12.6794,-12.8986,-13.0217,-13.0987,-13.1602,-13.1679,-13.1679,-13.1679,-13.1679,-13.1679,-13.1679,-13.1679,-13.1679,-13.1679,-13.1679,-13.1679,-13.1679,-13.1679,-13.1679,-13.1679,-13.2179,-13.2598,-13.28,-13.3399,-13.3789,-13.3789,-13.3593,-13.3515,-13.3789,-13.3593,-13.3398,-13.3398,-13.3398,-13.3515,-13.3789,-13.3789,-13.3789,-13.3789,-13.3789,-13.3789,-13.3789,-13.3789,-13.4101,0.0,0.0,0.0,0.0,0.0,0.0,0.0,0.0,0.0,0.0,0.0,0.0,0.0,0.0,0.0,0.0,0.0,0.0,0.0,0.0,0.0,0.0,0.0,0.0,0.0,0.0,0.0,0.0,-11.6484,-11.6484,-11.6484,-11.6484,-11.6484,-11.6484,-11.6484,-11.6484,-11.6484,-11.6484,-11.6484,-11.6484,-11.6984,-11.7292,-11.7292,-11.7984,-11.86,-11.91,-11.91,-11.91,-11.91,-11.91,-11.8908,-11.86,-11.8985,-11.8908,-11.86,-11.8985,-11.9408,-11.9908,-12.0216,-12.06,-12.11,-12.1485,-12.16,-12.16,-12.16,-12.2216,-12.3216,-12.4716,-12.6101,-12.7602,-12.9679,-13.0602,-13.1102,-13.1602,-13.1679,-13.1679,-13.1679,-13.1679,-13.1602,-13.1295,-13.1487,-13.1602,-13.1295,-13.1487,-13.1679,-13.1679,-13.1679,-13.1679,-13.1679,-13.2295,-13.2573,-13.2512,-13.3295,-13.3711,-13.3593,-13.3711,-13.3789,-13.3789,-13.3789,-13.3789,-13.3789,-13.3789,-13.3789,-13.3789,-13.3789,-13.3789,-13.3789,-13.3789,-13.3789,-13.3789,-13.3789,-13.4218,0.0,0.0,0.0,0.0,0.0,0.0,0.0,0.0,0.0,0.0,0.0,0.0,0.0,0.0,0.0,0.0,0.0,0.0,0.0,0.0,0.0,0.0,0.0,0.0,0.0,0.0,0.0,-11.6407,-11.6407,-11.6407,-11.6407,-11.6292,-11.6292,-11.6484,-11.6407,-11.6407,-11.6484,-11.6484,-11.6484,-11.6484,-11.6484,-11.6484,-11.6599,-11.81,-11.8908,-11.8908,-11.8908,-11.8908,-11.8908,-11.8908,-11.8407,-11.7792,-11.86,-11.8407,-11.7792,-11.8715,-11.8985,-11.9215,-11.9985,-12.0408,-12.0485,-12.1293,-12.16,-12.16,-12.16,-12.2293,-12.3485,-12.5794,-12.7101,-12.8294,-13.0718,-13.141,-13.141,-13.1487,-13.1602,-13.1679,-13.1602,-13.1602,-13.141,-13.0487,-13.0987,-13.1179,-13.0487,-13.1102,-13.1602,-13.1679,-13.1679,-13.1679,-13.1679,-13.2295,-13.2481,-13.2206,-13.3106,-13.3585,-13.3203,-13.3515,-13.3789,-13.3789,-13.3789,-13.3789,-13.3789,-13.3789,-13.3789,-13.3789,-13.3789,-13.3789,-13.3789,-13.3789,-13.3789,-13.3789,-13.3789,-13.4297,0.0,0.0,0.0,0.0,0.0,0.0,0.0,0.0,0.0,0.0,0.0,0.0,0.0,0.0,0.0,0.0,0.0,0.0,0.0,0.0,0.0,0.0,0.0,0.0,0.0,0.0,-11.6176,-11.5599,-11.5599,-11.5599,-11.5599,-11.4907,-11.5099,-11.6484,-11.5907,-11.5907,-11.6484,-11.6484,-11.6484,-11.6484,-11.6484,-11.6484,-11.6484,-11.6907,-11.71,-11.71,-11.71,-11.71,-11.71,-11.71,-11.6907,-11.6792,-11.6984,-11.6907,-11.6907,-11.7792,-11.8484,-11.9215,-11.9985,-12.0716,-12.1408,-12.1485,-12.16,-12.16,-12.16,-12.2601,-12.3985,-12.4486,-12.5794,-12.7217,-12.8409,-12.8717,-12.8909,-12.9602,-13.0718,-13.1487,-13.091,-13.0794,-13.0487,-12.9602,-12.9602,-12.9717,-12.9487,-13.0217,-13.0987,-13.1602,-13.1679,-13.1679,-13.1679,-13.2102,-13.2288,-13.2206,-13.2604,-13.2999,-13.3198,-13.3281,-13.3515,-13.3789,-13.3789,-13.3789,-13.3789,-13.3789,-13.3789,-13.3789,-13.3789,-13.3789,-13.3789,-13.3789,-13.3789,-13.3789,-13.3789,-13.4609,0.0,0.0,0.0,0.0,0.0,0.0,0.0,0.0,0.0,0.0,0.0,0.0,0.0,0.0,0.0,0.0,0.0,0.0,0.0,0.0,0.0,0.0,0.0,0.0,0.0,-11.5291,-11.5099,-11.4714,-11.4714,-11.4714,-11.4714,-11.4214,-11.4407,-11.5291,-11.4907,-11.4907,-11.5291,-11.5676,-11.5676,-11.5291,-11.6099,-11.6484,-11.6484,-11.6484,-11.6484,-11.6484,-11.6484,-11.6484,-11.6484,-11.6484,-11.6484,-11.6484,-11.6484,-11.6484,-11.6599,-11.6984,-11.7484,-11.7984,-11.9292,-11.9985,-12.0485,-12.1293,-12.16,-12.1677,-12.21,-12.3101,-12.4293,-12.5101,-12.6294,-12.7486,-12.8294,-12.8525,-12.8602,-12.9102,-13.0217,-13.091,-13.0102,-13.0217,-13.0102,-12.8794,-12.8909,-12.9102,-12.8602,-12.9602,-13.0794,-13.1602,-13.1679,-13.1679,-13.1679,-13.1987,-13.2108,-13.2014,-13.2396,-13.2706,-13.2709,-13.2894,-13.3088,-13.3284,-13.3284,-13.3284,-13.3284,-13.3284,-13.3384,-13.3789,-13.3593,-13.3593,-13.3789,-13.3789,-13.3789,-13.3789,-13.3789,-13.4687,0.0,0.0,0.0,0.0,0.0,0.0,0.0,0.0,0.0,0.0,0.0,0.0,0.0,0.0,0.0,0.0,0.0,0.0,0.0,0.0,0.0,0.0,0.0,0.0,-11.4099,-11.3984,-11.3907,-11.3791,-11.3791,-11.3714,-11.3599,-11.3599,-11.3599,-11.3791,-11.3791,-11.3791,-11.3984,-11.4714,-11.4714,-11.3984,-11.5407,-11.6176,-11.6484,-11.6407,-11.6407,-11.6484,-11.6484,-11.6484,-11.6484,-11.6484,-11.6484,-11.6484,-11.6484,-11.6484,-11.6484,-11.6676,-11.6792,-11.7176,-11.8792,-11.9408,-11.9792,-12.11,-12.16,-12.1677,-12.2485,-12.3293,-12.4409,-12.5794,-12.6909,-12.7909,-12.8602,-12.8794,-12.8794,-12.8794,-12.941,-12.991,-12.9102,-12.9487,-12.9602,-12.7986,-12.8294,-12.8602,-12.8025,-12.9102,-13.0294,-13.1102,-13.141,-13.1487,-13.1487,-13.1872,-13.1987,-13.1679,-13.2179,-13.2372,-13.2179,-13.2489,-13.2581,-13.2697,-13.2697,-13.2697,-13.2697,-13.2581,-13.2909,-13.3609,-13.3294,-13.3304,-13.3617,-13.3709,-13.3711,-13.3711,-13.3906,-13.4804,0.0,0.0,0.0,0.0,0.0,0.0,0.0,0.0,0.0,0.0,0.0,0.0,0.0,0.0,0.0,0.0,0.0,0.0,0.0,0.0,0.0,0.0,0.0,-11.4099,-11.3984,-11.3984,-11.3714,-11.2906,-11.2906,-11.2599,-11.1906,-11.1791,-11.2214,-11.2906,-11.2906,-11.3214,-11.3984,-11.4099,-11.4099,-11.3984,-11.4214,-11.5099,-11.6484,-11.5792,-11.5792,-11.6484,-11.6484,-11.6484,-11.6484,-11.6484,-11.6484,-11.6484,-11.6484,-11.6484,-11.6599,-11.7292,-11.81,-11.8908,-11.9792,-12.06,-12.1293,-12.1485,-12.16,-12.16,-12.1677,-12.2908,-12.4101,-12.4409,-12.5601,-12.6909,-12.6986,-12.6986,-12.6986,-12.6986,-12.7717,-12.8217,-12.8102,-12.8217,-12.7986,-12.6986,-12.6986,-12.7217,-12.7794,-12.8102,-12.8525,-12.941,-13.0217,-13.0679,-13.0679,-13.1295,-13.1679,-13.1679,-13.1795,-13.1872,-13.2179,-13.2224,-13.2396,-13.2704,-13.2704,-13.2704,-13.2704,-13.2396,-13.2366,-13.2778,-13.2805,-13.2776,-13.2776,-13.3086,-13.3281,-13.3281,-13.4414,-13.539,0.0,0.0,0.0,0.0,0.0,0.0,0.0,0.0,0.0,0.0,0.0,0.0,0.0,0.0,0.0,0.0,0.0,0.0,0.0,0.0,0.0,0.0,-11.3291,-11.2906,-11.1983,-11.1906,-11.1483,-11.0598,-11.0598,-11.0406,-11.0098,-11.0021,-11.0406,-11.1291,-11.1291,-11.1714,-11.2599,-11.3022,-11.3483,-11.3984,-11.3483,-11.3907,-11.5099,-11.4714,-11.5291,-11.6484,-11.6484,-11.6484,-11.6484,-11.6484,-11.6484,-11.6484,-11.6484,-11.6484,-11.6484,-11.6907,-11.76,-11.8484,-11.9292,-12.0216,-12.0985,-12.1408,-12.16,-12.1677,-12.2216,-12.3216,-12.4216,-12.4716,-12.5409,-12.6101,-12.6601,-12.6294,-12.6101,-12.6601,-12.6986,-12.7217,-12.7217,-12.7602,-12.7717,-12.6909,-12.6678,-12.6986,-12.7794,-12.7909,-12.8217,-12.9102,-12.991,-13.0487,-13.0487,-13.1179,-13.1679,-13.1679,-13.1679,-13.1795,-13.1872,-13.1872,-13.1987,-13.2102,-13.2102,-13.2102,-13.2102,-13.1987,-13.1987,-13.2102,-13.2319,-13.2528,-13.2722,-13.2799,-13.3014,-13.3203,-13.3711,-13.4804,0.0,0.0,0.0,0.0,0.0,0.0,0.0,0.0,0.0,0.0,0.0,0.0,0.0,0.0,0.0,0.0,0.0,0.0,0.0,0.0,0.0,0.0,-11.1714,-11.1214,-10.9983,-10.9906,-10.9598,-10.8906,-10.8906,-10.879,-10.8598,-10.879,-10.9098,-10.9598,-10.979,-11.0214,-11.0791,-11.1406,-11.2291,-11.3407,-11.2483,-11.2714,-11.3984,-11.3791,-11.4484,-11.5907,-11.5907,-11.5984,-11.6176,-11.6176,-11.6292,-11.6484,-11.6484,-11.6484,-11.6484,-11.6715,-11.7407,-11.8292,-11.91,-11.9908,-12.0716,-12.1408,-12.16,-12.1793,-12.2601,-12.3485,-12.4293,-12.5178,-12.5601,-12.5909,-12.6486,-12.6178,-12.5909,-12.6486,-12.6678,-12.6678,-12.6678,-12.7217,-12.7409,-12.6794,-12.6678,-12.6909,-12.7486,-12.7602,-12.7909,-12.8717,-12.9602,-13.0217,-13.0487,-13.1179,-13.1679,-13.1679,-13.1679,-13.1679,-13.1679,-13.1679,-13.1679,-13.1679,-13.1679,-13.1679,-13.1679,-13.1679,-13.1679,-13.1679,-13.1872,-13.2179,-13.2372,-13.2538,-13.2721,-13.2998,-13.3309,-13.4414,0.0,0.0,0.0,0.0,0.0,0.0,0.0,0.0,0.0,0.0,0.0,0.0,0.0,0.0,0.0,0.0,0.0,0.0,0.0,0.0,0.0,-10.9098,-10.9098,-10.9098,-10.8983,-10.8983,-10.8906,-10.8906,-10.8906,-10.8598,-10.779,-10.8482,-10.8598,-10.7905,-10.8598,-10.8983,-10.8983,-10.9098,-10.9906,-11.1598,-11.0714,-11.1598,-11.3984,-11.3099,-11.3291,-11.4099,-11.4099,-11.4599,-11.5407,-11.5407,-11.5792,-11.6484,-11.6484,-11.6484,-11.6599,-11.7407,-11.8292,-11.91,-11.9985,-12.0793,-12.1485,-12.16,-12.16,-12.1793,-12.2601,-12.3485,-12.4293,-12.5178,-12.5986,-12.6601,-12.6678,-12.6678,-12.6601,-12.6678,-12.6678,-12.6678,-12.6678,-12.6678,-12.6794,-12.6678,-12.6678,-12.6678,-12.6794,-12.6794,-12.6986,-12.7794,-12.8717,-12.9602,-13.041,-13.1179,-13.1679,-13.1679,-13.1679,-13.1679,-13.1679,-13.1679,-13.1679,-13.1679,-13.1679,-13.1679,-13.1679,-13.1679,-13.1679,-13.1679,-13.1679,-13.1679,-13.1795,-13.2102,-13.2203,-13.2319,-13.38,-13.4492,0.0,0.0,0.0,0.0,0.0,0.0,0.0,0.0,0.0,0.0,0.0,0.0,0.0,0.0,0.0,0.0,0.0,0.0,0.0,0.0,0.0,-10.8906,-10.8906,-10.8713,-10.8213,-10.8098,-10.7905,-10.729,-10.729,-10.7213,-10.6905,-10.7098,-10.7405,-10.7713,-10.8482,-10.9406,-11.0598,-11.0598,-11.0906,-11.1522,-11.1214,-11.1522,-11.2406,-11.2099,-11.2099,-11.2406,-11.2406,-11.3483,-11.5291,-11.5291,-11.5792,-11.6484,-11.6484,-11.6484,-11.6484,-11.6907,-11.7907,-11.91,-11.9408,-12.0408,-12.16,-12.16,-12.16,-12.1677,-12.1985,-12.2716,-12.3485,-12.4293,-12.4793,-12.5293,-12.6409,-12.6294,-12.5986,-12.6601,-12.6678,-12.6678,-12.6678,-12.6678,-12.6678,-12.6678,-12.6678,-12.6678,-12.6678,-12.7101,-12.7602,-12.7909,-12.9102,-13.0102,-13.0487,-13.1179,-13.1679,-13.1679,-13.1679,-13.1679,-13.1679,-13.1679,-13.1679,-13.1679,-13.1679,-13.1679,-13.1679,-13.1679,-13.1679,-13.1679,-13.1679,-13.1679,-13.1679,-13.1795,-13.1987,-13.2191,-13.2799,-13.391,-7.9438,0.0,0.0,0.0,0.0,0.0,0.0,0.0,0.0,0.0,0.0,0.0,0.0,0.0,0.0,0.0,0.0,0.0,0.0,0.0,-10.8406,-10.8098,-10.829,-10.8213,-10.729,-10.729,-10.7021,-10.6405,-10.6405,-10.6405,-10.6405,-10.6405,-10.6713,-10.7213,-10.779,-10.879,-11.0214,-11.0214,-11.0521,-11.1098,-11.1098,-11.1214,-11.1522,-11.1522,-11.1522,-11.1522,-11.1522,-11.2791,-11.4907,-11.4907,-11.5484,-11.6484,-11.6484,-11.6484,-11.6484,-11.6792,-11.7907,-11.91,-11.9408,-12.0408,-12.16,-12.16,-12.1793,-12.1985,-12.1985,-12.2601,-12.3485,-12.4293,-12.4486,-12.4909,-12.6294,-12.6294,-12.5986,-12.6601,-12.6678,-12.6678,-12.6678,-12.6678,-12.6678,-12.6678,-12.6678,-12.6678,-12.6678,-12.7409,-12.8025,-12.8294,-12.9602,-13.0602,-13.091,-13.141,-13.1679,-13.1679,-13.1679,-13.1679,-13.1679,-13.1679,-13.1679,-13.1679,-13.1679,-13.1679,-13.1679,-13.1679,-13.1679,-13.1679,-13.1679,-13.1679,-13.1679,-13.1679,-13.1795,-13.1987,-13.2372,-13.3877,0.0,0.0,0.0,0.0,0.0,0.0,0.0,0.0,0.0,0.0,0.0,0.0,0.0,0.0,0.0,0.0,0.0,0.0,0.0,0.0,-10.729,-10.6521,-10.7098,-10.729,-10.6521,-10.6405,-10.6405,-10.6405,-10.6405,-10.6405,-10.6405,-10.6405,-10.6405,-10.6405,-10.6405,-10.6905,-10.7713,-10.7713,-10.8598,-11.0214,-11.0214,-11.0714,-11.1522,-11.1522,-11.1522,-11.1522,-11.1522,-11.2483,-11.3984,-11.3984,-11.4984,-11.6484,-11.6484,-11.6484,-11.6599,-11.7407,-11.8292,-11.9215,-11.9985,-12.0908,-12.16,-12.16,-12.2216,-12.2908,-12.2908,-12.3408,-12.4216,-12.5101,-12.5409,-12.5601,-12.6486,-12.6678,-12.6678,-12.6678,-12.6678,-12.6678,-12.6678,-12.6678,-12.6678,-12.6678,-12.6678,-12.6678,-12.6678,-12.7409,-12.8217,-12.9102,-12.9987,-13.0794,-13.1602,-13.1679,-13.1679,-13.1679,-13.1679,-13.1679,-13.1679,-13.1679,-13.1679,-13.1679,-13.1679,-13.1679,-13.1679,-13.1679,-13.1679,-13.1679,-13.1679,-13.1679,-13.1679,-13.1679,-13.1679,-13.1679,-13.2987,-13.4608,-7.7053,0.0,0.0,0.0,0.0,0.0,0.0,0.0,0.0,0.0,0.0,0.0,0.0,0.0,0.0,0.0,0.0,0.0,0.0,0.0,-10.6713,-10.6405,-10.6597,-10.6713,-10.6405,-10.6405,-10.6405,0.0,-10.6405,-10.6405,-10.6405,-10.6405,-10.6713,-10.729,-10.729,-10.7713,-10.8598,-10.8598,-10.9098,-11.0214,-11.0214,-11.0714,-11.1522,-11.1522,-11.1522,-11.1522,-11.1522,-11.2483,-11.3984,-11.3984,-11.4984,-11.6484,-11.6484,-11.6484,-11.6484,-11.6792,-11.7792,-11.91,-11.9408,-12.0408,-12.16,-12.16,-12.1793,-12.1985,-12.1985,-12.2601,-12.3408,-12.4216,-12.4909,-12.5601,-12.6486,-12.6678,-12.6678,-12.6678,-12.6678,-12.6678,-12.6678,-12.6678,-12.6678,-12.6678,-12.6678,-12.6909,-12.7486,-12.8294,-12.9102,-12.9987,-13.0794,-13.141,-13.1679,-13.1679,-13.1679,-13.1679,-13.1679,-13.1679,-13.1679,-13.1679,-13.1679,-13.1679,-13.1679,-13.1679,-13.1679,-13.1679,-13.1679,-13.1679,-13.1679,-13.1679,-13.1679,-13.2295,-13.2295,-13.1679,-13.3603,-13.5113,-7.7246,-7.8784,-8.0631,-8.1823,0.0,0.0,0.0,0.0,0.0,0.0,0.0,0.0,0.0,0.0,0.0,0.0,0.0,0.0,0.0,-10.6713,-10.679,-10.6405,-10.6713,-10.679,-10.6405,-10.6405,-10.6405,-10.6405,-10.6405,-10.6405,-10.6405,-10.6405,-10.6597,-10.7098,-10.7213,-10.7598,-10.8406,-10.8406,-10.8983,-11.0214,-11.0214,-11.0714,-11.1522,-11.1522,-11.1522,-11.1522,-11.1522,-11.2483,-11.3984,-11.3984,-11.4984,-11.6484,-11.6484,-11.6484,-11.6484,-11.6484,-11.76,-11.91,-11.91,-12.0216,-12.16,-12.16,-12.1793,-12.21,-12.21,-12.2485,-12.3101,-12.3909,-12.4716,-12.5601,-12.6486,-12.6678,-12.6678,-12.6678,-12.6678,-12.6678,-12.6678,-12.6678,-12.6678,-12.6678,-12.6986,-12.7294,-12.7794,-12.8909,-12.991,-13.041,-13.1179,-13.1679,-13.1679,-13.1679,-13.1679,-13.1679,-13.1679,-13.1679,-13.1679,-13.1679,-13.1679,-13.1679,-13.1679,-13.1679,-13.1679,-13.1679,-13.1679,-13.1679,-13.1679,-13.191,-13.2179,-13.241,-13.241,-13.2295,-13.391,-13.4988,-7.7707,-7.9285,-8.1477,-8.2939,-8.2401,0.0,-8.8786,-8.8479,0.0,0.0,0.0,0.0,0.0,0.0,0.0,0.0,0.0,0.0,0.0,-10.7098,-10.729,-10.6521,-10.7098,-10.729,-10.6521,-10.6405,-10.6405,-10.6405,-10.6405,-10.6405,-10.6405,-10.6405,-10.6405,-10.6521,-10.6521,-10.679,-10.7713,-10.7598,-10.8406,-11.0098,-11.0098,-11.0598,-11.1522,-11.1522,-11.1522,-11.1522,-11.1522,-11.2483,-11.3984,-11.3984,-11.4984,-11.6484,-11.6484,-11.6484,-11.6484,-11.6599,-11.7677,-11.91,-11.9215,-12.0292,-12.16,-12.16,-12.21,-12.2793,-12.2908,-12.2908,-12.3101,-12.3909,-12.4716,-12.5601,-12.6409,-12.6601,-12.6601,-12.6678,-12.6678,-12.6678,-12.6678,-12.6794,-12.6794,-12.6794,-12.7409,-12.8025,-12.8217,-12.9487,-13.0487,-13.0602,-13.1179,-13.1679,-13.1679,-13.1679,-13.1679,-13.1679,-13.1679,-13.1679,-13.1679,-13.1679,-13.1679,-13.1679,-13.1679,-13.1679,-13.1679,-13.1679,-13.1679,-13.1679,-13.1679,-13.2102,-13.2872,-13.2102,-13.2179,-13.3295,-13.3987,-13.4795,-7.8977,-8.0208,-8.117,-8.1516,-8.2862,0.0,-8.3247,-8.3708,0.0,0.0,0.0,0.0,0.0,0.0,0.0,0.0,0.0,0.0,0.0,-10.6521,-10.6597,-10.6405,-10.6597,-10.6597,-10.6405,-10.6405,-10.6405,-10.6405,-10.6405,-10.6405,-10.6405,-10.6405,-10.6713,-10.7405,-10.679,-10.679,-10.7713,-10.7021,-10.7521,-10.9213,-10.9213,-10.9983,-11.1522,-11.1522,-11.1522,-11.1522,-11.1522,-11.2483,-11.3984,-11.3984,-11.4984,-11.6484,-11.6484,-11.6484,-11.6599,-11.7292,-11.8215,-11.9215,-11.9792,-12.0716,-12.16,-12.16,-12.1677,-12.1985,-12.2716,-12.2908,-12.3101,-12.3909,-12.4716,-12.5409,-12.5601,-12.5678,-12.5794,-12.6486,-12.6678,-12.6678,-12.6678,-12.7217,-12.7717,-12.7717,-12.7794,-12.8294,-12.9794,-13.0294,-13.0718,-13.141,-13.1602,-13.1679,-13.1679,-13.1679,-13.1679,-13.1679,-13.1679,-13.1679,-13.1679,-13.1679,-13.1679,-13.1679,-13.1679,-13.1679,-13.1679,-13.1679,-13.1679,-13.1679,-13.1679,-13.1795,-13.1987,-13.1795,-13.2795,-13.4988,-13.4487,-13.5103,-7.9939,-8.0439,-8.1285,-8.2131,-8.267,0.0,0.0,-8.3593,0.0,0.0,0.0,0.0,0.0,0.0,0.0,0.0,0.0,0.0,0.0,-10.4713,-10.579,-10.579,-10.5405,-10.529,-10.5713,-10.5405,-10.5213,-10.5213,-10.5213,-10.529,-10.5713,-10.579,-10.6213,-10.7021,-10.6597,-10.6597,-10.7021,-10.7021,-10.7713,-10.8906,-10.929,-11.0214,-11.1522,-11.1522,-11.1522,-11.1522,-11.1906,-11.2791,-11.3984,-11.4484,-11.5407,-11.6484,-11.6484,-11.6484,-11.6599,-11.6984,-11.7984,-11.9215,-11.96,-12.0485,-12.16,-12.16,-12.1908,-12.2408,-12.3216,-12.3793,-12.4216,-12.4601,-12.5101,-12.5486,-12.5909,-12.5986,-12.6178,-12.6601,-12.6678,-12.6794,-12.7217,-12.7602,-12.8217,-12.8986,-12.9217,-12.9487,-13.0294,-13.0794,-13.1179,-13.1602,-13.1679,-13.1679,-13.1679,-13.1679,-13.1679,-13.1679,-13.1679,-13.1679,-13.1679,-13.1679,-13.1679,-13.1679,-13.1679,-13.1679,-13.1679,-13.1679,-13.1679,-13.1679,-13.2102,-13.2102,-13.1679,-13.2102,-13.2987,-13.4295,-13.4295,-13.4988,-8.1554,-8.1785,-8.2708,-8.3439,-8.3093,-8.3016,0.0,0.0,0.0,0.0,0.0,0.0,0.0,0.0,0.0,0.0,0.0,0.0,0.0,-10.1096,0.0,-10.4097,-10.3789,-10.3905,-10.4597,-10.3712,-10.3405,-10.3905,-10.3405,-10.3712,-10.4982,-10.5097,-10.5597,-10.6597,-10.6713,-10.6713,-10.6713,-10.7521,-10.829,-10.8906,-10.979,-11.0714,-11.1522,-11.1522,-11.1522,-11.1522,-11.2214,-11.3099,-11.4099,-11.4791,-11.5599,-11.6484,-11.6484,-11.6484,-11.6484,-11.6676,-11.76,-11.8908,-11.9215,-12.0216,-12.1408,-12.1677,-12.2408,-12.3216,-12.3716,-12.4601,-12.5293,-12.4986,-12.5178,-12.5601,-12.6294,-12.6409,-12.6486,-12.6678,-12.6794,-12.7101,-12.7794,-12.8217,-12.8794,-13.0217,-13.0602,-13.0718,-13.0718,-13.1295,-13.1679,-13.1679,-13.1679,-13.1679,-13.1679,-13.1679,-13.1679,-13.1679,-13.1679,-13.1679,-13.1679,-13.1679,-13.1679,-13.1679,-13.1679,-13.1679,-13.1679,-13.1679,-13.1795,-13.191,-13.2487,-13.241,-13.1679,-13.241,-13.291,-13.3295,-13.3987,-13.4795,-8.5478,-8.6594,-8.7132,-8.4286,-8.5747,-8.6748,-8.2593,0.0,-8.3247,-8.2054,0.0,0.0,0.0,0.0,0.0,0.0,0.0,0.0,-9.2172,-9.448,-9.725,-10.0289,-10.1904,-10.2789,-10.2904,-10.1481,-10.1481,-10.3712,-10.1789,-10.1904,-10.4905,-10.5097,-10.5905,-10.7521,-10.7598,-10.7598,-10.7598,-10.8406,-10.879,-10.8906,-10.979,-11.0714,-11.1522,-11.1522,-11.1522,-11.1522,-11.1598,-11.2522,-11.3984,-11.4099,-11.5099,-11.6484,-11.6484,-11.6484,-11.6599,-11.7407,-11.7792,-11.8215,-11.96,-12.0292,-12.0716,-12.2293,-12.3293,-12.3793,-12.3216,-12.4101,-12.5101,-12.3601,-12.4293,-12.5409,-12.5486,-12.5486,-12.5678,-12.6486,-12.7217,-12.7794,-12.7909,-12.9102,-13.0294,-13.0487,-13.1102,-13.1602,-13.1602,-13.1602,-13.1679,-13.1679,-13.1679,-13.1679,-13.1679,-13.1679,-13.1679,-13.1679,-13.1679,-13.1679,-13.1679,-13.1679,-13.1679,-13.1679,-13.1679,-13.1679,-13.1679,-13.1679,-13.2102,-13.2795,-13.2179,-13.1795,-13.1679,-13.1795,-13.2603,-13.4218,-13.4295,-13.5103,-8.6363,-8.7017,-8.7478,-8.5555,-8.5786,-8.5786,-8.3131,-8.2324,-8.1939,-8.1246,0.0,0.0,0.0,0.0,0.0,0.0,-8.6555,0.0,0.0,0.0,-9.4057,0.0,0.0,0.0,-9.9519,-9.9442,-9.9981,-10.1597,-9.975,-10.0096,-10.3482,-10.4097,-10.5213,-10.6905,-10.7405,-10.7482,-10.7021,-10.8713,-10.9213,-10.8213,-11.0098,-11.0906,-11.0791,-11.1291,-11.1522,-11.1598,-11.2522,-11.3291,-11.4099,-11.4984,-11.5907,-11.6484,-11.6484,-11.6484,-11.6484,-11.6907,-11.7407,-11.7907,-11.86,-11.9485,-12.06,-12.2293,-12.3101,-12.3408,-12.3601,-12.4409,-12.5293,-12.4486,-12.5216,-12.6178,-12.6178,-12.6178,-12.6409,-12.7217,-12.7717,-12.8217,-12.9217,-12.9987,-13.0602,-13.1102,-13.1487,-13.1679,-13.1679,-13.1679,-13.1679,-13.1679,-13.1679,-13.1679,-13.1679,-13.1679,-13.1679,-13.1679,-13.1679,-13.1679,-13.1679,-13.1679,-13.1679,-13.1679,-13.1679,-13.1679,-13.1679,-13.1679,-13.191,-13.2179,-13.241,-13.2179,-13.1679,-13.2179,-13.2795,-13.3603,-13.4103,-13.5218,-8.7979,-8.8286,-8.8632,-8.6594,-8.5824,-8.5132,-8.3324,-8.2516,-8.2054,-8.1823,-8.2324,0.0,0.0,0.0,-8.2939,-8.4324,0.0,-8.5978,0.0,-8.8094,0.0,0.0,0.0,0.0,0.0,-9.725,-9.7827,-9.9596,-9.748,-9.8019,-10.2404,-10.3212,-10.4405,-10.629,-10.7213,-10.729,-10.6405,-10.8713,-10.9098,-10.7713,-11.0021,-11.0791,-11.0214,-11.1098,-11.1598,-11.1906,-11.3099,-11.3907,-11.4484,-11.5676,-11.6292,-11.6484,-11.6484,-11.6484,-11.6484,-11.6484,-11.6907,-11.7484,-11.7715,-11.91,-12.0908,-12.2408,-12.2908,-12.3024,-12.3601,-12.4216,-12.4793,-12.4986,-12.5678,-12.6409,-12.6601,-12.6678,-12.6909,-12.7717,-12.8102,-12.8717,-13.0217,-13.0679,-13.091,-13.1295,-13.1487,-13.1602,-13.141,-13.1602,-13.1679,-13.1679,-13.1679,-13.1679,-13.1679,-13.1679,-13.1679,-13.1679,-13.1679,-13.1679,-13.1679,-13.1679,-13.1679,-13.1679,-13.1679,-13.1795,-13.1987,-13.1795,-13.1795,-13.2102,-13.241,-13.2295,-13.1679,-13.2295,-13.2795,-13.2987,-13.3603,-13.4795,-9.1479,-9.2249,-9.2326,-8.7325,-8.6709,-8.6247,-8.2131,-8.3054,-8.4555,-8.367,-8.5478,-8.694,-8.6094,-8.594,-8.544,-8.3901,-8.4362,0.0,0.0,-8.4324,0.0,0.0,0.0,0.0,0.0,-9.4595,-9.4403,-9.8519,-9.498,-9.5557,-10.2212,-10.2597,-10.3789,-10.629,-10.7213,-10.729,-10.6405,-10.8098,-10.8482,-10.7713,-10.9406,-11.0214,-11.0214,-11.1098,-11.1906,-11.2714,-11.2714,-11.3714,-11.5291,-11.5291,-11.5792,-11.6484,-11.6484,-11.6484,-11.6484,-11.6484,-11.6484,-11.6676,-11.7484,-11.9408,-12.1677,-12.2601,-12.2908,-12.2908,-12.2908,-12.2985,-12.3101,-12.3909,-12.4793,-12.5601,-12.6486,-12.6678,-12.6909,-12.7717,-12.8525,-12.941,-13.0294,-13.1102,-13.141,-13.0679,-13.1179,-13.1487,-13.0679,-13.1179,-13.1679,-13.1679,-13.1679,-13.1679,-13.1679,-13.1679,-13.1679,-13.1679,-13.1679,-13.1679,-13.1679,-13.1679,-13.1679,-13.1679,-13.1679,-13.2102,-13.291,-13.2102,-13.2102,-13.291,-13.2179,-13.1679,-13.1679,-13.1679,-13.2179,-13.2987,-13.2987,-13.391,-9.3864,-9.4941,-9.5134,-9.0594,-8.9248,-8.794,-8.3708,-8.4286,-8.5286,-8.3901,-8.6094,-8.7825,-8.6363,-8.6094,-8.5901,-8.5363,-8.5055,-8.4709,0.0,-8.3285,0.0,0.0,0.0,0.0,0.0,-9.3826,-9.4749,-9.6172,-9.4941,-9.5903,-9.9865,-10.1096,-10.2712,-10.4713,-10.6097,-10.6713,-10.6405,-10.8098,-10.8482,-10.7713,-10.9406,-11.0214,-11.0214,-11.1098,-11.1906,-11.2714,-11.3291,-11.4214,-11.5291,-11.5907,-11.6292,-11.6484,-11.6484,-11.6484,-11.6484,-11.6484,-11.6907,-11.76,-11.8985,-11.9985,-12.0908,-12.1793,-12.1985,-12.1985,-12.1985,-12.2408,-12.2985,-12.3216,-12.3909,-12.4716,-12.5601,-12.5794,-12.6294,-12.8294,-12.8986,-12.9602,-13.0987,-13.1102,-13.0794,-13.0602,-13.0718,-13.0794,-13.0487,-13.1179,-13.1679,-13.1679,-13.1679,-13.1679,-13.1679,-13.1679,-13.1679,-13.1679,-13.1679,-13.1679,-13.1679,-13.1679,-13.1679,-13.1679,-13.1679,-13.1795,-13.2102,-13.191,-13.1795,-13.2102,-13.191,-13.1679,-13.1679,-13.1679,-13.191,-13.2102,-13.2102,-13.3103,-9.5518,-9.6442,-9.6634,-9.3018,-9.1672,-9.0248,-8.6286,-8.694,-8.7979,-8.6594,-8.8286,-8.9902,-8.9363,-8.8517,-8.7709,-8.7132,-8.6055,-8.4709,0.0,-8.3247,-8.4362,-8.6286,0.0,0.0,0.0,-9.2672,-9.3364,-9.4864,-9.3864,-9.4672,-9.8134,-9.9942,-10.1712,-10.3405,-10.5097,-10.5905,-10.5905,-10.729,-10.779,-10.729,-10.8906,-10.9713,-10.979,-11.1021,-11.2099,-11.3214,-11.3791,-11.4714,-11.5792,-11.6292,-11.6484,-11.6484,-11.6484,-11.6484,-11.6484,-11.6484,-11.71,-11.8023,-11.9408,-12.01,-12.0408,-12.1293,-12.16,-12.16,-12.16,-12.1985,-12.2485,-12.2793,-12.3485,-12.4293,-12.5216,-12.5601,-12.6294,-12.8294,-12.8717,-12.9102,-13.0487,-13.041,-12.991,-12.9602,-13.0102,-13.041,-13.0102,-13.0987,-13.1679,-13.1679,-13.1679,-13.1679,-13.1679,-13.1679,-13.1679,-13.1679,-13.1679,-13.1679,-13.1679,-13.1679,-13.1679,-13.1679,-13.1679,-13.1679,-13.1679,-13.1679,-13.1679,-13.1679,-13.1679,-13.1679,-13.1679,-13.1679,-13.1679,-13.1679,-13.1679,-13.2487]}]]